[[{"header":{"parameterUnit":"m.s-1","parameterCategory":1,"la1":31.0,"la2":29.5877,"lo1":-88.7671,"lo2":-86.6584,"dy":0.0162,"dx":0.0185,"nx":115,"ny":88,"refTime":"2026-05-08T00:00:00:Z","depth":0,"parameterNumber":2,"parameterNumberName":"U-component_of_WINDS"},"data":[0.0,0.0,0.0,0.0,0.0,0.0,0.0,0.0,0.0,0.0,0.0,0.0,0.0,0.0,0.0,0.0,0.0,0.0,0.0,0.0,0.0,0.0,0.0,0.0,0.0,0.0,0.0,0.0,0.0,0.0,0.0,0.0,0.0,0.0,0.0,0.0,0.0,0.0,0.0,0.0,0.0,0.0,0.0,0.0,0.0,0.0,0.0,0.0,0.0,0.0,0.0,0.0,0.0,0.0,0.0,0.0,0.0,0.0,0.0,0.0,0.0,0.0,0.0,0.0,0.0,0.0,0.0,0.0,0.0,0.0,0.0,0.0,0.0,0.0,0.0,0.0,0.0,0.0,0.0,0.0,0.0,0.0,0.0,0.0,0.0,0.0,0.0,0.0,0.0,0.0,0.0,0.0,0.0,0.0,0.0,0.0,0.0,0.0,0.0,0.0,0.0,0.0,0.0,0.0,0.0,0.0,0.0,0.0,0.0,0.0,0.0,0.0,0.0,0.0,0.0,0.0,0.0,0.0,0.0,0.0,0.0,0.0,0.0,0.0,0.0,0.0,0.0,0.0,0.0,0.0,0.0,0.0,0.0,0.0,0.0,0.0,0.0,0.0,0.0,0.0,0.0,0.0,0.0,0.0,0.0,0.0,0.0,0.0,0.0,0.0,0.0,0.0,0.0,0.0,0.0,0.0,0.0,0.0,0.0,0.0,0.0,0.0,0.0,0.0,0.0,0.0,0.0,0.0,0.0,0.0,0.0,0.0,0.0,0.0,0.0,0.0,0.0,0.0,0.0,0.0,0.0,0.0,0.0,0.0,0.0,0.0,0.0,0.0,0.0,0.0,0.0,0.0,0.0,0.0,0.0,0.0,0.0,0.0,0.0,0.0,0.0,0.0,0.0,0.0,0.0,0.0,0.0,0.0,0.0,0.0,0.0,0.0,0.0,0.0,0.0,0.0,0.0,0.0,0.0,0.0,0.0,0.0,0.0,0.0,0.0,0.0,0.0,0.0,0.0,0.0,0.0,0.0,0.0,0.0,0.0,0.0,0.0,0.0,0.0,0.0,0.0,0.0,0.0,0.0,0.0,0.0,0.0,0.0,0.0,0.0,0.0,0.0,0.0,0.0,0.0,0.0,0.0,0.0,0.0,0.0,0.0,0.0,0.0,0.0,0.0,0.0,0.0,0.0,0.0,0.0,0.0,0.0,0.0,0.0,0.0,0.0,0.0,0.0,0.0,0.0,0.0,0.0,0.0,0.0,0.0,0.0,0.0,0.0,0.0,0.0,0.0,0.0,0.0,0.0,0.0,0.0,0.0,0.0,0.0,0.0,0.0,0.0,0.0,0.0,0.0,0.0,0.0,0.0,0.0,0.0,0.0,0.0,0.0,0.0,0.0,0.0,0.0,0.0,0.0,0.0,0.0,0.0,0.0,0.0,0.0,0.0,0.0,0.0,0.0,0.0,0.0,0.0,0.0,0.0,0.0,0.0,0.0,0.0,0.0,0.0,0.0,0.0,0.0,0.0,0.0,0.0,0.0,0.0,0.0,0.0,0.0,0.0,0.0,0.0,0.0,0.0,0.0,0.0,0.0,0.0,0.0,0.0,0.0,0.0,0.0,0.0,0.0,0.0,0.0,0.0,0.0,0.0,0.0,0.0,0.0,0.0,0.0,0.0,0.0,0.0,0.0,0.0,0.0,0.0,0.0,0.0,0.0,0.0,0.0,0.0,0.0,0.0,0.0,0.0,0.0,0.0,0.0,0.0,0.0,0.0,0.0,0.0,0.0,0.0,0.0,0.0,0.0,0.0,0.0,0.0,0.0,0.0,0.0,0.0,0.0,0.0,0.0,0.0,0.0,0.0,0.0,0.0,0.0,0.0,0.0,0.0,0.0,0.0,0.0,0.0,0.0,0.0,0.0,0.0,0.0,0.0,0.0,0.0,0.0,0.0,0.0,0.0,0.0,0.0,0.0,0.0,0.0,0.0,0.0,0.0,0.0,0.0,0.0,0.0,0.0,0.0,0.0,0.0,0.0,0.0,0.0,0.0,0.0,0.0,0.0,0.0,0.0,0.0,0.0,0.0,0.0,0.0,0.0,0.0,0.0,0.0,0.0,0.0,0.0,0.0,0.0,0.0,0.0,0.0,0.0,0.0,0.0,0.0,0.0,0.0,0.0,0.0,0.0,0.0,0.0,0.0,0.0,0.0,0.0,0.0,0.0,0.0,0.0,0.0,0.0,0.0,0.0,0.0,0.0,0.0,0.0,0.0,0.0,0.0,0.0,0.0,0.0,0.0,0.0,0.0,0.0,0.0,0.0,0.0,0.0,0.0,0.0,0.0,0.0,0.0,0.0,0.0,0.0,0.0,0.0,0.0,0.0,0.0,0.0,0.0,0.0,0.0,0.0,0.0,0.0,0.0,0.0,0.0,0.0,0.0,0.0,0.0,0.0,0.0,0.0,0.0,0.0,0.0,0.0,0.0,0.0,0.0,0.0,0.0,0.0,0.0,0.0,0.0,0.0,0.0,0.0,0.0,0.0,0.0,0.0,0.0,0.0,0.0,0.0,0.0,0.0,0.0,0.0,0.0,0.0,0.0,0.0,0.0,0.0,0.0,0.0,0.0,0.0,0.0,0.0,0.0,0.0,0.0,0.0,0.0,0.0,0.0,0.0,0.0,0.0,0.0,0.0,0.0,0.0,0.0,0.0,0.0,0.0,0.0,0.0,0.0,0.0,0.0,0.0,0.0,0.0,0.0,0.0,0.0,0.0,0.0,0.0,0.0,0.0,0.0,0.0,0.0,0.0,0.0,0.0,0.0,0.0,0.0,0.0,0.0,0.0,0.0,0.0,0.0,0.0,0.0,0.0,0.0,0.0,0.0,0.0,0.0,0.0,0.0,0.0,0.0,0.0,0.0,0.0,0.0,0.0,0.0,0.0,0.0,0.0,0.0,0.0,0.0,0.0,0.0,0.0,0.0,0.0,0.0,0.0,0.0,0.0,0.0,0.0,0.0,0.0,0.0,0.0,0.0,0.0,0.0,0.0,0.0,0.0,0.0,0.0,0.0,0.0,0.0,0.0,0.0,0.0,0.0,0.0,0.0,0.0,0.0,0.0,0.0,0.0,0.0,0.0,0.0,0.0,0.0,0.0,0.0,0.0,0.0,0.0,0.0,0.0,0.0,0.0,0.0,0.0,0.0,0.0,0.0,0.0,0.0,0.0,0.0,0.0,0.0,0.0,0.0,0.0,0.0,0.0,0.0,0.0,0.0,0.0,0.0,0.0,0.0,0.0,0.0,0.0,0.0,0.0,0.0,0.0,0.0,0.0,0.0,0.0,0.0,0.0,0.0,0.0,0.0,0.0,0.0,0.0,0.0,0.0,0.0,0.0,0.0,0.0,0.0,0.0,0.0,0.0,0.0,0.0,0.0,0.0,0.0,0.0,0.0,0.0,0.0,0.0,0.0,0.0,0.0,0.0,0.0,0.0,0.0,0.0,0.0,0.0,0.0,0.0,0.0,0.0,0.0,0.0,0.0,0.0,0.0,0.0,0.0,0.0,0.0,0.0,0.0,0.0,0.0,0.0,0.0,0.0,0.0,0.0,0.0,0.0,0.0,0.0,0.0,0.0,0.0,0.0,0.0,0.0,0.0,0.0,0.0,0.0,0.0,0.0,0.0,0.0,0.0,0.0,0.0,0.0,0.0,0.0,0.0,0.0,0.0,0.0,0.0,0.0,0.0,0.0,0.0,0.0,0.0,0.0,0.0,0.0,0.0,0.0,0.0,0.0,0.0,0.0,0.0,0.0,0.0,0.0,0.0,0.0,0.0,0.0,0.0,0.0,0.0,0.0,0.0,0.0,0.0,0.0,0.0,0.0,0.0,0.0,0.0,0.0,0.0,0.0,0.0,0.0,0.0,0.0,0.0,0.0,0.0,0.0,0.0,0.0,0.0,0.0,0.0,0.0,0.0,0.0,0.0,0.0,0.0,0.0,0.0,0.0,0.0,0.0,0.0,0.0,0.0,0.0,0.0,0.0,0.0,0.0,0.0,0.0,0.0,0.0,0.0,0.0,0.0,0.0,0.0,0.0,0.0,0.0,0.0,0.0,0.0,0.0,0.0,0.0,0.0,0.0,0.0,0.0,0.0,0.0,0.0,0.0,0.0,0.0,0.0,0.0,0.0,0.0,0.0,0.0,0.0,0.0,0.0,0.0,0.0,0.0,0.0,0.0,0.0,0.0,0.0,0.0,0.0,0.0,0.0,0.0,0.0,0.0,0.0,5.176,0.0,0.0,0.0,0.0,0.0,0.0,0.0,0.0,0.0,0.0,0.0,0.0,0.0,0.0,0.0,0.0,0.0,0.0,0.0,0.0,0.0,0.0,0.0,0.0,0.0,0.0,0.0,0.0,0.0,0.0,0.0,0.0,0.0,0.0,0.0,0.0,0.0,0.0,0.0,0.0,0.0,0.0,0.0,0.0,0.0,0.0,0.0,0.0,0.0,0.0,0.0,0.0,0.0,0.0,0.0,0.0,0.0,0.0,0.0,0.0,0.0,0.0,0.0,0.0,0.0,0.0,0.0,0.0,0.0,0.0,0.0,0.0,0.0,0.0,0.0,0.0,0.0,0.0,0.0,0.0,0.0,0.0,0.0,0.0,0.0,0.0,0.0,0.0,0.0,0.0,0.0,0.0,0.0,0.0,0.0,0.0,0.0,0.0,0.0,0.0,0.0,0.0,0.0,0.0,0.0,0.0,0.0,0.0,0.0,0.0,5.3029,5.2645,5.3453,5.328,5.1914,0.0,0.0,0.0,0.0,0.0,0.0,0.0,0.0,0.0,0.0,0.0,0.0,0.0,0.0,0.0,0.0,0.0,0.0,0.0,0.0,0.0,0.0,0.0,0.0,0.0,0.0,0.0,0.0,0.0,0.0,0.0,0.0,0.0,0.0,0.0,0.0,0.0,0.0,0.0,0.0,0.0,0.0,0.0,0.0,0.0,0.0,0.0,0.0,0.0,0.0,0.0,0.0,0.0,0.0,0.0,0.0,0.0,0.0,0.0,0.0,0.0,0.0,0.0,0.0,0.0,0.0,0.0,0.0,0.0,0.0,0.0,0.0,0.0,0.0,0.0,0.0,0.0,0.0,0.0,0.0,0.0,0.0,0.0,0.0,0.0,0.0,0.0,0.0,0.0,0.0,0.0,0.0,0.0,0.0,0.0,0.0,0.0,0.0,0.0,0.0,0.0,0.0,0.0,0.0,0.0,0.0,0.0,0.0,0.0,0.0,0.0,0.0,5.4414,5.378,5.1683,0.0,0.0,0.0,0.0,0.0,0.0,0.0,0.0,0.0,0.0,0.0,0.0,0.0,0.0,0.0,0.0,0.0,0.0,0.0,0.0,0.0,0.0,0.0,0.0,0.0,0.0,0.0,0.0,0.0,0.0,0.0,0.0,0.0,0.0,0.0,0.0,0.0,0.0,0.0,0.0,0.0,0.0,0.0,0.0,0.0,0.0,0.0,0.0,0.0,0.0,0.0,0.0,0.0,0.0,0.0,0.0,0.0,0.0,0.0,0.0,0.0,0.0,0.0,0.0,0.0,0.0,0.0,0.0,0.0,0.0,0.0,0.0,0.0,0.0,0.0,0.0,0.0,0.0,0.0,0.0,0.0,0.0,0.0,0.0,0.0,0.0,0.0,0.0,0.0,0.0,0.0,0.0,0.0,0.0,0.0,0.0,0.0,0.0,0.0,0.0,0.0,0.0,0.0,0.0,0.0,0.0,0.0,0.0,0.0,0.0,5.393,5.5434,5.553,0.0,5.1068,0.0,0.0,0.0,0.0,0.0,0.0,0.0,0.0,0.0,0.0,0.0,0.0,0.0,0.0,0.0,0.0,0.0,0.0,0.0,0.0,0.0,0.0,0.0,0.0,0.0,0.0,0.0,0.0,0.0,0.0,0.0,0.0,0.0,0.0,0.0,0.0,0.0,0.0,0.0,0.0,0.0,0.0,0.0,0.0,0.0,0.0,0.0,0.0,0.0,0.0,0.0,0.0,0.0,0.0,0.0,0.0,0.0,0.0,0.0,0.0,0.0,0.0,0.0,0.0,0.0,0.0,0.0,0.0,0.0,0.0,0.0,0.0,0.0,0.0,0.0,0.0,0.0,0.0,0.0,0.0,0.0,0.0,0.0,0.0,0.0,0.0,0.0,0.0,0.0,0.0,0.0,0.0,0.0,0.0,0.0,0.0,0.0,0.0,0.0,0.0,0.0,0.0,0.0,0.0,0.0,0.0,0.0,0.0,0.0,0.0,5.4802,5.6533,5.5126,5.3183,0.0,0.0,0.0,0.0,0.0,0.0,0.0,0.0,0.0,0.0,0.0,0.0,0.0,0.0,0.0,0.0,0.0,0.0,0.0,0.0,0.0,0.0,0.0,0.0,0.0,0.0,0.0,0.0,0.0,0.0,0.0,0.0,0.0,0.0,0.0,0.0,0.0,0.0,0.0,0.0,0.0,0.0,0.0,0.0,0.0,0.0,0.0,0.0,0.0,0.0,0.0,0.0,0.0,0.0,0.0,0.0,0.0,0.0,0.0,0.0,0.0,0.0,0.0,0.0,0.0,0.0,0.0,0.0,0.0,0.0,0.0,0.0,0.0,0.0,0.0,0.0,0.0,0.0,0.0,0.0,0.0,0.0,0.0,0.0,0.0,0.0,0.0,0.0,0.0,0.0,0.0,0.0,0.0,0.0,0.0,0.0,0.0,0.0,0.0,0.0,0.0,0.0,0.0,0.0,0.0,0.0,0.0,0.0,0.0,0.0,5.4434,0.0,5.6937,5.5357,5.3241,5.0779,0.0,0.0,0.0,0.0,0.0,0.0,0.0,0.0,0.0,0.0,0.0,0.0,0.0,0.0,0.0,0.0,0.0,0.0,0.0,0.0,0.0,0.0,0.0,0.0,0.0,0.0,0.0,0.0,0.0,0.0,0.0,0.0,0.0,0.0,0.0,0.0,0.0,0.0,0.0,0.0,0.0,0.0,0.0,0.0,0.0,0.0,0.0,0.0,0.0,0.0,0.0,0.0,0.0,0.0,0.0,0.0,0.0,0.0,0.0,0.0,0.0,0.0,0.0,0.0,0.0,0.0,0.0,0.0,0.0,0.0,0.0,0.0,0.0,0.0,0.0,0.0,0.0,0.0,0.0,0.0,0.0,0.0,0.0,0.0,0.0,0.0,0.0,0.0,0.0,0.0,0.0,0.0,0.0,0.0,0.0,0.0,0.0,0.0,0.0,0.0,0.0,0.0,0.0,0.0,0.0,0.0,0.0,0.0,0.0,5.527,5.5289,5.6973,5.6876,5.4876,0.0,0.0,0.0,0.0,0.0,0.0,0.0,0.0,0.0,0.0,0.0,0.0,0.0,0.0,0.0,0.0,0.0,0.0,0.0,0.0,0.0,0.0,0.0,0.0,0.0,0.0,0.0,0.0,0.0,0.0,0.0,0.0,0.0,0.0,0.0,0.0,0.0,0.0,0.0,0.0,0.0,0.0,0.0,0.0,0.0,0.0,0.0,0.0,0.0,0.0,0.0,0.0,0.0,0.0,0.0,0.0,0.0,0.0,0.0,0.0,0.0,0.0,0.0,0.0,0.0,0.0,0.0,0.0,0.0,0.0,0.0,0.0,0.0,0.0,0.0,0.0,0.0,0.0,0.0,0.0,0.0,0.0,0.0,0.0,0.0,0.0,0.0,0.0,0.0,0.0,0.0,0.0,0.0,0.0,0.0,0.0,0.0,0.0,0.0,0.0,0.0,0.0,0.0,0.0,0.0,0.0,0.0,0.0,0.0,5.3645,5.4314,5.589,5.8357,5.5033,5.2589,0.0,0.0,0.0,0.0,0.0,0.0,0.0,0.0,0.0,0.0,0.0,0.0,0.0,0.0,0.0,0.0,0.0,0.0,0.0,0.0,0.0,0.0,0.0,0.0,0.0,0.0,0.0,0.0,0.0,0.0,0.0,0.0,0.0,0.0,0.0,0.0,0.0,0.0,0.0,0.0,0.0,0.0,0.0,0.0,0.0,0.0,0.0,0.0,0.0,0.0,0.0,0.0,0.0,0.0,0.0,0.0,0.0,0.0,0.0,0.0,0.0,0.0,0.0,0.0,0.0,0.0,0.0,0.0,0.0,0.0,0.0,0.0,0.0,0.0,0.0,0.0,0.0,0.0,0.0,0.0,0.0,0.0,0.0,0.0,0.0,0.0,0.0,0.0,0.0,0.0,0.0,0.0,0.0,0.0,0.0,0.0,0.0,0.0,0.0,0.0,0.0,0.0,0.0,0.0,0.0,0.0,0.0,0.0,0.0,5.3126,0.0,5.6912,0.0,5.4494,5.1896,0.0,0.0,0.0,0.0,0.0,0.0,0.0,0.0,0.0,0.0,0.0,0.0,0.0,0.0,0.0,0.0,0.0,0.0,0.0,0.0,0.0,0.0,0.0,0.0,0.0,0.0,0.0,0.0,0.0,0.0,0.0,0.0,0.0,0.0,0.0,0.0,0.0,0.0,0.0,0.0,0.0,0.0,0.0,0.0,0.0,0.0,0.0,0.0,0.0,0.0,0.0,0.0,0.0,0.0,0.0,0.0,0.0,0.0,0.0,0.0,0.0,0.0,0.0,0.0,0.0,0.0,0.0,0.0,0.0,0.0,0.0,0.0,0.0,0.0,0.0,0.0,0.0,0.0,0.0,0.0,0.0,0.0,0.0,0.0,0.0,0.0,0.0,0.0,0.0,0.0,0.0,0.0,0.0,0.0,0.0,0.0,0.0,0.0,0.0,0.0,0.0,0.0,0.0,0.0,0.0,0.0,0.0,0.0,5.2318,5.553,5.7992,5.8127,5.5876,5.5568,5.3222,0.0,0.0,0.0,0.0,0.0,0.0,0.0,0.0,0.0,0.0,0.0,0.0,0.0,0.0,0.0,0.0,0.0,0.0,0.0,0.0,0.0,0.0,0.0,0.0,0.0,0.0,0.0,0.0,0.0,0.0,0.0,0.0,0.0,0.0,0.0,0.0,0.0,0.0,0.0,0.0,0.0,0.0,0.0,0.0,0.0,0.0,0.0,0.0,0.0,0.0,0.0,0.0,0.0,0.0,0.0,0.0,0.0,0.0,0.0,0.0,0.0,0.0,0.0,0.0,0.0,0.0,0.0,0.0,0.0,0.0,0.0,0.0,0.0,0.0,0.0,0.0,0.0,0.0,0.0,0.0,0.0,0.0,0.0,0.0,0.0,0.0,0.0,0.0,0.0,0.0,0.0,0.0,0.0,0.0,0.0,0.0,0.0,0.0,0.0,0.0,0.0,0.0,0.0,0.0,0.0,0.0,0.0,0.0,0.0,5.398,5.5871,5.7338,5.8146,5.4914,5.2626,0.0,0.0,0.0,0.0,0.0,0.0,0.0,0.0,0.0,0.0,0.0,0.0,0.0,0.0,0.0,0.0,0.0,0.0,0.0,0.0,0.0,0.0,0.0,0.0,0.0,0.0,0.0,0.0,0.0,0.0,0.0,0.0,0.0,0.0,0.0,0.0,0.0,0.0,0.0,0.0,0.0,0.0,0.0,0.0,0.0,0.0,0.0,0.0,0.0,0.0,0.0,0.0,0.0,0.0,0.0,0.0,0.0,0.0,0.0,0.0,0.0,0.0,0.0,0.0,0.0,0.0,0.0,0.0,0.0,0.0,0.0,0.0,0.0,0.0,0.0,0.0,0.0,0.0,0.0,0.0,0.0,0.0,0.0,0.0,0.0,0.0,0.0,0.0,0.0,0.0,0.0,0.0,0.0,0.0,0.0,0.0,0.0,0.0,0.0,0.0,0.0,0.0,0.0,0.0,0.0,0.0,0.0,0.0,0.0,5.468,5.6886,5.8377,5.905,5.5338,5.2972,5.2202,0.0,0.0,0.0,0.0,0.0,0.0,0.0,0.0,0.0,0.0,0.0,0.0,0.0,0.0,0.0,0.0,0.0,0.0,0.0,0.0,0.0,0.0,0.0,0.0,0.0,0.0,0.0,0.0,0.0,0.0,0.0,0.0,0.0,0.0,0.0,0.0,0.0,0.0,0.0,0.0,0.0,0.0,0.0,0.0,0.0,0.0,0.0,0.0,0.0,0.0,0.0,0.0,0.0,0.0,0.0,0.0,0.0,0.0,0.0,0.0,0.0,0.0,0.0,0.0,0.0,0.0,0.0,0.0,0.0,0.0,0.0,0.0,0.0,0.0,0.0,0.0,0.0,0.0,0.0,0.0,0.0,0.0,0.0,0.0,0.0,0.0,0.0,0.0,0.0,0.0,0.0,0.0,0.0,0.0,0.0,0.0,0.0,0.0,0.0,0.0,0.0,0.0,0.0,0.0,0.0,0.0,0.0,0.0,5.6975,6.0364,6.0973,5.8646,5.6742,5.426,0.0,0.0,0.0,0.0,0.0,0.0,0.0,0.0,0.0,0.0,0.0,0.0,0.0,0.0,0.0,0.0,0.0,0.0,0.0,0.0,0.0,0.0,0.0,0.0,0.0,0.0,0.0,0.0,0.0,0.0,0.0,0.0,0.0,0.0,0.0,0.0,0.0,0.0,0.0,0.0,0.0,0.0,0.0,0.0,0.0,0.0,0.0,0.0,0.0,0.0,0.0,0.0,0.0,0.0,0.0,0.0,0.0,0.0,0.0,0.0,0.0,0.0,0.0,0.0,0.0,0.0,0.0,0.0,0.0,0.0,0.0,0.0,0.0,0.0,0.0,0.0,0.0,0.0,0.0,0.0,0.0,0.0,0.0,0.0,0.0,0.0,0.0,0.0,0.0,0.0,0.0,0.0,0.0,0.0,0.0,0.0,0.0,0.0,0.0,0.0,0.0,0.0,0.0,0.0,0.0,0.0,0.0,0.0,0.0,5.7153,6.094,6.2377,6.1089,5.8204,5.5934,0.0,0.0,0.0,0.0,0.0,0.0,0.0,0.0,0.0,0.0,0.0,0.0,0.0,0.0,0.0,0.0,0.0,0.0,0.0,0.0,0.0,0.0,0.0,0.0,0.0,0.0,0.0,0.0,0.0,0.0,0.0,0.0,0.0,0.0,0.0,0.0,0.0,0.0,0.0,0.0,0.0,0.0,0.0,0.0,0.0,0.0,0.0,0.0,0.0,0.0,0.0,0.0,0.0,0.0,0.0,0.0,0.0,0.0,0.0,0.0,0.0,0.0,0.0,0.0,0.0,0.0,0.0,0.0,0.0,0.0,0.0,0.0,0.0,0.0,0.0,0.0,0.0,0.0,0.0,0.0,0.0,0.0,0.0,0.0,0.0,0.0,0.0,0.0,0.0,0.0,0.0,0.0,0.0,0.0,0.0,0.0,0.0,0.0,0.0,0.0,0.0,0.0,0.0,0.0,0.0,0.0,0.0,0.0,5.7478,5.8045,6.1151,6.2565,6.2108,6.0185,5.7877,0.0,0.0,0.0,0.0,0.0,0.0,0.0,0.0,0.0,0.0,0.0,0.0,0.0,0.0,0.0,0.0,0.0,0.0,0.0,0.0,0.0,0.0,0.0,0.0,0.0,0.0,0.0,0.0,0.0,0.0,0.0,0.0,0.0,0.0,0.0,0.0,0.0,0.0,0.0,0.0,0.0,0.0,0.0,0.0,0.0,0.0,0.0,0.0,0.0,0.0,0.0,0.0,0.0,0.0,0.0,0.0,0.0,0.0,0.0,0.0,0.0,0.0,0.0,0.0,0.0,0.0,0.0,0.0,0.0,0.0,0.0,0.0,0.0,0.0,0.0,0.0,0.0,0.0,0.0,0.0,0.0,0.0,0.0,0.0,0.0,0.0,0.0,0.0,0.0,0.0,0.0,0.0,0.0,0.0,0.0,0.0,0.0,0.0,0.0,0.0,0.0,0.0,0.0,0.0,0.0,0.0,0.0,0.0,5.7077,5.9331,6.1137,6.2103,6.2089,6.1839,5.9492,0.0,0.0,0.0,0.0,0.0,0.0,0.0,0.0,0.0,0.0,0.0,0.0,0.0,0.0,0.0,0.0,0.0,0.0,0.0,0.0,0.0,0.0,0.0,0.0,0.0,0.0,0.0,0.0,0.0,0.0,0.0,0.0,0.0,0.0,0.0,0.0,0.0,0.0,0.0,0.0,0.0,0.0,0.0,0.0,0.0,0.0,0.0,0.0,0.0,0.0,0.0,0.0,0.0,0.0,0.0,0.0,0.0,0.0,0.0,0.0,0.0,0.0,0.0,0.0,0.0,0.0,0.0,0.0,0.0,0.0,0.0,0.0,0.0,0.0,0.0,0.0,0.0,0.0,0.0,0.0,0.0,0.0,0.0,0.0,0.0,0.0,0.0,0.0,0.0,0.0,0.0,0.0,0.0,0.0,0.0,0.0,0.0,0.0,0.0,0.0,0.0,0.0,0.0,0.0,0.0,0.0,0.0,0.0,5.8002,5.8558,6.0877,6.2113,6.207,6.0146,5.7973,0.0,0.0,0.0,0.0,0.0,0.0,0.0,0.0,0.0,0.0,0.0,0.0,0.0,0.0,0.0,0.0,0.0,0.0,0.0,0.0,0.0,0.0,0.0,0.0,0.0,0.0,0.0,0.0,0.0,0.0,0.0,0.0,0.0,0.0,0.0,0.0,0.0,0.0,0.0,0.0,0.0,0.0,0.0,0.0,0.0,0.0,0.0,0.0,5.0085,0.0,0.0,0.0,0.0,0.0,0.0,0.0,0.0,0.0,0.0,0.0,0.0,0.0,0.0,0.0,0.0,0.0,0.0,0.0,0.0,0.0,0.0,0.0,0.0,0.0,0.0,0.0,0.0,0.0,0.0,0.0,0.0,0.0,0.0,0.0,0.0,0.0,0.0,0.0,0.0,0.0,0.0,0.0,0.0,0.0,0.0,0.0,0.0,0.0,0.0,0.0,0.0,0.0,0.0,0.0,0.0,0.0,0.0,0.0,5.7287,5.7735,5.9758,6.0877,6.0819,5.9184,5.7492,0.0,0.0,0.0,0.0,0.0,0.0,0.0,0.0,0.0,0.0,0.0,0.0,0.0,0.0,0.0,0.0,0.0,0.0,0.0,0.0,0.0,0.0,0.0,0.0,0.0,0.0,0.0,0.0,0.0,0.0,0.0,0.0,0.0,0.0,0.0,0.0,0.0,0.0,0.0,0.0,0.0,0.0,0.0,0.0,0.0,0.0,0.0,0.0,0.0,0.0,0.0,0.0,0.0,0.0,0.0,0.0,0.0,0.0,0.0,0.0,0.0,0.0,0.0,0.0,0.0,0.0,0.0,0.0,0.0,0.0,0.0,0.0,0.0,0.0,0.0,0.0,0.0,0.0,0.0,0.0,0.0,0.0,0.0,0.0,0.0,0.0,0.0,0.0,0.0,0.0,0.0,0.0,0.0,0.0,0.0,0.0,0.0,0.0,0.0,0.0,0.0,0.0,0.0,0.0,0.0,0.0,0.0,5.4474,5.613,5.7008,5.8508,5.9315,5.93,5.8531,5.728,5.5588,0.0,0.0,0.0,0.0,0.0,0.0,0.0,0.0,0.0,0.0,0.0,0.0,0.0,0.0,0.0,0.0,0.0,0.0,0.0,0.0,0.0,0.0,0.0,0.0,0.0,0.0,0.0,0.0,0.0,0.0,0.0,0.0,0.0,0.0,0.0,0.0,0.0,0.0,4.7719,4.9591,0.0,0.0,0.0,0.0,0.0,0.0,0.0,0.0,4.9496,0.0,0.0,0.0,0.0,0.0,0.0,0.0,0.0,0.0,0.0,0.0,0.0,0.0,0.0,0.0,0.0,0.0,0.0,0.0,0.0,0.0,0.0,0.0,0.0,0.0,0.0,0.0,0.0,0.0,0.0,0.0,0.0,0.0,0.0,0.0,0.0,0.0,0.0,0.0,0.0,0.0,0.0,0.0,0.0,0.0,0.0,0.0,0.0,0.0,0.0,0.0,0.0,0.0,0.0,0.0,0.0,5.2948,5.4759,5.6128,5.6994,5.7959,5.8498,5.8473,5.7665,5.6434,5.4761,0.0,0.0,0.0,0.0,0.0,0.0,0.0,0.0,0.0,0.0,0.0,0.0,0.0,0.0,0.0,0.0,0.0,0.0,0.0,0.0,0.0,0.0,0.0,0.0,0.0,0.0,0.0,0.0,0.0,0.0,0.0,0.0,0.0,0.0,0.0,0.0,0.0,0.0,0.0,5.1132,5.1591,0.0,0.0,0.0,0.0,0.0,0.0,0.0,0.0,4.9086,0.0,0.0,0.0,0.0,0.0,0.0,0.0,0.0,0.0,0.0,0.0,0.0,0.0,0.0,0.0,0.0,0.0,0.0,0.0,0.0,0.0,0.0,0.0,0.0,0.0,0.0,0.0,0.0,0.0,0.0,0.0,0.0,0.0,0.0,0.0,0.0,0.0,0.0,0.0,0.0,0.0,0.0,0.0,0.0,0.0,0.0,0.0,0.0,0.0,0.0,0.0,0.0,0.0,0.0,0.0,5.178,5.4397,5.5895,5.6321,5.717,5.7632,5.7588,5.6357,5.5126,0.0,0.0,0.0,0.0,0.0,0.0,0.0,0.0,0.0,0.0,0.0,0.0,0.0,0.0,0.0,0.0,0.0,0.0,0.0,0.0,0.0,0.0,0.0,0.0,0.0,0.0,0.0,0.0,0.0,0.0,0.0,0.0,0.0,0.0,0.0,0.0,0.0,0.0,0.0,0.0,5.1499,5.1747,5.0976,0.0,0.0,0.0,0.0,0.0,0.0,4.8903,4.8808,0.0,0.0,0.0,0.0,0.0,0.0,0.0,0.0,0.0,0.0,0.0,0.0,0.0,0.0,0.0,0.0,0.0,0.0,0.0,0.0,0.0,0.0,0.0,0.0,0.0,0.0,0.0,0.0,0.0,0.0,0.0,0.0,0.0,0.0,0.0,0.0,0.0,0.0,0.0,0.0,0.0,0.0,0.0,0.0,0.0,0.0,0.0,0.0,0.0,0.0,0.0,0.0,0.0,0.0,0.0,5.0159,5.3494,5.5205,5.5203,5.5878,5.6225,5.6203,5.4934,5.3741,0.0,0.0,0.0,0.0,0.0,0.0,0.0,0.0,0.0,0.0,0.0,0.0,0.0,0.0,0.0,0.0,0.0,0.0,0.0,0.0,0.0,0.0,0.0,0.0,0.0,0.0,0.0,0.0,0.0,0.0,0.0,0.0,0.0,0.0,0.0,0.0,0.0,0.0,0.0,0.0,0.0,5.2003,5.0606,5.0653,0.0,0.0,0.0,0.0,4.8821,4.8743,0.0,0.0,0.0,0.0,0.0,0.0,0.0,0.0,0.0,0.0,0.0,0.0,0.0,0.0,0.0,0.0,0.0,0.0,0.0,0.0,0.0,0.0,0.0,0.0,0.0,0.0,0.0,0.0,0.0,0.0,0.0,0.0,0.0,0.0,0.0,0.0,0.0,0.0,0.0,0.0,0.0,0.0,0.0,0.0,0.0,0.0,0.0,0.0,0.0,0.0,0.0,0.0,0.0,0.0,0.0,0.0,4.8451,5.1761,5.3474,5.3491,5.3587,5.3626,5.3645,5.3453,5.2606,0.0,0.0,0.0,0.0,0.0,0.0,0.0,0.0,0.0,0.0,0.0,0.0,0.0,0.0,0.0,0.0,0.0,0.0,0.0,0.0,0.0,0.0,0.0,0.0,0.0,0.0,0.0,0.0,0.0,0.0,0.0,0.0,0.0,0.0,0.0,0.0,0.0,0.0,0.0,0.0,0.0,5.29,4.9289,4.992,4.9808,0.0,0.0,4.7949,4.6941,4.7813,0.0,0.0,0.0,0.0,0.0,0.0,0.0,0.0,0.0,0.0,0.0,0.0,0.0,0.0,0.0,0.0,0.0,0.0,0.0,0.0,0.0,0.0,0.0,0.0,0.0,0.0,0.0,0.0,0.0,0.0,0.0,0.0,0.0,0.0,0.0,0.0,0.0,0.0,0.0,0.0,0.0,0.0,0.0,0.0,0.0,0.0,0.0,0.0,0.0,0.0,0.0,0.0,0.0,0.0,0.0,4.5475,4.8086,5.0529,5.2242,5.3147,5.3185,5.3205,5.3203,5.2299,5.0971,0.0,0.0,0.0,0.0,0.0,0.0,0.0,0.0,0.0,0.0,0.0,0.0,0.0,0.0,0.0,0.0,0.0,0.0,0.0,0.0,0.0,0.0,0.0,0.0,0.0,0.0,0.0,0.0,0.0,0.0,0.0,0.0,0.0,0.0,0.0,0.0,0.0,0.0,0.0,0.0,0.0,0.0,4.9495,4.9549,0.0,0.0,0.0,4.7468,4.767,0.0,0.0,0.0,0.0,0.0,0.0,0.0,0.0,0.0,0.0,0.0,0.0,0.0,0.0,0.0,0.0,0.0,0.0,0.0,0.0,0.0,0.0,0.0,0.0,0.0,0.0,0.0,0.0,0.0,0.0,0.0,0.0,0.0,0.0,0.0,0.0,0.0,0.0,0.0,0.0,0.0,0.0,0.0,0.0,0.0,0.0,0.0,0.0,0.0,0.0,0.0,0.0,0.0,0.0,0.0,0.0,0.0,4.7451,4.9586,5.1203,5.2184,5.2261,5.2146,5.1914,5.0702,0.0,0.0,0.0,0.0,0.0,0.0,0.0,0.0,0.0,0.0,0.0,0.0,0.0,0.0,0.0,0.0,0.0,0.0,0.0,0.0,0.0,0.0,0.0,0.0,0.0,0.0,0.0,3.9551,0.0,0.0,0.0,0.0,0.0,0.0,0.0,0.0,0.0,0.0,0.0,0.0,0.0,0.0,4.9347,4.9113,4.8887,4.8767,0.0,0.0,4.7121,4.8067,4.8104,4.7752,0.0,0.0,0.0,0.0,0.0,0.0,0.0,0.0,0.0,0.0,0.0,0.0,0.0,0.0,0.0,0.0,0.0,0.0,0.0,0.0,0.0,0.0,0.0,0.0,0.0,0.0,0.0,0.0,0.0,0.0,0.0,0.0,0.0,0.0,0.0,0.0,0.0,0.0,0.0,0.0,0.0,0.0,0.0,0.0,0.0,0.0,0.0,0.0,0.0,0.0,0.0,0.0,0.0,0.0,0.0,4.5797,4.9009,5.0356,4.9701,4.9663,4.9278,4.8471,4.8336,4.7509,0.0,0.0,0.0,0.0,0.0,0.0,0.0,0.0,0.0,0.0,0.0,0.0,0.0,0.0,0.0,0.0,0.0,0.0,0.0,0.0,0.0,0.0,0.0,0.0,0.0,0.0,0.0,0.0,0.0,0.0,0.0,0.0,0.0,0.0,0.0,0.0,0.0,0.0,0.0,0.0,0.0,4.8186,4.6916,4.7937,4.8557,0.0,0.0,4.7473,4.6999,4.8056,4.7886,4.5012,0.0,0.0,0.0,0.0,0.0,0.0,0.0,0.0,0.0,0.0,0.0,0.0,0.0,0.0,0.0,0.0,0.0,0.0,0.0,0.0,0.0,0.0,0.0,0.0,0.0,0.0,0.0,0.0,0.0,0.0,0.0,0.0,0.0,0.0,0.0,0.0,0.0,0.0,0.0,0.0,0.0,0.0,0.0,0.0,0.0,0.0,0.0,0.0,0.0,0.0,0.0,0.0,0.0,4.2595,4.478,4.7626,4.8933,4.8624,4.8585,4.8431,4.8105,4.8105,4.7067,0.0,0.0,0.0,0.0,0.0,0.0,0.0,0.0,0.0,0.0,0.0,0.0,0.0,0.0,0.0,0.0,0.0,0.0,0.0,0.0,0.0,0.0,0.0,0.0,0.0,0.0,0.0,0.0,4.2286,4.2506,4.2323,0.0,0.0,0.0,0.0,0.0,0.0,0.0,0.0,0.0,0.0,4.6116,4.648,4.6739,0.0,0.0,4.6794,4.6368,4.6049,4.6124,4.5694,4.3973,4.3403,0.0,0.0,0.0,0.0,0.0,0.0,0.0,0.0,0.0,0.0,0.0,0.0,0.0,0.0,0.0,0.0,0.0,0.0,0.0,0.0,0.0,0.0,0.0,0.0,0.0,0.0,0.0,0.0,0.0,0.0,0.0,0.0,0.0,0.0,0.0,0.0,0.0,0.0,0.0,0.0,0.0,0.0,0.0,0.0,0.0,0.0,0.0,0.0,0.0,0.0,0.0,0.0,4.1253,4.4261,4.632,4.7491,4.774,4.7736,4.7621,4.7355,4.7355,4.6338,0.0,0.0,0.0,0.0,0.0,0.0,0.0,0.0,0.0,0.0,0.0,0.0,0.0,0.0,0.0,0.0,0.0,0.0,0.0,0.0,0.0,0.0,0.0,0.0,0.0,0.0,0.0,0.0,4.2559,4.2395,4.177,0.0,0.0,0.0,0.0,0.0,0.0,0.0,0.0,0.0,0.0,4.4146,4.5695,4.5399,4.5236,4.5941,4.569,4.5412,4.554,4.517,4.4475,4.3473,0.0,0.0,0.0,0.0,0.0,0.0,0.0,0.0,0.0,0.0,0.0,0.0,0.0,0.0,0.0,0.0,0.0,0.0,0.0,0.0,0.0,0.0,0.0,0.0,0.0,0.0,0.0,4.6836,0.0,0.0,4.5547,0.0,0.0,0.0,0.0,0.0,0.0,0.0,0.0,0.0,0.0,0.0,0.0,0.0,0.0,0.0,0.0,0.0,0.0,0.0,0.0,0.0,0.0,4.0142,4.4215,4.5204,4.6069,4.6852,4.6928,4.6506,4.5701,4.5663,4.5074,4.3857,0.0,0.0,0.0,0.0,0.0,0.0,0.0,0.0,0.0,0.0,0.0,0.0,0.0,0.0,0.0,0.0,0.0,0.0,0.0,0.0,0.0,0.0,0.0,0.0,0.0,0.0,4.2693,4.1529,4.0663,0.0,0.0,0.0,0.0,0.0,0.0,0.0,0.0,0.0,0.0,4.1903,4.2495,4.4164,4.3812,4.3597,4.4323,4.4532,4.4834,4.5446,4.5488,4.4941,0.0,0.0,0.0,0.0,0.0,0.0,0.0,0.0,0.0,0.0,0.0,0.0,0.0,0.0,0.0,0.0,0.0,0.0,0.0,0.0,0.0,0.0,0.0,0.0,0.0,0.0,0.0,4.5951,4.5126,0.0,0.0,0.0,0.0,0.0,0.0,0.0,0.0,0.0,0.0,0.0,4.6836,4.5627,0.0,0.0,0.0,0.0,0.0,0.0,0.0,0.0,0.0,0.0,0.0,0.0,4.0938,4.3393,4.4147,4.4685,4.5158,4.5163,4.5028,4.4759,4.5093,4.4696,4.3502,0.0,0.0,0.0,0.0,0.0,0.0,0.0,0.0,0.0,0.0,0.0,0.0,0.0,0.0,0.0,0.0,0.0,0.0,0.0,0.0,0.0,0.0,0.0,0.0,0.0,4.2634,0.0,0.0,0.0,0.0,0.0,0.0,0.0,0.0,0.0,0.0,0.0,3.9846,4.0387,4.0587,4.0866,4.1379,4.1286,4.1322,0.0,0.0,0.0,0.0,0.0,0.0,0.0,0.0,0.0,0.0,0.0,0.0,0.0,0.0,3.7207,3.6652,3.5596,3.4685,3.445,0.0,0.0,0.0,0.0,0.0,0.0,0.0,0.0,0.0,0.0,0.0,0.0,0.0,0.0,4.5276,0.0,4.3588,0.0,0.0,0.0,0.0,0.0,0.0,0.0,0.0,4.6913,4.6913,4.6874,4.6011,4.53,0.0,4.3254,4.2374,0.0,0.0,0.0,0.0,0.0,0.0,0.0,0.0,4.1204,4.2588,4.3073,4.3494,4.3871,4.3891,4.382,4.373,4.4094,4.3932,4.3152,4.2302,4.1433,0.0,0.0,0.0,0.0,0.0,0.0,0.0,0.0,0.0,0.0,0.0,0.0,0.0,0.0,0.0,0.0,0.0,0.0,0.0,0.0,0.0,0.0,0.0,4.1339,0.0,0.0,0.0,0.0,0.0,0.0,0.0,0.0,0.0,3.8404,3.8839,3.9108,3.9379,3.9299,3.9323,3.9529,0.0,0.0,0.0,0.0,0.0,0.0,0.0,3.8797,3.8001,3.7251,3.6726,3.6259,3.5588,3.5096,3.4813,0.0,0.0,3.4917,3.4143,3.3233,3.2818,3.1926,3.1038,3.0232,2.9516,2.8578,0.0,0.0,0.0,0.0,0.0,0.0,0.0,0.0,4.5509,4.547,0.0,4.3799,0.0,0.0,0.0,0.0,0.0,4.5201,0.0,0.0,4.6855,4.6874,4.6855,4.5951,4.5528,4.5472,4.429,4.3317,4.2469,4.1111,0.0,0.0,0.0,0.0,0.0,0.0,4.0938,4.1797,4.2096,4.2477,4.3022,4.3057,4.2902,4.2637,4.2754,4.2835,4.2824,4.2553,4.2011,4.1222,4.0491,0.0,0.0,0.0,0.0,0.0,0.0,0.0,0.0,0.0,0.0,0.0,0.0,0.0,0.0,0.0,0.0,0.0,0.0,0.0,0.0,4.0132,0.0,0.0,0.0,0.0,0.0,0.0,0.0,0.0,0.0,0.0,3.6517,3.7307,3.7987,3.8675,0.0,0.0,0.0,0.0,3.6253,3.6811,3.6892,3.6987,3.7499,3.7451,3.7346,3.7253,0.0,0.0,3.5148,3.3727,3.2531,3.1875,3.0619,3.0454,3.3498,3.3489,3.282,3.1748,3.0306,2.9274,2.9038,2.7888,2.6529,4.4682,0.0,0.0,0.0,0.0,4.4566,4.4797,4.5509,4.4318,4.4145,4.4607,4.3549,0.0,0.0,0.0,0.0,0.0,0.0,4.6067,4.6855,4.6259,4.6297,4.6836,4.5184,4.4378,4.4303,4.2601,4.1637,4.1306,3.9754,3.9108,3.9297,0.0,0.0,0.0,0.0,4.095,4.1758,4.1879,4.2014,4.2162,4.1934,4.2132,4.2739,4.2782,4.2946,4.3277,4.375,4.3644,4.2837,4.2595,0.0,0.0,0.0,0.0,0.0,0.0,0.0,0.0,0.0,0.0,0.0,0.0,0.0,0.0,0.0,0.0,0.0,0.0,0.0,3.8572,3.8906,3.8374,0.0,0.0,0.0,0.0,0.0,0.0,0.0,0.0,0.0,3.4472,3.5954,3.6986,0.0,0.0,3.5559,3.4809,3.407,3.3874,3.4484,3.4854,0.0,3.4797,3.4706,3.4171,3.3082,3.2043,3.13,3.1149,3.069,3.029,3.005,2.9738,2.9523,2.9438,3.0127,3.0322,3.0027,2.8953,2.8116,2.7957,2.593,2.3861,4.5105,4.5528,4.4874,4.4797,4.5028,4.4509,4.4797,4.5528,4.4511,4.4357,4.478,4.4316,4.3605,4.278,4.245,0.0,0.0,0.0,4.5547,4.6355,4.5706,4.5745,4.6225,4.4515,4.3349,4.2695,4.1361,4.0552,4.0178,3.8857,3.7924,3.7553,0.0,0.0,3.9412,4.0036,4.0607,4.1086,4.1135,4.1135,4.1125,4.0669,4.0858,4.1772,4.2006,4.2414,4.3036,4.3809,4.4015,4.3634,4.3305,4.2677,0.0,0.0,0.0,0.0,0.0,0.0,0.0,0.0,0.0,0.0,0.0,3.8407,3.769,0.0,0.0,0.0,3.7911,3.8261,3.7738,3.7936,0.0,0.0,0.0,0.0,0.0,0.0,0.0,3.4284,3.4038,3.375,3.3552,3.4106,3.4469,3.4287,3.4122,3.3674,3.2691,0.0,3.1893,3.2278,3.2421,3.2305,3.1787,3.1747,3.1501,3.0555,2.9847,2.9201,2.8685,2.82,2.764,2.7139,2.6666,2.6079,2.5397,2.5852,2.6783,2.7717,2.6911,2.6143,2.6034,2.3864,2.1996,4.5374,4.5259,4.3758,4.3624,4.4374,4.4412,4.4797,4.549,4.5584,4.5509,4.5413,4.5547,4.5079,4.4164,4.35,0.0,4.4316,4.4374,4.4836,4.5531,4.5166,4.5216,4.5449,4.3848,4.2295,4.0853,4.0383,3.973,3.8931,3.8079,3.695,3.5647,3.7286,3.8558,3.9377,3.9825,4.0061,4.0042,4.007,4.0051,4.0001,3.9408,3.9481,4.0355,4.0843,4.1515,4.2378,4.3133,4.3634,4.3866,4.3134,4.245,4.1832,0.0,0.0,0.0,0.0,0.0,0.0,0.0,0.0,0.0,0.0,0.0,0.0,0.0,0.0,0.0,3.5987,0.0,3.7597,3.6987,0.0,0.0,0.0,3.4249,3.3507,3.3472,3.3467,3.3344,0.0,0.0,3.3087,3.1877,3.1225,3.1654,3.1919,3.1928,3.1544,3.0753,3.0167,3.009,2.9758,2.926,2.8835,2.8767,2.8794,2.8708,2.8856,2.8046,2.7003,2.5968,2.4723,2.3735,2.2498,2.1829,2.1778,2.2045,2.2442,2.4932,2.4426,2.3631,2.3556,2.2138,2.0802,4.3701,4.3662,4.3242,4.3951,4.5278,4.5278,4.5028,4.4662,4.5295,4.4893,4.3784,4.5062,4.4771,4.3426,4.3835,4.4107,4.4335,4.4989,4.5284,4.5184,4.4512,4.4519,4.4924,4.2356,4.0632,3.9739,3.8702,3.7761,3.6977,3.6104,3.5837,3.6095,3.5919,3.6435,3.7713,3.9025,3.9731,3.9731,3.9715,3.9604,3.9352,3.9175,3.9667,4.0854,4.1034,4.1772,4.3149,4.3579,4.4075,4.4656,4.4092,4.3501,4.29,4.0758,0.0,0.0,0.0,0.0,0.0,0.0,0.0,0.0,0.0,3.5366,3.4625,0.0,3.5381,0.0,3.6717,3.7138,3.6194,3.6021,0.0,0.0,3.3937,3.3356,3.2176,3.2485,3.2385,3.1196,3.0947,3.0631,3.0135,2.9757,2.9073,2.796,2.9504,3.0334,2.8924,2.8662,2.8361,2.7638,2.7859,2.7904,2.6846,2.5764,2.5077,2.5077,2.4244,2.3394,2.3088,2.2807,2.2515,2.2223,2.1938,2.1694,2.1595,2.1687,2.1862,2.2476,2.2375,2.2155,2.2187,2.0861,1.9614,4.3088,4.3085,4.3085,4.3643,4.4489,4.447,4.422,4.3816,4.4295,4.397,4.3167,4.4085,4.4162,4.3662,4.3742,4.3953,4.4297,4.4286,4.4173,4.3952,4.3213,4.3158,4.354,4.0896,3.9082,3.8015,3.7304,3.6546,3.5717,3.522,3.5092,3.5183,3.5073,3.5393,3.6205,3.7946,3.8676,3.8319,3.8656,3.8884,3.8946,3.928,3.9637,4.0029,4.0839,4.1484,4.203,4.2616,4.3221,4.3669,4.3364,4.2936,4.2381,4.0815,3.9143,0.0,0.0,0.0,0.0,0.0,0.0,0.0,0.0,0.0,0.0,0.0,3.494,3.561,3.6321,3.644,3.565,3.5341,3.4713,3.3584,3.2909,3.2076,3.1102,3.0998,3.0644,2.9827,2.9504,2.9172,2.8666,2.7908,2.7027,2.6055,2.6943,2.7373,2.674,2.6628,2.6337,2.5166,2.5637,2.5721,2.4345,2.3399,2.273,2.2552,2.2089,2.15,2.0756,2.064,2.0641,2.0025,1.9819,1.9922,1.9922,1.993,1.9813,1.9859,1.9896,2.0081,2.0565,1.9621,1.8423,4.278,4.2777,4.2755,4.2739,4.2725,4.2725,4.2802,4.2931,4.3047,4.297,4.2777,4.2898,4.3361,4.4032,4.3363,4.3384,4.394,4.2985,4.25,4.2436,4.1773,4.1633,4.1866,3.9614,3.764,3.6018,3.6057,3.5697,3.4833,3.4844,3.4523,3.3862,3.4523,3.4825,3.4926,3.6636,3.7296,3.6838,3.7575,3.8211,3.8689,3.9368,3.9465,3.8999,4.04,4.096,4.0326,4.1179,4.178,4.1908,4.1975,4.1773,4.1333,4.0425,3.9056,0.0,3.6121,0.0,0.0,0.0,0.0,0.0,0.0,0.0,0.0,3.3264,3.4182,3.5464,3.5519,3.5398,3.5202,3.4602,3.388,3.3087,3.1776,3.0707,3.0144,2.9442,2.8934,2.8781,2.8221,2.7826,2.7603,2.6124,2.5075,2.4848,2.4455,2.4377,2.4503,2.4612,2.4239,2.2977,2.3232,2.3271,2.2232,2.167,2.1363,2.1123,2.064,2.0413,1.8862,1.8611,1.8373,1.7345,1.7246,1.7351,1.7345,1.7562,1.7687,1.7813,1.7602,1.7853,1.8914,1.852,1.7488,4.0969,4.0989,4.1004,4.0871,4.0673,4.0673,4.1185,4.2104,4.2794,4.2297,4.1091,4.172,4.2366,4.2909,4.2778,4.2648,4.2511,4.2295,4.2027,4.1769,4.0998,4.0876,4.1126,3.8841,3.6535,3.4404,3.4936,3.4815,3.4036,3.4027,3.3954,3.3807,3.3954,3.4027,3.4082,0.0,0.0,0.0,3.8135,3.8601,3.8707,3.8854,3.9232,3.9895,4.0239,0.0,4.0615,4.0911,4.1065,4.1128,4.1292,0.0,0.0,0.0,0.0,0.0,0.0,0.0,0.0,0.0,0.0,0.0,3.3859,3.3317,3.3357,3.3918,3.4681,3.5464,3.5489,3.4996,3.3724,3.3019,3.2069,3.0785,2.9911,2.9366,2.9268,2.9066,2.8587,2.739,2.6622,2.582,2.5124,2.4013,2.3183,2.2798,2.2563,2.2433,2.2483,2.2694,2.2487,2.1813,2.1481,2.1439,2.1718,2.074,1.9934,1.9717,1.7898,1.6759,1.628,1.5341,1.4646,1.4234,1.499,1.5813,1.5828,1.6753,1.7457,1.7582,1.6568,1.6297,1.7635,1.782,1.7174,4.0065,0.0,4.0063,3.9984,0.0,3.984,4.0171,4.0788,4.1494,4.115,4.0101,4.0523,4.1109,4.1721,4.1304,4.1252,4.1472,4.0911,4.0544,4.0356,3.9824,3.9686,3.9853,3.7869,3.583,3.3876,3.4193,3.4091,3.3544,3.3509,3.319,3.2629,3.26,3.26,3.2665,3.3834,3.5423,3.7495,3.7761,3.8028,3.8303,3.8673,3.8844,3.8722,3.9185,0.0,0.0,0.0,0.0,0.0,0.0,0.0,0.0,0.0,0.0,3.7838,3.6723,3.5806,3.51,3.4696,3.4379,3.4059,3.4015,3.4,3.3979,3.4016,3.4128,3.4303,3.4098,3.3419,3.2264,3.1508,3.0819,3.0044,2.9039,2.8363,2.8312,2.7986,2.7486,2.6712,2.5459,2.4452,2.419,2.2706,2.1817,2.1607,2.146,2.1232,2.0983,2.1118,2.0897,2.0052,1.9138,1.8855,1.9427,1.9153,1.8548,1.8197,1.7285,1.6225,1.5358,1.4691,1.4126,1.3588,1.3911,1.4399,1.4462,1.5001,1.5463,1.5376,1.4849,1.4559,1.5343,1.5505,1.5275,3.9471,3.9611,3.9599,3.9575,3.9529,3.9529,3.9486,3.9476,0.0,0.0,0.0,3.9414,3.9833,4.0527,3.9833,3.9861,4.0428,3.9469,3.9036,3.9008,3.8803,3.8689,3.8615,3.7058,3.5351,3.3629,3.366,3.349,3.306,3.297,3.2384,3.1479,3.1271,3.1288,3.1483,3.2844,3.4627,3.671,3.7037,3.7344,3.7749,3.8419,3.8311,3.727,3.8039,3.8468,3.8446,3.8836,3.9259,3.9851,3.9919,3.9564,3.8959,3.8665,3.7899,3.6706,3.6503,3.592,3.476,3.4651,3.4349,3.3672,3.4133,3.4424,3.439,3.3829,3.3284,3.2976,3.2369,3.159,3.0687,3.0138,2.9663,2.9422,2.8279,2.7404,2.7191,2.6688,2.6146,2.5691,2.4214,2.3226,2.3462,2.1824,2.0641,2.0883,2.0639,2.0047,1.9596,1.9514,1.9293,1.8362,1.7534,1.7015,1.7533,1.7707,1.747,1.7463,1.7246,1.6628,1.5521,1.5065,1.4539,1.348,1.3264,1.3327,1.3321,1.3503,1.3244,1.3275,1.3011,1.2901,1.2811,1.2625,1.2519,3.8958,3.9616,3.9623,3.9435,3.9178,3.916,3.9026,3.8822,3.8751,3.875,3.8799,3.8641,3.886,3.9346,3.9224,3.9111,3.9017,3.8847,3.8762,3.8762,3.8719,3.8683,3.8626,3.7052,3.5036,3.2839,3.3078,3.3069,3.2586,3.1977,3.1533,3.1324,3.0787,3.0756,3.143,3.2249,3.3182,3.4246,3.6168,3.7244,3.7281,3.7408,3.7469,3.7478,3.7559,3.7782,3.7997,3.8647,3.9039,3.9157,3.9096,3.9003,3.8857,3.763,3.6801,3.6591,3.5989,3.5574,3.537,3.537,3.4955,3.4066,3.3989,3.4045,3.408,3.3563,3.2896,3.2054,3.1475,3.0583,2.9241,2.8892,2.8383,2.7233,2.6845,2.6358,2.5557,2.5276,2.4743,2.356,2.2377,2.1713,2.1741,2.0767,2.0207,2.0372,1.9728,1.8751,1.769,1.7627,1.7649,1.7145,1.6835,1.6914,1.7435,1.7589,1.7569,1.7582,1.658,1.5913,1.5417,1.4377,1.3675,1.3372,1.3156,1.3093,1.3188,1.334,1.296,1.2687,1.1949,1.1278,1.1076,1.0282,0.9902,3.8135,3.8524,3.894,3.9013,3.8884,3.8884,3.8826,3.8633,3.8136,3.7724,3.744,3.7747,3.8266,3.8865,3.8872,3.8817,3.8707,3.8707,3.8707,3.867,3.8248,3.8291,3.8436,3.6352,3.4302,3.2593,3.2736,3.2369,3.1568,3.1199,3.0485,2.9503,2.9105,2.9348,3.0127,3.1219,3.2176,3.2962,3.5164,3.6257,3.616,3.6563,3.6665,3.6464,3.6481,3.6945,3.7855,3.8227,3.8587,3.892,3.8908,3.8515,3.7682,3.6985,3.6436,3.5999,3.5674,3.5489,3.5489,3.4986,3.4259,3.3325,3.3241,3.3044,3.2483,3.2136,3.1553,3.0602,2.9754,2.8723,2.7614,2.7481,2.7036,2.5828,2.5664,2.5288,2.4409,2.4192,2.3887,2.3131,2.2111,2.1509,2.1613,2.0621,1.9809,1.9668,1.8449,1.7235,1.6615,1.6469,1.6507,1.6469,1.666,1.6901,1.7344,1.747,1.7573,1.7407,1.6827,1.6051,1.5317,1.4044,1.3245,1.3131,1.2181,1.1371,1.193,1.13,1.0936,1.0684,1.0188,0.9571,0.9415,0.8895,0.9159,3.7473,3.7814,3.8438,3.8707,3.8707,3.8707,3.8689,3.8609,3.7856,3.7228,3.6941,3.7296,3.7931,3.864,3.8574,3.8415,3.8259,3.8159,3.7968,3.7781,3.7197,3.7353,3.7824,3.5434,3.3509,3.2353,3.2295,3.1722,3.0668,3.0402,2.9385,2.7758,2.7705,2.8213,2.8991,3.0466,3.1475,3.211,3.374,3.4789,3.5138,3.5677,3.5839,3.565,3.5639,3.6156,3.7326,3.753,3.7886,3.8346,3.839,3.785,3.6701,3.6429,3.611,3.5534,3.5489,3.5374,3.5133,3.4245,3.331,3.2379,3.2307,3.1884,3.0983,3.0454,2.9895,2.9191,2.8186,2.7237,2.6665,2.6258,2.5804,2.5075,2.4779,2.4264,2.3368,2.3158,2.3073,2.2807,2.1893,2.1271,2.1083,2.0351,1.9344,1.8184,1.6969,1.6215,1.6206,1.5735,1.5697,1.6035,1.6447,1.6874,1.7166,1.7463,1.7459,1.7264,1.7191,1.6716,1.5689,1.452,1.4084,1.4163,1.2351,1.1529,1.1726,1.0863,1.0104,1.0058,0.9915,0.947,0.918,0.9326,0.9637,3.7256,3.8505,3.8634,3.8707,3.8707,3.8707,3.8713,3.8608,3.7849,3.7904,3.8283,3.7798,3.7941,3.8578,3.8186,3.7631,3.704,3.6469,3.5972,3.5435,3.5205,3.5647,3.6357,3.4602,3.2896,3.1551,3.1699,3.1261,3.0142,2.9447,2.8355,2.7012,2.7486,2.8197,2.9079,3.0449,3.1232,3.1297,3.1482,3.2591,3.4471,3.4622,3.4964,3.5622,3.5639,3.5685,3.6009,3.6471,3.6852,3.6933,3.6947,3.6761,3.6531,3.5982,3.5549,3.5504,3.5489,3.5133,3.4177,3.3255,3.2321,3.1462,3.1315,3.0957,3.0037,2.8984,2.8375,2.8164,2.7276,2.6653,2.6465,2.5734,2.5146,2.4707,2.4108,2.322,2.2328,2.2092,2.1811,2.0934,2.0874,2.0362,1.9654,1.9111,1.8232,1.6609,1.6095,1.5763,1.5431,1.5345,1.5478,1.5846,1.6341,1.6755,1.7048,1.745,1.7392,1.7184,1.7164,1.6945,1.6625,1.6555,1.6801,1.5928,1.5094,1.3805,1.3783,1.3287,1.1868,1.1419,1.1364,1.137,1.0391,1.0641,1.1482,3.6229,3.7326,3.7778,3.8267,3.867,3.8707,3.8701,3.8628,3.8,3.7885,3.8041,3.7558,3.7674,3.8165,3.7702,3.7287,3.6988,3.6291,3.5846,3.5474,3.4641,3.4641,3.5226,3.3475,3.2057,3.1285,3.138,3.0781,2.9459,2.8235,2.7318,2.6776,2.7012,2.7757,2.896,2.9573,3.0302,3.1157,3.119,3.2063,3.3667,3.4286,3.4824,3.5509,3.5639,3.5605,3.5762,3.6321,3.6486,3.619,3.6409,3.6415,3.5952,3.5676,3.5489,3.5424,3.4905,3.3959,3.2451,3.1974,3.1389,3.0432,3.0343,3.0216,2.9754,2.8484,2.7852,2.833,2.7288,2.6258,2.5679,2.5194,2.4564,2.3441,2.285,2.2264,2.1298,2.1155,2.1011,2.0644,2.0566,2.0207,1.9079,1.7844,1.6812,1.5703,1.5358,1.4954,1.4966,1.507,1.5324,1.5712,1.6157,1.6444,1.6691,1.7131,1.7103,1.678,1.6647,1.6633,1.6653,1.5814,1.5689,1.6817,1.5185,1.4304,1.4442,1.3388,1.2215,1.2335,1.218,1.2011,1.2206,1.2042,1.2345,3.553,3.6376,3.7154,3.7838,3.8377,3.8615,3.8707,3.8645,3.8259,3.8018,3.7713,3.7272,3.7212,3.7416,3.7143,3.6882,3.6591,3.5896,3.5349,3.4911,3.379,3.3542,3.3691,3.2422,3.1491,3.1189,3.0993,3.0111,2.868,2.7369,2.6708,2.6708,2.6708,2.7452,2.8859,2.9011,2.9719,3.1055,3.119,3.1839,3.3042,3.3816,3.4566,3.5232,3.5316,3.5207,3.4866,3.5675,3.5792,3.5076,3.5861,3.6054,3.5569,3.5489,3.5374,3.4986,3.3905,3.2664,3.1241,3.097,3.057,2.9856,2.9779,2.9779,2.9524,2.8244,2.7678,2.8164,2.6993,2.5682,2.5385,2.4585,2.3526,2.2178,2.1811,2.1298,2.0712,2.0576,2.0644,2.0576,2.0576,2.001,1.8576,1.674,1.5282,1.5144,1.4656,1.4369,1.485,1.505,1.5284,1.5745,1.6048,1.6313,1.6329,1.6698,1.6799,1.6473,1.6326,1.6333,1.6273,1.5275,1.4967,1.6478,1.4511,1.3976,1.5046,1.4072,1.3179,1.3125,1.3098,1.3037,1.3454,1.3006,1.2813,3.5515,3.6323,3.7158,3.7514,3.7606,3.8346,3.8658,3.8645,3.8601,3.8307,3.7737,3.7022,3.664,3.6498,3.6406,3.6045,3.5388,3.4864,3.3921,3.2764,3.2451,3.2021,3.1348,3.1269,3.1196,3.1128,3.0518,2.9438,2.793,2.7114,2.6708,2.6708,2.6742,2.7486,2.8772,2.8991,2.9719,3.1038,3.119,3.1591,3.2383,3.3151,3.3881,3.4572,3.4671,3.4136,3.3184,3.4001,3.4324,3.3667,3.4928,3.5554,3.5489,3.5454,3.5016,3.3959,3.2379,3.1315,3.1119,3.0419,2.9856,2.9792,2.9702,2.9767,2.9524,2.8004,2.7252,2.735,2.587,2.4992,2.5347,2.3746,2.2445,2.2014,2.1185,2.0751,2.0644,2.0576,2.0576,2.0566,2.0362,1.943,1.7605,1.55,1.4558,1.4423,1.4415,1.4629,1.4937,1.5211,1.5471,1.5718,1.6014,1.6337,1.6356,1.6493,1.6608,1.632,1.6166,1.6239,1.6266,1.6306,1.6446,1.6407,1.5776,1.556,1.5972,1.5855,1.5364,1.5184,1.5082,1.5032,1.4447,1.4064,1.3872,3.4697,3.5569,3.6552,3.7179,3.7509,3.769,3.7913,3.8117,3.7644,3.7267,3.6865,3.6295,3.5968,3.5881,3.5394,3.5036,3.4738,3.41,3.3254,3.229,3.1799,3.1444,3.1224,3.119,3.119,3.106,3.0443,2.9317,2.7861,2.7063,2.6708,2.681,2.7182,2.796,2.8822,2.8999,2.9741,3.1038,3.119,3.1772,3.288,3.3246,3.3582,3.394,3.4399,3.4131,3.3246,3.4032,3.4375,3.4175,3.5026,3.5489,3.5454,3.485,3.3845,3.2362,3.1523,3.097,3.0343,3.0011,2.9779,2.9702,2.9118,2.876,2.8341,2.6936,2.5994,2.6183,2.466,2.3834,2.4352,2.3583,2.248,2.1648,2.1214,2.0859,2.0644,2.0576,2.0576,2.0371,1.9485,1.7896,1.6637,1.5169,1.4422,1.4409,1.4616,1.4903,1.5164,1.5344,1.5511,1.5745,1.594,1.5965,1.596,1.6192,1.6381,1.6082,1.5939,1.5972,1.5999,1.6025,1.6126,1.6166,1.6066,1.6072,1.5972,1.5939,1.5825,1.5825,1.5825,1.5629,1.5242,1.4848,1.4752,3.4421,3.4943,3.6186,3.6805,3.6979,3.7148,3.7396,3.7596,3.7088,3.67,3.6326,3.5827,3.5639,3.547,3.4822,3.433,3.41,3.3626,3.3,3.2273,3.1765,3.1427,3.1224,3.119,3.119,3.1021,3.0207,2.9036,2.7862,2.7063,2.6708,2.6742,2.7452,2.8197,2.8854,2.8992,2.9732,3.0898,3.119,3.185,3.2934,3.327,3.3342,3.3353,3.3907,3.3938,3.3223,3.3824,3.4273,3.4568,3.513,3.5344,3.4964,3.4087,3.2927,3.166,3.0999,3.0585,3.0136,2.9905,2.9779,2.9702,2.8767,2.8092,2.7937,2.6086,2.536,2.524,2.4102,2.3047,2.357,2.3487,2.2695,2.1487,2.124,2.1055,2.0635,2.0576,2.045,1.9885,1.8525,1.7028,1.5856,1.4905,1.4449,1.4496,1.4776,1.5064,1.5324,1.5491,1.5585,1.5785,1.5825,1.5838,1.5883,1.6034,1.6157,1.5953,1.5852,1.5832,1.5825,1.5825,1.5825,1.5825,1.5825,1.5825,1.5825,1.5825,1.5825,1.5825,1.5825,1.573,1.5629,1.573,1.5439,3.4714,3.4582,3.6005,3.6362,3.6166,3.6761,3.7135,3.7167,3.7085,3.6703,3.6241,3.5827,3.5639,3.5453,3.4847,3.4151,3.3558,3.3339,3.2882,3.2188,3.2161,3.1765,3.1207,3.119,3.1123,3.1004,2.9685,2.8619,2.7791,2.708,2.6708,2.6826,2.7537,2.8315,2.8975,2.9181,2.9816,3.0881,3.119,3.1618,3.2286,3.3061,3.3195,3.2768,3.3329,3.337,3.2631,3.3216,3.389,3.458,3.516,3.5037,3.4171,3.3257,3.2471,3.1872,3.0663,3.0159,3.0482,3.0118,2.9792,2.9699,2.8791,2.8134,2.7836,2.6129,2.4861,2.4809,2.3857,2.3144,2.3154,2.3144,2.2654,2.1442,2.1387,2.1201,2.0762,2.0586,2.0159,1.9178,1.795,1.6875,1.5834,1.49,1.4369,1.4576,1.4863,1.5164,1.5424,1.5631,1.5792,1.5818,1.5825,1.5825,1.5825,1.5825,1.5832,1.5832,1.5832,1.5825,1.5825,1.5825,1.5825,1.5825,1.5825,1.5825,1.5825,1.5825,1.5825,1.5825,1.5825,1.5825,1.5825,1.5825,1.5825,3.5055,3.4675,3.5324,3.5764,3.589,3.6052,3.6291,3.658,3.6294,3.6017,3.5827,3.5667,3.5639,3.5436,3.4803,3.4084,3.3371,3.2889,3.2222,3.163,3.1546,3.1427,3.1241,3.119,3.092,3.0378,2.9465,2.8586,2.7841,2.708,2.6708,2.6911,2.7994,2.8704,2.9059,2.9985,3.083,3.1123,3.119,3.1776,3.2925,3.3261,3.3346,3.3299,3.347,3.3435,3.3216,3.338,3.4038,3.51,3.5385,3.5045,3.4054,3.3145,3.241,3.1927,3.0635,3.0231,3.0896,3.0344,2.998,2.9999,2.8986,2.8215,2.7906,2.6111,2.4888,2.4671,2.375,2.3144,2.3144,2.3144,2.2812,2.2187,2.2109,2.1777,2.1133,2.0771,1.9868,1.8563,1.7744,1.6561,1.5149,1.4448,1.4669,1.483,1.5211,1.5558,1.5671,1.5745,1.5825,1.5825,1.5825,1.5825,1.5825,1.5825,1.5825,1.5825,1.5825,1.5825,1.5825,1.5825,1.5825,1.5825,1.5825,1.5825,1.5825,1.5825,1.5825,1.5825,1.5825,1.5825,1.5825,1.5825,1.5825,3.5543,3.4964,3.5439,3.5688,3.5769,3.5623,3.5783,3.6028,3.5739,3.5639,3.5622,3.5639,3.5639,3.5402,3.4566,3.3855,3.3313,3.2357,3.163,3.1241,3.119,3.119,3.119,3.119,3.0987,3.0441,2.9745,2.8986,2.823,2.7503,2.7114,2.7351,2.8366,2.9144,2.9465,3.0548,3.119,3.1241,3.1732,3.2445,3.3263,3.3678,3.3752,3.3607,3.3582,3.3427,3.3216,3.335,3.4128,3.522,3.5489,3.5008,3.4025,3.3124,3.2452,3.1811,3.08,3.0181,3.0896,3.047,3.0118,3.0099,2.9326,2.8409,2.7671,2.6084,2.5295,2.4395,2.3847,2.3271,2.3154,2.3144,2.3008,2.2783,2.2568,2.2217,2.1491,2.0803,1.9734,1.8382,1.7343,1.6032,1.4936,1.4482,1.4943,1.5117,1.5431,1.5745,1.5778,1.5818,1.5825,1.5825,1.5825,1.5825,1.5825,1.5825,1.5825,1.5825,1.5825,1.5825,1.5825,1.5825,1.5825,1.5825,1.5825,1.5825,1.5825,1.5825,1.5825,1.5825,1.5825,1.5825,1.5825,1.5825,1.5825,3.6094,3.5388,3.6039,3.6002,3.5644,3.5622,3.5622,3.5622,3.5622,3.5639,3.5639,3.5639,3.5639,3.5318,3.4269,3.3609,3.3187,3.208,3.1376,3.1241,3.119,3.119,3.119,3.119,3.114,3.0982,3.0393,2.9652,2.8839,2.8078,2.7824,2.7806,2.8535,2.9347,3.0006,3.0818,3.119,3.1365,3.2581,3.3276,3.3448,3.4002,3.4145,3.3617,3.3511,3.317,3.2779,3.329,3.4203,3.531,3.5534,3.52,3.416,3.3199,3.2521,3.2214,3.07,3.0347,3.057,3.0645,3.0432,3.014,2.9964,2.9272,2.8029,2.7004,2.5914,2.4728,2.4082,2.3612,2.3271,2.3144,2.3115,2.3086,2.2744,2.2344,2.1928,2.0929,1.9879,1.8575,1.7129,1.5899,1.5021,1.481,1.49,1.5237,1.5438,1.5625,1.5752,1.5825,1.5825,1.5825,1.5825,1.5825,1.5825,1.5825,1.5825,1.5825,1.5825,1.5825,1.5825,1.5825,1.5825,1.5825,1.5825,1.5825,1.5825,1.5825,1.5825,1.5825,1.5825,1.5825,1.5825,1.5825,1.5825,3.6104,3.5555,3.5742,3.5739,3.5622,3.5639,3.5639,3.5639,3.5639,3.5639,3.5639,3.5639,3.5639,3.552,3.4624,3.3922,3.3264,3.2428,3.1647,3.1241,3.119,3.119,3.119,3.119,3.119,3.1067,3.051,2.9736,2.8991,2.8264,2.7874,2.7806,2.8636,2.9381,3.0108,3.0835,3.1157,3.1382,3.265,3.3359,3.3412,3.3676,3.3709,3.3601,3.3145,3.2817,3.2661,3.3619,3.4592,3.5415,3.5984,3.5919,3.5067,3.3956,3.3367,3.3133,3.1316,3.0407,3.1298,3.1022,3.0721,3.0959,3.0872,3.0783,3.0306,2.8553,2.7409,2.6486,2.5165,2.3789,2.3642,2.3291,2.3164,2.3096,2.2783,2.2607,2.2532,2.1955,2.1034,2.0183,1.8658,1.7336,1.6453,1.5597,1.5308,1.549,1.5565,1.5705,1.5798,1.5825,1.5825,1.5825,1.5825,1.5825,1.5825,1.5825,1.5825,1.5825,1.5825,1.5825,1.5825,1.5825,1.5825,1.5825,1.5825,1.5825,1.5825,1.5825,1.5825,1.5825,1.5825,1.5825,1.5825,1.5825,1.5825,3.6097,3.5622,3.5639,3.5639,3.5639,3.5639,3.5639,3.5639,3.5639,3.5639,3.5639,3.5639,3.5639,3.5554,3.4806,3.4092,3.3345,3.2661,3.1924,3.1275,3.119,3.119,3.119,3.119,3.119,3.1173,3.0769,3.0196,2.9492,2.8685,2.8518,2.8755,2.8907,2.9533,3.0565,3.092,3.119,3.1331,3.21,3.2679,3.3361,3.3771,3.3744,3.362,3.323,3.2974,3.3036,3.3664,3.4487,3.5295,3.5844,3.5899,3.5518,3.4723,3.4154,3.3872,3.1914,3.1123,3.1254,3.0934,3.0783,3.1097,3.1399,3.144,3.0819,2.9379,2.8392,2.7281,2.5442,2.4424,2.4058,2.3653,2.334,2.3154,2.291,2.2881,2.3028,2.2169,2.1481,2.0678,1.9614,1.8531,1.774,1.685,1.6359,1.6209,1.5987,1.5873,1.5825,1.5825,1.592,1.6015,1.5825,1.5825,1.5825,1.5825,1.5825,1.5825,1.5825,1.5825,1.5825,1.5825,1.5825,1.5825,1.5825,1.5825,1.5825,1.5825,1.5825,1.5825,1.5825,1.5825,1.5825,1.5825,1.5825,3.6011,3.5639,3.5639,3.5639,3.5639,3.5639,3.5639,3.5639,3.5639,3.5639,3.5639,3.5639,3.5639,3.5543,3.4829,3.4066,3.3362,3.2638,3.189,3.1376,3.119,3.119,3.119,3.119,3.119,3.119,3.119,3.0684,3.0005,2.934,2.9448,2.9651,2.9364,2.9888,3.0818,3.1157,3.119,3.1314,3.1839,3.2527,3.3317,3.3872,3.3958,3.3585,3.313,3.3253,3.3336,3.3634,3.4128,3.5459,3.5629,3.5813,3.5686,3.5312,3.4719,3.3766,3.2725,3.1655,3.0972,3.0846,3.0733,3.0972,3.1775,3.1843,3.1003,3.0174,2.9067,2.7673,2.6033,2.5117,2.4414,2.4004,2.3633,2.333,2.3193,2.3135,2.2911,2.2117,2.1425,2.1098,2.0105,1.9487,1.8987,1.8304,1.7576,1.7681,1.736,1.7188,1.6936,1.6662,1.6567,1.6386,1.6103,1.5825,1.5825,1.5825,1.5825,1.5825,1.5825,1.5825,1.5825,1.5825,1.5825,1.5825,1.5825,1.5825,1.5825,1.5825,1.5825,1.5825,1.5825,1.5825,1.5825,1.5825,1.5825,3.5694,3.5639,3.5639,3.5639,3.5639,3.5639,3.5639,3.5639,3.5639,3.5639,3.5639,3.5639,3.5639,3.5571,3.4884,3.4066,3.3345,3.2584,3.1907,3.1258,3.119,3.119,3.119,3.119,3.119,3.119,3.119,3.0825,3.0185,2.9947,2.9939,3.004,2.9922,3.0294,3.1038,3.119,3.119,3.1472,3.2615,3.3172,3.3289,3.3596,3.3709,3.3427,3.2555,3.2591,3.3306,3.3499,3.4158,3.5344,3.634,3.6678,3.6297,3.6401,3.5928,3.4816,3.3167,3.1993,3.1407,3.1241,3.121,3.1273,3.2077,3.2794,3.2585,3.1369,3.0273,2.8866,2.745,2.5948,2.4692,2.4053,2.376,2.3564,2.331,2.3144,2.3038,2.2814,2.2572,2.2339,2.1549,2.0826,2.0748,1.969,1.9175,1.909,1.8856,1.8672,1.8133,1.749,1.703,1.6574,1.6204,1.5825,1.5825,1.5825,1.5825,1.5825,1.5825,1.5825,1.5825,1.5825,1.5825,1.5825,1.5825,1.5825,1.5825,1.5825,1.5825,1.5825,1.5825,1.5825,1.5825,1.5825,1.5825,3.5639,3.5639,3.5639,3.5639,3.5639,3.5639,3.5639,3.5639,3.5639,3.5639,3.5639,3.5639,3.5639,3.5605,3.5165,3.4472,3.3322,3.2256,3.1562,3.1224,3.119,3.119,3.119,3.119,3.119,3.119,3.119,3.0909,3.0588,3.0015,2.9888,3.0446,3.0006,3.0176,3.1038,3.119,3.119,3.1314,3.2173,3.2934,3.3309,3.3145,3.3081,3.2924,3.215,3.2153,3.3365,3.3499,3.4233,3.5439,3.6652,3.7127,3.6723,3.6936,3.6751,3.5882,3.4369,3.2991,3.2397,3.1496,3.1097,3.1399,3.2215,3.2704,3.2696,3.1921,3.106,2.9984,2.8445,2.6582,2.4972,2.4326,2.4023,2.3752,2.3418,2.3154,2.3144,2.3144,2.3144,2.3028,2.2465,2.2233,2.1776,2.0917,2.0499,2.0361,1.9397,1.9131,1.8141,1.7498,1.7037,1.6574,1.6109,1.5832,1.5825,1.5825,1.5825,1.5825,1.5825,1.5825,1.5825,1.5825,1.5825,1.5825,1.5825,1.5825,1.5825,1.5825,1.5825,1.5825,1.5825,1.5825,1.5825,1.5825,1.5825,3.5639,3.5639,3.5639,3.5639,3.5639,3.5639,3.5639,3.5639,3.5639,3.5639,3.5639,3.5639,3.5639,3.5622,3.5605,3.4793,3.3541,3.2188,3.1512,3.1495,3.1258,3.1207,3.119,3.119,3.119,3.119,3.119,3.1157,3.0818,3.0108,3.0226,3.0818,3.0074,3.0226,3.1021,3.119,3.119,3.1241,3.1591,3.2184,3.2914,3.2708,3.2588,3.2275,3.1925,3.2198,3.32,3.3589,3.4113,3.5415,3.6622,3.6893,3.693,3.7293,3.7418,3.6939,3.5437,3.4118,3.3001,3.1893,3.1198,3.1524,3.2077,3.2566,3.2684,3.2314,3.1565,3.0449,2.9006,2.7064,2.561,2.4913,2.4401,2.3969,2.3477,2.3223,2.3067,2.3144,2.3144,2.3047,2.2921,2.2795,2.2581,2.2086,2.1762,2.1425,2.0468,1.9679,1.878,1.7963,1.7677,1.6936,1.6567,1.592,1.5825,1.5825,1.5825,1.5825,1.5825,1.5825,1.5825,1.5825,1.5825,1.5825,1.5825,1.5825,1.5825,1.5825,1.5825,1.5825,1.5825,1.5825,1.5825,1.5825,1.5825,3.5639,3.5639,3.5639,3.5639,3.5639,3.5639,3.5639,3.5639,3.5639,3.5639,3.5639,3.5639,3.5639,3.5639,3.5639,3.5081,3.3947,3.273,3.2019,3.1867,3.1529,3.1292,3.1207,3.119,3.119,3.119,3.119,3.119,3.1173,3.097,3.0734,3.1055,3.0801,3.0937,3.1055,3.119,3.119,3.128,3.1647,3.215,3.2538,3.261,3.2342,3.1962,3.164,3.2243,3.3185,3.3559,3.4128,3.5385,3.625,3.6833,3.736,3.8326,3.8453,3.7565,3.6052,3.4681,3.3714,3.2572,3.2034,3.219,3.2541,3.2855,3.3018,3.2796,3.2167,3.0942,2.9326,2.7541,2.7222,2.5893,2.4849,2.4379,2.3928,2.3525,2.3271,2.3154,2.3144,2.3144,2.3144,2.3135,2.2911,2.2795,2.2541,2.2366,2.1933,2.1409,2.0863,1.9861,1.9031,1.8118,1.7117,1.6379,1.5825,1.5825,1.5825,1.5825,1.5825,1.5825,1.5825,1.5825,1.5825,1.5825,1.5825,1.5825,1.5825,1.5825,1.5825,1.5825,1.5825,1.5825,1.5825,1.5825,1.5825,3.5639,3.5639,3.5639,3.5639,3.5639,3.5639,3.5639,3.5639,3.5639,3.5639,3.5639,3.5639,3.5639,3.5639,3.5639,3.5013,3.3897,3.3305,3.2442,3.1884,3.1698,3.1512,3.1258,3.119,3.119,3.119,3.119,3.119,3.114,3.0751,3.0903,3.1038,3.0852,3.0801,3.1123,3.119,3.1224,3.1348,3.1608,3.219,3.2799,3.2998,3.2672,3.218,3.1772,3.2213,3.3215,3.3499,3.4158,3.5374,3.6436,3.702,3.7691,3.8441,3.9145,3.8354,3.6632,3.5201,3.4404,3.3226,3.2177,3.2252,3.2742,3.3043,3.3081,3.2932,3.25,3.1279,3.0543,2.8872,2.7725,2.6638,2.5722,2.4844,2.4281,2.3769,2.3496,2.3291,2.3203,2.3174,2.3154,2.3144,2.3135,2.3038,2.3047,2.3144,2.3144,2.2862,2.2501,2.14,2.0116,1.8956,1.7885,1.7413,1.6739,1.6501,1.6238,1.6048,1.6015,1.6015,1.5825,1.5825,1.5825,1.5825,1.5825,1.5825,1.5825,1.5825,1.5825,1.5825,1.5825,1.5825,1.5825,1.5825,1.5825,3.5639,3.5639,3.5639,3.5639,3.5639,3.5639,3.5639,3.5639,3.5639,3.5639,3.5639,3.5622,3.5509,3.5374,3.5053,3.4489,3.3406,3.3372,3.2662,3.1867,3.1952,3.1884,3.136,3.119,3.119,3.119,3.119,3.119,3.1106,3.0751,3.0768,3.0937,3.0581,3.07,3.1326,3.1529,3.1444,3.1653,3.1698,3.2354,3.3165,3.3371,3.3176,3.2571,3.191,3.2153,3.3335,3.3499,3.4218,3.5424,3.6572,3.7385,3.7578,3.8676,3.9379,3.9015,3.6935,3.5885,3.5067,3.361,3.2478,3.2516,3.283,3.3018,3.3081,3.3043,3.2746,3.1786,3.0783,2.994,2.8314,2.716,2.6194,2.5341,2.4443,2.4004,2.3857,2.3742,2.3565,2.3496,2.331,2.3164,2.3154,2.3144,2.3144,2.3144,2.3144,2.296,2.2589,2.1756,2.0666,1.9621,1.8775,1.8364,1.7878,1.7478,1.7131,1.6686,1.6522,1.648,1.6103,1.5825,1.5825,1.5825,1.5825,1.5825,1.5825,1.5825,1.5825,1.5825,1.5825,1.5825,1.5825,1.5825,1.5825,3.5639,3.5639,3.5639,3.5639,3.5639,3.5639,3.5639,3.5639,3.5639,3.5639,3.5639,3.556,3.5262,3.4684,3.4006,3.3626,3.3457,3.344,3.3,3.2171,3.2341,3.207,3.1292,3.119,3.1224,3.1207,3.119,3.119,3.1157,3.1038,3.1038,3.1123,3.114,3.1393,3.1918,3.1968,3.2493,3.294,3.3083,3.3267,3.3417,3.3064,3.278,3.247,3.2103,3.2198,3.332,3.3604,3.4233,3.5434,3.6747,3.7319,3.7578,3.8691,3.929,3.8767,3.7501,3.6101,3.573,3.4206,3.2953,3.294,3.3031,3.3081,3.3081,3.3081,3.2945,3.2932,3.1216,2.9965,2.9035,2.7284,2.5984,2.5385,2.508,2.4692,2.4394,2.4033,2.3949,2.3782,2.3634,2.331,2.3184,2.3154,2.3144,2.3144,2.3047,2.296,2.2677,2.2031,2.1569,2.0701,1.972,1.9296,1.8489,1.8211,1.7505,1.7124,1.6834,1.6655,1.6197,1.5825,1.5825,1.5825,1.5825,1.5825,1.5825,1.5825,1.5825,1.5825,1.5825,1.5825,1.5825,1.5825,1.5832,3.5899,3.5622,3.5639,3.5639,3.5639,3.5639,3.5639,3.5639,3.5639,3.5639,3.5639,3.5622,3.5161,3.4401,3.3743,3.3386,3.3482,3.3761,3.3322,3.2763,3.2899,3.2662,3.1619,3.1557,3.1681,3.1224,3.119,3.119,3.119,3.119,3.119,3.119,3.1241,3.1512,3.229,3.233,3.2713,3.3262,3.3752,3.3998,3.3906,3.3486,3.3125,3.3145,3.244,3.2691,3.3351,3.3933,3.4472,3.5539,3.6747,3.7385,3.7706,3.8586,3.9424,3.9265,3.7965,3.6916,3.6119,3.4815,3.3869,3.324,3.3167,3.3081,3.3081,3.3081,3.3081,3.3068,3.2152,3.1235,3.0316,2.8855,2.7661,2.6742,2.5784,2.5342,2.4972,2.4555,2.4261,2.4104,2.3918,2.3653,2.3301,2.3164,2.3144,2.3144,2.3144,2.3047,2.296,2.2775,2.2315,2.1961,2.1105,2.0295,1.9274,1.8494,1.7353,1.6807,1.6414,1.6177,1.6008,1.5825,1.5825,1.5825,1.5825,1.5825,1.5825,1.5825,1.5825,1.5825,1.5825,1.5825,1.5825,1.5852,1.5879,3.6086,3.5622,3.5639,3.5639,3.5639,3.5639,3.5639,3.5639,3.5639,3.5639,3.5493,3.5211,3.4661,3.4092,3.324,3.2695,3.2848,3.3795,3.3271,3.2993,3.3339,3.3313,3.2442,3.2218,3.1856,3.119,3.119,3.119,3.1241,3.136,3.1461,3.1224,3.1478,3.1918,3.2442,3.2916,3.3389,3.4117,3.4556,3.4783,3.4672,3.4169,3.3922,3.3618,3.3262,3.3094,3.3759,3.416,3.4786,3.5889,3.6823,3.7446,3.7865,3.8762,3.9364,3.9265,3.8457,3.7738,3.671,3.5453,3.4428,3.3713,3.3167,3.3081,3.3081,3.3081,3.3081,3.3081,3.2426,3.1831,3.1199,3.0033,2.8914,2.7702,2.6816,2.6138,2.564,2.5214,2.4879,2.4727,2.4506,2.3978,2.3614,2.3252,2.3154,2.3144,2.3144,2.3144,2.3047,2.3047,2.2872,2.2589,2.2171,2.1414,2.0749,1.9575,1.8084,1.6849,1.6376,1.5981,1.5913,1.5825,1.5825,1.5825,1.5825,1.5825,1.5825,1.5825,1.5825,1.5825,1.5825,1.5825,1.5832,1.5865,1.5939,3.6069,3.5639,3.5639,3.5639,3.5639,3.5639,3.5639,3.5639,3.5622,3.5537,3.5222,3.4315,3.3694,3.3246,3.2405,3.1693,3.1596,3.2848,3.2647,3.2627,3.3232,3.3758,3.3136,3.25,3.1975,3.1314,3.119,3.119,3.136,3.185,3.1681,3.1376,3.1985,3.2628,3.3288,3.388,3.4438,3.503,3.5351,3.5402,3.5211,3.4814,3.4512,3.4348,3.3915,3.3774,3.4395,3.456,3.5085,3.6207,3.6995,3.7679,3.8159,3.8912,3.9364,3.9265,3.9177,3.8546,3.7587,3.616,3.4897,3.4345,3.3713,3.3081,3.3081,3.3081,3.3081,3.3056,3.2487,3.1871,3.1116,3.0226,2.959,2.9076,2.8168,2.7327,2.672,2.6094,2.5773,2.5506,2.5,2.4316,2.3949,2.3585,2.3232,2.3203,2.3144,2.3144,2.3144,2.3047,2.3047,2.296,2.296,2.2668,2.252,2.1302,1.948,1.8103,1.7362,1.6602,1.5913,1.592,1.5825,1.5825,1.5825,1.5825,1.5825,1.5825,1.5825,1.5825,1.5825,1.5825,1.5912,1.5992,1.6059,3.6388,3.5622,3.5639,3.5639,3.5639,3.5639,3.5639,3.5605,3.5593,3.5033,3.4242,3.364,3.3416,3.3086,3.2496,3.2156,3.2502,3.2577,3.2634,3.305,3.3807,3.4019,3.3513,3.2992,3.2381,3.1517,3.1241,3.15,3.1924,3.23,3.2527,3.2577,3.2882,3.3389,3.4083,3.4692,3.5267,3.5487,3.5639,3.5639,3.547,3.5038,3.479,3.5186,3.4517,3.455,3.5012,3.5074,3.5694,3.6379,3.7104,3.7707,3.8379,3.9002,3.9349,3.9424,3.9424,3.9104,3.862,3.7266,3.616,3.4594,3.3797,3.3081,3.3081,3.3081,3.3081,3.292,3.2648,3.2253,3.2166,3.1323,3.0496,3.0226,2.959,2.8588,2.7767,2.703,2.6157,2.5643,2.5129,2.4633,2.431,2.4019,2.3575,2.3271,2.3193,2.3164,2.3252,2.3203,2.3213,2.3164,2.3154,2.2698,2.2541,2.1616,2.0597,1.9374,1.813,1.7116,1.6109,1.5825,1.5825,1.5825,1.5825,1.5825,1.5825,1.5825,1.5825,1.5825,1.5825,1.5825,1.5945,1.6086,1.6146,3.6563,3.5667,3.5639,3.5639,3.5639,3.5639,3.5639,3.5605,3.5637,3.4769,3.3439,3.3611,3.3748,3.3541,3.2992,3.2822,3.3161,3.3232,3.3245,3.3695,3.423,3.4201,3.3812,3.3448,3.3136,3.2083,3.1867,3.2242,3.2639,3.2823,3.322,3.3626,3.3964,3.4353,3.4455,3.5199,3.5622,3.5639,3.5639,3.5639,3.5532,3.5492,3.544,3.6041,3.5723,3.5888,3.6075,3.6105,3.6171,3.6733,3.7248,3.7704,3.8387,3.8957,3.9334,3.9424,3.9424,3.9424,3.9104,3.7979,3.6554,3.4897,3.3725,3.324,3.3081,3.3081,3.3081,3.3081,3.3068,3.3081,3.3068,3.2239,3.1789,3.1601,3.0586,2.9681,2.8598,2.7673,2.6628,2.5615,2.5226,2.4832,2.4607,2.4326,2.4085,2.3809,2.3789,2.374,2.3721,2.3603,2.3438,2.3359,2.3261,2.2688,2.2039,2.1523,2.0817,1.9453,1.8311,1.7174,1.6292,1.6015,1.5825,1.5825,1.5825,1.5825,1.5825,1.5825,1.5825,1.5825,1.5825,1.5825,1.5912,1.6039,1.6126,3.6563,3.5667,3.5639,3.5639,3.5639,3.5639,3.5639,3.5605,3.5504,3.4813,3.3778,3.4167,3.4372,3.4209,3.3604,3.3513,3.3575,3.397,3.4013,3.3972,3.4614,3.4564,3.4268,3.4019,3.3955,3.3533,3.3124,3.3026,3.3415,3.3812,3.4218,3.4573,3.4895,3.5047,3.4641,3.5233,3.5588,3.5639,3.5639,3.5639,3.5712,3.6139,3.6481,3.6764,3.7014,3.721,3.7358,3.6873,3.6894,3.7256,3.7481,3.7874,3.8377,3.9038,3.9337,3.9424,3.9424,3.9424,3.9265,3.7405,3.6067,3.5047,3.4108,3.3398,3.3154,3.3081,3.3081,3.3081,3.3081,3.3081,3.3081,3.2982,3.2884,3.2525,3.1601,3.0777,2.9681,2.8505,2.7453,2.6237,2.5577,2.5024,2.489,2.4782,2.459,2.4404,2.4404,2.4326,2.4199,2.3975,2.3771,2.3516,2.3388,2.3047,2.2475,2.1886,2.1024,1.9711,1.8511,1.749,1.6567,1.592,1.5825,1.5825,1.5825,1.5825,1.5825,1.5825,1.5825,1.5825,1.5825,1.5845,1.5925,1.6019,1.6132,3.6563,3.6146,3.6163,3.5904,3.5656,3.5639,3.5639,3.5537,3.5131,3.4837,3.4814,3.4703,3.4491,3.4378,3.432,3.4124,3.4148,3.3656,3.3677,3.4281,3.481,3.4961,3.4793,3.46,3.4655,3.4523,3.4129,3.3805,3.4135,3.4486,3.4878,3.5233,3.5402,3.5453,3.5351,3.5554,3.5622,3.5639,3.5639,3.5639,3.5723,3.64,3.7077,3.7516,3.7718,3.8137,3.8447,3.7809,3.7563,3.7701,3.777,3.8172,3.8478,3.8996,3.9409,3.9424,3.9424,3.9424,3.9104,3.8055,3.6852,3.5762,3.4733,3.3784,3.324,3.3167,3.3081,3.3081,3.3081,3.3081,3.3081,3.3081,3.2982,3.2982,3.2326,3.1777,3.0777,2.9601,2.8423,2.7215,2.6376,2.5732,2.5431,2.5121,2.499,2.4863,2.4834,2.4619,2.4453,2.4287,2.4124,2.389,2.3622,2.3388,2.3028,2.2446,2.1228,1.9728,1.8864,1.8126,1.7203,1.6008,1.5825,1.5825,1.5825,1.5825,1.5825,1.5825,1.5825,1.5825,1.583,1.5925,1.5939,1.6066,1.6213,3.6268,3.6214,3.6061,3.5987,3.5827,3.5694,3.5639,3.5537,3.5098,3.5162,3.5394,3.5078,3.4924,3.4868,3.4863,3.4869,3.4834,3.4488,3.4351,3.4884,3.4923,3.517,3.5256,3.515,3.5178,3.52,3.4841,3.4466,3.4852,3.4901,3.5165,3.547,3.5639,3.5588,3.5588,3.5605,3.5639,3.5802,3.6,3.6214,3.6271,3.6734,3.7678,3.7961,3.8355,3.885,3.9007,3.8662,3.7998,3.7979,3.8126,3.8402,3.8462,3.8832,3.9334,3.9424,3.9424,3.9424,3.9104,3.8943,3.7829,3.6866,3.5534,3.4437,3.3696,3.3354,3.3192,3.3081,3.3081,3.3081,3.3081,3.3081,3.3081,3.3068,3.2884,3.2326,3.15,3.0226,2.9494,2.8285,2.715,2.6503,2.5849,2.5576,2.5332,2.5293,2.5264,2.501,2.4736,2.4531,2.4375,2.4075,2.3703,2.333,2.3193,2.3028,2.164,1.9761,1.9039,1.858,1.7023,1.5825,1.5825,1.5825,1.5825,1.5825,1.5825,1.5832,1.5905,1.5943,1.6011,1.6056,1.6012,1.6172,1.6406,3.5672,3.5814,3.5393,3.571,3.6232,3.5827,3.5639,3.556,3.5605,3.5571,3.5588,3.5537,3.547,3.5554,3.5543,3.5493,3.5442,3.5414,3.5442,3.5459,3.5419,3.5577,3.5577,3.5526,3.5509,3.5543,3.538,3.515,3.5526,3.5408,3.5504,3.5605,3.5622,3.5723,3.5774,3.5695,3.5757,3.6084,3.6791,3.6803,3.6671,3.7721,3.8218,3.8531,3.9042,3.9649,3.9679,3.9312,3.8574,3.8291,3.8326,3.8034,3.8182,3.8721,3.917,3.9424,3.9424,3.9424,3.9352,3.9192,3.8855,3.7753,3.627,3.5243,3.4418,3.3926,3.3639,3.323,3.3081,3.3081,3.3081,3.3081,3.3081,3.3081,3.3081,3.2513,3.1689,3.0972,3.0468,2.9421,2.8114,2.7161,2.6366,2.5907,2.5673,2.5557,2.5508,2.5498,2.5195,2.4756,2.4526,2.4085,2.3702,2.3242,2.3115,2.3154,2.1774,1.9861,1.9405,1.8764,1.7109,1.5825,1.5825,1.5825,1.5825,1.5825,1.5825,1.5925,1.5969,1.6135,1.6216,1.6289,1.6288,1.6533,1.672,3.5669,3.6401,3.5945,3.5983,3.6316,3.5827,3.5639,3.5639,3.5639,3.5639,3.5639,3.5639,3.5656,3.5639,3.5622,3.5639,3.5656,3.5622,3.5577,3.5639,3.5639,3.5639,3.5639,3.5639,3.5639,3.5639,3.5639,3.5639,3.5622,3.5639,3.5639,3.5622,3.5639,3.5876,3.6033,3.5908,3.6163,3.6667,3.7609,3.7488,3.7503,3.8408,3.8696,3.8986,3.9512,4.002,3.9969,3.985,3.9049,3.8162,3.8941,3.8855,3.7631,3.8631,3.9424,3.9424,3.9424,3.9424,3.9424,3.9424,3.9192,3.89,3.7959,3.647,3.55,3.471,3.4272,3.3801,3.3217,3.3081,3.3081,3.3081,3.3081,3.3081,3.3081,3.2797,3.2152,3.1661,3.1125,3.0397,2.9042,2.8073,2.7205,2.6239,2.5936,2.583,2.5723,2.5703,2.5498,2.5,2.4648,2.4198,2.3731,2.327,2.3135,2.3144,2.1587,2.0223,1.9695,1.8688,1.6835,1.5825,1.5825,1.5825,1.5825,1.5825,1.5825,1.5945,1.6162,1.6388,1.657,1.6619,1.6706,1.6927,1.681,3.511,3.5919,3.5598,3.5677,3.5985,3.5739,3.5639,3.5639,3.5639,3.5639,3.5639,3.5639,3.5774,3.6028,3.5825,3.5791,3.6096,3.5757,3.5639,3.5639,3.5639,3.5639,3.5639,3.5639,3.5639,3.5639,3.5639,3.5639,3.5639,3.5639,3.5639,3.5639,3.5639,3.6129,3.6518,3.6743,3.706,3.7699,3.8269,3.8292,3.8516,3.8888,3.914,3.9206,3.9782,4.0003,4.0087,4.0087,3.9279,3.8148,3.8946,3.8764,3.7805,3.8631,3.9394,3.9424,3.9424,3.9424,3.9424,3.9424,3.9424,3.9429,3.9357,3.8153,3.6769,3.5712,3.5051,3.4427,3.3665,3.3081,3.3081,3.3081,3.3081,3.3081,3.3081,3.3081,3.2711,3.2339,3.1794,3.1069,3.0151,2.9128,2.8115,2.7099,2.6433,2.643,2.6031,2.5566,2.5322,2.4893,2.4604,2.4307,2.3774,2.3299,2.3222,2.296,2.1587,2.0439,1.9687,1.8481,1.6595,1.5838,1.5852,1.5845,1.5825,1.5832,1.5933,1.6103,1.6272,1.6573,1.6878,1.6975,1.7071,1.7248,1.699,3.4403,3.5188,3.4977,3.5359,3.561,3.5667,3.5639,3.5639,3.5639,3.5639,3.5639,3.5639,3.596,3.6163,3.5876,3.596,3.6062,3.5842,3.5639,3.5639,3.5639,3.5639,3.5639,3.5639,3.5639,3.5639,3.5639,3.5639,3.5656,3.5757,3.5876,3.5673,3.596,3.6434,3.7009,3.7418,3.7922,3.8843,3.9262,3.9389,3.8907,3.9244,3.98,3.936,3.9681,4.0087,4.0087,3.985,3.9401,3.8674,3.8352,3.8498,3.85,3.8676,3.926,3.9424,3.9424,3.9424,3.9424,3.9424,3.9424,3.9619,3.992,3.9297,3.8196,3.6607,3.5808,3.4723,3.3827,3.323,3.3081,3.3081,3.3081,3.3081,3.3081,3.3081,3.2982,3.2698,3.2401,3.1773,3.1021,3.0065,2.9397,2.8283,2.703,2.7105,2.6532,2.5643,2.5244,2.4844,2.4594,2.4342,2.3701,2.331,2.3183,2.2775,2.1686,2.0727,1.9845,1.8319,1.6407,1.5953,1.5892,1.5965,1.6135,1.5987,1.6055,1.6327,1.6655,1.6823,1.701,1.7298,1.7437,1.7515,1.6957,3.5219,3.5999,3.6417,3.6479,3.6147,3.5783,3.5639,3.5639,3.5639,3.5639,3.5639,3.5639,3.5757,3.596,3.5791,3.5859,3.5859,3.5842,3.5673,3.5639,3.5639,3.5639,3.5639,3.5639,3.5639,3.5639,3.5639,3.5729,3.5943,3.6163,3.6231,3.5893,3.6468,3.733,3.7618,3.7978,3.8434,3.9595,3.9848,3.9966,3.9648,3.9649,3.9952,3.9834,4.007,4.0087,4.0087,4.002,3.9506,3.8925,3.9307,3.9279,3.9028,3.9301,3.9394,3.9424,3.9424,3.9424,3.9424,3.9424,3.9424,3.9589,3.9873,3.9993,3.9341,3.7726,3.6293,3.5128,3.4114,3.3528,3.3081,3.3081,3.3081,3.3081,3.3081,3.3081,3.3081,3.3043,3.292,3.2352,3.1749,3.112,3.0467,2.9376,2.8114,2.7107,2.6254,2.5605,2.5332,2.4971,2.46,2.4291,2.3634,2.3232,2.3154,2.2813,2.1919,2.0867,1.9911,1.813,1.6265,1.6121,1.6179,1.635,1.6474,1.6339,1.6423,1.677,1.7043,1.7041,1.7226,1.7463,1.747,1.7555,1.6698,3.5274,3.5762,3.638,3.6566,3.6298,3.581,3.5639,3.5639,3.5639,3.5639,3.5639,3.5656,3.5791,3.5926,3.5808,3.591,3.5943,3.574,3.5673,3.5639,3.574,3.5639,3.5639,3.5661,3.5639,3.5673,3.6072,3.6279,3.6523,3.6907,3.7026,3.6738,3.7618,3.8108,3.8229,3.8267,3.8705,3.9986,4.007,4.0087,4.0087,4.0087,4.0087,4.0087,4.0087,4.0087,4.0087,4.007,3.961,3.9126,3.9116,3.9422,3.9268,3.9436,3.9364,3.9424,3.9424,3.9424,3.9424,3.9424,3.9424,3.9589,3.9649,3.9723,3.9531,3.804,3.7226,3.6004,3.471,3.4088,3.3341,3.3081,3.3081,3.3081,3.3081,3.3081,3.3081,3.3068,3.3043,3.2895,3.2462,3.2278,3.142,2.9975,2.8778,2.8057,2.7105,2.58,2.542,2.5166,2.4775,2.4385,2.3818,2.331,2.3154,2.293,2.2447,2.1245,2.0052,1.8444,1.6876,1.661,1.6486,1.6659,1.6758,1.6623,1.6814,1.7079,1.7172,1.7173,1.7338,1.7582,1.7589,1.7477,1.6393,3.5449,3.5535,3.602,3.633,3.651,3.6054,3.5827,3.5739,3.5728,3.5684,3.5639,3.5639,3.6062,3.618,3.618,3.6417,3.6518,3.6417,3.6129,3.6096,3.6113,3.592,3.5824,3.5898,3.6101,3.6359,3.672,3.7172,3.7635,3.7889,3.799,3.7973,3.8193,3.8447,3.8668,3.8754,3.9041,3.9834,4.0087,4.0087,4.0087,4.0087,4.0087,4.0087,4.0087,4.0087,4.0087,4.007,3.978,3.9721,3.9562,3.9913,3.9926,3.9954,3.9772,3.9763,3.9469,3.9454,3.9424,3.9424,3.9424,3.9454,3.9424,3.9307,3.916,3.8737,3.7863,3.6847,3.5648,3.458,3.3832,3.3326,3.3326,3.3081,3.3081,3.3081,3.3081,3.3081,3.3081,3.3081,3.3068,3.3043,3.2127,3.0664,2.9567,2.8936,2.784,2.6512,2.5586,2.5361,2.5068,2.4775,2.4293,2.3796,2.334,2.3008,2.2723,2.1543,2.0279,1.8769,1.7559,1.7102,1.68,1.6881,1.6941,1.6908,1.7022,1.7245,1.7264,1.7318,1.745,1.7589,1.7589,1.7259,1.5962,3.7408,3.7967,3.7654,3.7541,3.7524,3.7041,3.6626,3.6326,3.6387,3.6191,3.5745,3.5639,3.5757,3.5893,3.6451,3.6772,3.6941,3.7009,3.7381,3.7499,3.7178,3.6552,3.6387,3.7026,3.7381,3.7523,3.7564,3.7782,3.8348,3.8633,3.8497,3.8108,3.9292,3.9394,3.9022,3.9192,3.9631,4.0087,4.0087,4.0087,4.0087,4.0087,4.0087,4.0087,4.0087,4.0087,4.0206,4.0696,4.0848,4.0939,4.1095,4.1276,4.115,4.0746,4.034,4.0031,3.9793,3.9454,3.9424,3.9424,3.9424,3.9424,3.9424,3.9424,3.9307,3.9307,3.8454,3.7789,3.6604,3.5601,3.4865,3.4384,3.4204,3.3398,3.3081,3.3081,3.3081,3.3081,3.3081,3.3081,3.3081,3.3068,3.2884,3.13,2.9704,2.8822,2.7484,2.6234,2.5488,2.5391,2.5322,2.5012,2.4759,2.43,2.3831,2.332,2.2811,2.1753,2.0582,1.9155,1.8129,1.7395,1.7108,1.7174,1.7295,1.7432,1.7468,1.7324,1.7384,1.7457,1.7575,1.7589,1.7589,1.7279,1.6205]},{"header":{"parameterUnit":"m.s-1","parameterCategory":1,"la1":31.0,"la2":29.5877,"lo1":-88.7671,"lo2":-86.6584,"dy":0.0162,"dx":0.0185,"nx":115,"ny":88,"refTime":"2026-05-08T00:00:00:Z","depth":0,"parameterNumber":3,"parameterNumberName":"V-component_of_WINDS"},"data":[0.0,0.0,0.0,0.0,0.0,0.0,0.0,0.0,0.0,0.0,0.0,0.0,0.0,0.0,0.0,0.0,0.0,0.0,0.0,0.0,0.0,0.0,0.0,0.0,0.0,0.0,0.0,0.0,0.0,0.0,0.0,0.0,0.0,0.0,0.0,0.0,0.0,0.0,0.0,0.0,0.0,0.0,0.0,0.0,0.0,0.0,0.0,0.0,0.0,0.0,0.0,0.0,0.0,0.0,0.0,0.0,0.0,0.0,0.0,0.0,0.0,0.0,0.0,0.0,0.0,0.0,0.0,0.0,0.0,0.0,0.0,0.0,0.0,0.0,0.0,0.0,0.0,0.0,0.0,0.0,0.0,0.0,0.0,0.0,0.0,0.0,0.0,0.0,0.0,0.0,0.0,0.0,0.0,0.0,0.0,0.0,0.0,0.0,0.0,0.0,0.0,0.0,0.0,0.0,0.0,0.0,0.0,0.0,0.0,0.0,0.0,0.0,0.0,0.0,0.0,0.0,0.0,0.0,0.0,0.0,0.0,0.0,0.0,0.0,0.0,0.0,0.0,0.0,0.0,0.0,0.0,0.0,0.0,0.0,0.0,0.0,0.0,0.0,0.0,0.0,0.0,0.0,0.0,0.0,0.0,0.0,0.0,0.0,0.0,0.0,0.0,0.0,0.0,0.0,0.0,0.0,0.0,0.0,0.0,0.0,0.0,0.0,0.0,0.0,0.0,0.0,0.0,0.0,0.0,0.0,0.0,0.0,0.0,0.0,0.0,0.0,0.0,0.0,0.0,0.0,0.0,0.0,0.0,0.0,0.0,0.0,0.0,0.0,0.0,0.0,0.0,0.0,0.0,0.0,0.0,0.0,0.0,0.0,0.0,0.0,0.0,0.0,0.0,0.0,0.0,0.0,0.0,0.0,0.0,0.0,0.0,0.0,0.0,0.0,0.0,0.0,0.0,0.0,0.0,0.0,0.0,0.0,0.0,0.0,0.0,0.0,0.0,0.0,0.0,0.0,0.0,0.0,0.0,0.0,0.0,0.0,0.0,0.0,0.0,0.0,0.0,0.0,0.0,0.0,0.0,0.0,0.0,0.0,0.0,0.0,0.0,0.0,0.0,0.0,0.0,0.0,0.0,0.0,0.0,0.0,0.0,0.0,0.0,0.0,0.0,0.0,0.0,0.0,0.0,0.0,0.0,0.0,0.0,0.0,0.0,0.0,0.0,0.0,0.0,0.0,0.0,0.0,0.0,0.0,0.0,0.0,0.0,0.0,0.0,0.0,0.0,0.0,0.0,0.0,0.0,0.0,0.0,0.0,0.0,0.0,0.0,0.0,0.0,0.0,0.0,0.0,0.0,0.0,0.0,0.0,0.0,0.0,0.0,0.0,0.0,0.0,0.0,0.0,0.0,0.0,0.0,0.0,0.0,0.0,0.0,0.0,0.0,0.0,0.0,0.0,0.0,0.0,0.0,0.0,0.0,0.0,0.0,0.0,0.0,0.0,0.0,0.0,0.0,0.0,0.0,0.0,0.0,0.0,0.0,0.0,0.0,0.0,0.0,0.0,0.0,0.0,0.0,0.0,0.0,0.0,0.0,0.0,0.0,0.0,0.0,0.0,0.0,0.0,0.0,0.0,0.0,0.0,0.0,0.0,0.0,0.0,0.0,0.0,0.0,0.0,0.0,0.0,0.0,0.0,0.0,0.0,0.0,0.0,0.0,0.0,0.0,0.0,0.0,0.0,0.0,0.0,0.0,0.0,0.0,0.0,0.0,0.0,0.0,0.0,0.0,0.0,0.0,0.0,0.0,0.0,0.0,0.0,0.0,0.0,0.0,0.0,0.0,0.0,0.0,0.0,0.0,0.0,0.0,0.0,0.0,0.0,0.0,0.0,0.0,0.0,0.0,0.0,0.0,0.0,0.0,0.0,0.0,0.0,0.0,0.0,0.0,0.0,0.0,0.0,0.0,0.0,0.0,0.0,0.0,0.0,0.0,0.0,0.0,0.0,0.0,0.0,0.0,0.0,0.0,0.0,0.0,0.0,0.0,0.0,0.0,0.0,0.0,0.0,0.0,0.0,0.0,0.0,0.0,0.0,0.0,0.0,0.0,0.0,0.0,0.0,0.0,0.0,0.0,0.0,0.0,0.0,0.0,0.0,0.0,0.0,0.0,0.0,0.0,0.0,0.0,0.0,0.0,0.0,0.0,0.0,0.0,0.0,0.0,0.0,0.0,0.0,0.0,0.0,0.0,0.0,0.0,0.0,0.0,0.0,0.0,0.0,0.0,0.0,0.0,0.0,0.0,0.0,0.0,0.0,0.0,0.0,0.0,0.0,0.0,0.0,0.0,0.0,0.0,0.0,0.0,0.0,0.0,0.0,0.0,0.0,0.0,0.0,0.0,0.0,0.0,0.0,0.0,0.0,0.0,0.0,0.0,0.0,0.0,0.0,0.0,0.0,0.0,0.0,0.0,0.0,0.0,0.0,0.0,0.0,0.0,0.0,0.0,0.0,0.0,0.0,0.0,0.0,0.0,0.0,0.0,0.0,0.0,0.0,0.0,0.0,0.0,0.0,0.0,0.0,0.0,0.0,0.0,0.0,0.0,0.0,0.0,0.0,0.0,0.0,0.0,0.0,0.0,0.0,0.0,0.0,0.0,0.0,0.0,0.0,0.0,0.0,0.0,0.0,0.0,0.0,0.0,0.0,0.0,0.0,0.0,0.0,0.0,0.0,0.0,0.0,0.0,0.0,0.0,0.0,0.0,0.0,0.0,0.0,0.0,0.0,0.0,0.0,0.0,0.0,0.0,0.0,0.0,0.0,0.0,0.0,0.0,0.0,0.0,0.0,0.0,0.0,0.0,0.0,0.0,0.0,0.0,0.0,0.0,0.0,0.0,0.0,0.0,0.0,0.0,0.0,0.0,0.0,0.0,0.0,0.0,0.0,0.0,0.0,0.0,0.0,0.0,0.0,0.0,0.0,0.0,0.0,0.0,0.0,0.0,0.0,0.0,0.0,0.0,0.0,0.0,0.0,0.0,0.0,0.0,0.0,0.0,0.0,0.0,0.0,0.0,0.0,0.0,0.0,0.0,0.0,0.0,0.0,0.0,0.0,0.0,0.0,0.0,0.0,0.0,0.0,0.0,0.0,0.0,0.0,0.0,0.0,0.0,0.0,0.0,0.0,0.0,0.0,0.0,0.0,0.0,0.0,0.0,0.0,0.0,0.0,0.0,0.0,0.0,0.0,0.0,0.0,0.0,0.0,0.0,0.0,0.0,0.0,0.0,0.0,0.0,0.0,0.0,0.0,0.0,0.0,0.0,0.0,0.0,0.0,0.0,0.0,0.0,0.0,0.0,0.0,0.0,0.0,0.0,0.0,0.0,0.0,0.0,0.0,0.0,0.0,0.0,0.0,0.0,0.0,0.0,0.0,0.0,0.0,0.0,0.0,0.0,0.0,0.0,0.0,0.0,0.0,0.0,0.0,0.0,0.0,0.0,0.0,0.0,0.0,0.0,0.0,0.0,0.0,0.0,0.0,0.0,0.0,0.0,0.0,0.0,0.0,0.0,0.0,0.0,0.0,0.0,0.0,0.0,0.0,0.0,0.0,0.0,0.0,0.0,0.0,0.0,0.0,0.0,0.0,0.0,0.0,0.0,0.0,0.0,0.0,0.0,0.0,0.0,0.0,0.0,0.0,0.0,0.0,0.0,0.0,0.0,0.0,0.0,0.0,0.0,0.0,0.0,0.0,0.0,0.0,0.0,0.0,0.0,0.0,0.0,0.0,0.0,0.0,0.0,0.0,0.0,0.0,0.0,0.0,0.0,0.0,0.0,0.0,0.0,0.0,0.0,0.0,0.0,0.0,0.0,0.0,0.0,0.0,0.0,0.0,0.0,0.0,0.0,0.0,0.0,0.0,0.0,0.0,0.0,0.0,0.0,0.0,0.0,0.0,0.0,0.0,0.0,0.0,0.0,0.0,0.0,0.0,0.0,0.0,0.0,0.0,0.0,0.0,0.0,0.0,0.0,0.0,0.0,0.0,0.0,0.0,0.0,0.0,0.0,0.0,0.0,0.0,0.0,0.0,0.0,0.0,0.0,0.0,0.0,0.0,0.0,0.0,0.0,0.0,0.0,0.0,0.0,0.0,0.0,0.0,0.0,0.0,0.0,0.0,0.0,0.0,0.0,0.0,0.0,0.0,0.0,0.0,0.0,0.0,0.0,0.0,0.0,0.0,0.0,0.0,0.0,0.0,0.0,0.0,0.0,0.0,-0.9127,0.0,0.0,0.0,0.0,0.0,0.0,0.0,0.0,0.0,0.0,0.0,0.0,0.0,0.0,0.0,0.0,0.0,0.0,0.0,0.0,0.0,0.0,0.0,0.0,0.0,0.0,0.0,0.0,0.0,0.0,0.0,0.0,0.0,0.0,0.0,0.0,0.0,0.0,0.0,0.0,0.0,0.0,0.0,0.0,0.0,0.0,0.0,0.0,0.0,0.0,0.0,0.0,0.0,0.0,0.0,0.0,0.0,0.0,0.0,0.0,0.0,0.0,0.0,0.0,0.0,0.0,0.0,0.0,0.0,0.0,0.0,0.0,0.0,0.0,0.0,0.0,0.0,0.0,0.0,0.0,0.0,0.0,0.0,0.0,0.0,0.0,0.0,0.0,0.0,0.0,0.0,0.0,0.0,0.0,0.0,0.0,0.0,0.0,0.0,0.0,0.0,0.0,0.0,0.0,0.0,0.0,0.0,0.0,0.0,0.0,-0.9351,-0.9283,-0.9425,-0.9395,-0.9154,0.0,0.0,0.0,0.0,0.0,0.0,0.0,0.0,0.0,0.0,0.0,0.0,0.0,0.0,0.0,0.0,0.0,0.0,0.0,0.0,0.0,0.0,0.0,0.0,0.0,0.0,0.0,0.0,0.0,0.0,0.0,0.0,0.0,0.0,0.0,0.0,0.0,0.0,0.0,0.0,0.0,0.0,0.0,0.0,0.0,0.0,0.0,0.0,0.0,0.0,0.0,0.0,0.0,0.0,0.0,0.0,0.0,0.0,0.0,0.0,0.0,0.0,0.0,0.0,0.0,0.0,0.0,0.0,0.0,0.0,0.0,0.0,0.0,0.0,0.0,0.0,0.0,0.0,0.0,0.0,0.0,0.0,0.0,0.0,0.0,0.0,0.0,0.0,0.0,0.0,0.0,0.0,0.0,0.0,0.0,0.0,0.0,0.0,0.0,0.0,0.0,0.0,0.0,0.0,0.0,0.0,0.0,0.0,0.0,0.0,0.0,0.0,-0.9595,-0.9483,-0.9113,0.0,0.0,0.0,0.0,0.0,0.0,0.0,0.0,0.0,0.0,0.0,0.0,0.0,0.0,0.0,0.0,0.0,0.0,0.0,0.0,0.0,0.0,0.0,0.0,0.0,0.0,0.0,0.0,0.0,0.0,0.0,0.0,0.0,0.0,0.0,0.0,0.0,0.0,0.0,0.0,0.0,0.0,0.0,0.0,0.0,0.0,0.0,0.0,0.0,0.0,0.0,0.0,0.0,0.0,0.0,0.0,0.0,0.0,0.0,0.0,0.0,0.0,0.0,0.0,0.0,0.0,0.0,0.0,0.0,0.0,0.0,0.0,0.0,0.0,0.0,0.0,0.0,0.0,0.0,0.0,0.0,0.0,0.0,0.0,0.0,0.0,0.0,0.0,0.0,0.0,0.0,0.0,0.0,0.0,0.0,0.0,0.0,0.0,0.0,0.0,0.0,0.0,0.0,0.0,0.0,0.0,0.0,0.0,0.0,0.0,-0.9752,-0.9774,-0.9791,0.0,-0.9005,0.0,0.0,0.0,0.0,0.0,0.0,0.0,0.0,0.0,0.0,0.0,0.0,0.0,0.0,0.0,0.0,0.0,0.0,0.0,0.0,0.0,0.0,0.0,0.0,0.0,0.0,0.0,0.0,0.0,0.0,0.0,0.0,0.0,0.0,0.0,0.0,0.0,0.0,0.0,0.0,0.0,0.0,0.0,0.0,0.0,0.0,0.0,0.0,0.0,0.0,0.0,0.0,0.0,0.0,0.0,0.0,0.0,0.0,0.0,0.0,0.0,0.0,0.0,0.0,0.0,0.0,0.0,0.0,0.0,0.0,0.0,0.0,0.0,0.0,0.0,0.0,0.0,0.0,0.0,0.0,0.0,0.0,0.0,0.0,0.0,0.0,0.0,0.0,0.0,0.0,0.0,0.0,0.0,0.0,0.0,0.0,0.0,0.0,0.0,0.0,0.0,0.0,0.0,0.0,0.0,0.0,0.0,0.0,0.0,0.0,-1.0405,-0.9841,-0.972,-0.9378,0.0,0.0,0.0,0.0,0.0,0.0,0.0,0.0,0.0,0.0,0.0,0.0,0.0,0.0,0.0,0.0,0.0,0.0,0.0,0.0,0.0,0.0,0.0,0.0,0.0,0.0,0.0,0.0,0.0,0.0,0.0,0.0,0.0,0.0,0.0,0.0,0.0,0.0,0.0,0.0,0.0,0.0,0.0,0.0,0.0,0.0,0.0,0.0,0.0,0.0,0.0,0.0,0.0,0.0,0.0,0.0,0.0,0.0,0.0,0.0,0.0,0.0,0.0,0.0,0.0,0.0,0.0,0.0,0.0,0.0,0.0,0.0,0.0,0.0,0.0,0.0,0.0,0.0,0.0,0.0,0.0,0.0,0.0,0.0,0.0,0.0,0.0,0.0,0.0,0.0,0.0,0.0,0.0,0.0,0.0,0.0,0.0,0.0,0.0,0.0,0.0,0.0,0.0,0.0,0.0,0.0,0.0,0.0,0.0,0.0,-1.0458,0.0,-0.9911,-0.9761,-0.9388,-0.8954,0.0,0.0,0.0,0.0,0.0,0.0,0.0,0.0,0.0,0.0,0.0,0.0,0.0,0.0,0.0,0.0,0.0,0.0,0.0,0.0,0.0,0.0,0.0,0.0,0.0,0.0,0.0,0.0,0.0,0.0,0.0,0.0,0.0,0.0,0.0,0.0,0.0,0.0,0.0,0.0,0.0,0.0,0.0,0.0,0.0,0.0,0.0,0.0,0.0,0.0,0.0,0.0,0.0,0.0,0.0,0.0,0.0,0.0,0.0,0.0,0.0,0.0,0.0,0.0,0.0,0.0,0.0,0.0,0.0,0.0,0.0,0.0,0.0,0.0,0.0,0.0,0.0,0.0,0.0,0.0,0.0,0.0,0.0,0.0,0.0,0.0,0.0,0.0,0.0,0.0,0.0,0.0,0.0,0.0,0.0,0.0,0.0,0.0,0.0,0.0,0.0,0.0,0.0,0.0,0.0,0.0,0.0,0.0,0.0,-1.0244,-1.0247,-1.0046,-1.0029,-0.9676,0.0,0.0,0.0,0.0,0.0,0.0,0.0,0.0,0.0,0.0,0.0,0.0,0.0,0.0,0.0,0.0,0.0,0.0,0.0,0.0,0.0,0.0,0.0,0.0,0.0,0.0,0.0,0.0,0.0,0.0,0.0,0.0,0.0,0.0,0.0,0.0,0.0,0.0,0.0,0.0,0.0,0.0,0.0,0.0,0.0,0.0,0.0,0.0,0.0,0.0,0.0,0.0,0.0,0.0,0.0,0.0,0.0,0.0,0.0,0.0,0.0,0.0,0.0,0.0,0.0,0.0,0.0,0.0,0.0,0.0,0.0,0.0,0.0,0.0,0.0,0.0,0.0,0.0,0.0,0.0,0.0,0.0,0.0,0.0,0.0,0.0,0.0,0.0,0.0,0.0,0.0,0.0,0.0,0.0,0.0,0.0,0.0,0.0,0.0,0.0,0.0,0.0,0.0,0.0,0.0,0.0,0.0,0.0,0.0,-0.9459,-0.9822,-1.0107,-1.029,-0.9456,-0.8918,0.0,0.0,0.0,0.0,0.0,0.0,0.0,0.0,0.0,0.0,0.0,0.0,0.0,0.0,0.0,0.0,0.0,0.0,0.0,0.0,0.0,0.0,0.0,0.0,0.0,0.0,0.0,0.0,0.0,0.0,0.0,0.0,0.0,0.0,0.0,0.0,0.0,0.0,0.0,0.0,0.0,0.0,0.0,0.0,0.0,0.0,0.0,0.0,0.0,0.0,0.0,0.0,0.0,0.0,0.0,0.0,0.0,0.0,0.0,0.0,0.0,0.0,0.0,0.0,0.0,0.0,0.0,0.0,0.0,0.0,0.0,0.0,0.0,0.0,0.0,0.0,0.0,0.0,0.0,0.0,0.0,0.0,0.0,0.0,0.0,0.0,0.0,0.0,0.0,0.0,0.0,0.0,0.0,0.0,0.0,0.0,0.0,0.0,0.0,0.0,0.0,0.0,0.0,0.0,0.0,0.0,0.0,0.0,0.0,-0.9367,0.0,-1.0163,0.0,-0.9364,-0.8801,0.0,0.0,0.0,0.0,0.0,0.0,0.0,0.0,0.0,0.0,0.0,0.0,0.0,0.0,0.0,0.0,0.0,0.0,0.0,0.0,0.0,0.0,0.0,0.0,0.0,0.0,0.0,0.0,0.0,0.0,0.0,0.0,0.0,0.0,0.0,0.0,0.0,0.0,0.0,0.0,0.0,0.0,0.0,0.0,0.0,0.0,0.0,0.0,0.0,0.0,0.0,0.0,0.0,0.0,0.0,0.0,0.0,0.0,0.0,0.0,0.0,0.0,0.0,0.0,0.0,0.0,0.0,0.0,0.0,0.0,0.0,0.0,0.0,0.0,0.0,0.0,0.0,0.0,0.0,0.0,0.0,0.0,0.0,0.0,0.0,0.0,0.0,0.0,0.0,0.0,0.0,0.0,0.0,0.0,0.0,0.0,0.0,0.0,0.0,0.0,0.0,0.0,0.0,0.0,0.0,0.0,0.0,0.0,-0.9225,-0.9791,-1.0226,-1.0249,-0.9852,-0.9798,-0.9384,0.0,0.0,0.0,0.0,0.0,0.0,0.0,0.0,0.0,0.0,0.0,0.0,0.0,0.0,0.0,0.0,0.0,0.0,0.0,0.0,0.0,0.0,0.0,0.0,0.0,0.0,0.0,0.0,0.0,0.0,0.0,0.0,0.0,0.0,0.0,0.0,0.0,0.0,0.0,0.0,0.0,0.0,0.0,0.0,0.0,0.0,0.0,0.0,0.0,0.0,0.0,0.0,0.0,0.0,0.0,0.0,0.0,0.0,0.0,0.0,0.0,0.0,0.0,0.0,0.0,0.0,0.0,0.0,0.0,0.0,0.0,0.0,0.0,0.0,0.0,0.0,0.0,0.0,0.0,0.0,0.0,0.0,0.0,0.0,0.0,0.0,0.0,0.0,0.0,0.0,0.0,0.0,0.0,0.0,0.0,0.0,0.0,0.0,0.0,0.0,0.0,0.0,0.0,0.0,0.0,0.0,0.0,0.0,0.0,-1.0126,-1.0103,-1.011,-1.0253,-0.9683,-0.9279,0.0,0.0,0.0,0.0,0.0,0.0,0.0,0.0,0.0,0.0,0.0,0.0,0.0,0.0,0.0,0.0,0.0,0.0,0.0,0.0,0.0,0.0,0.0,0.0,0.0,0.0,0.0,0.0,0.0,0.0,0.0,0.0,0.0,0.0,0.0,0.0,0.0,0.0,0.0,0.0,0.0,0.0,0.0,0.0,0.0,0.0,0.0,0.0,0.0,0.0,0.0,0.0,0.0,0.0,0.0,0.0,0.0,0.0,0.0,0.0,0.0,0.0,0.0,0.0,0.0,0.0,0.0,0.0,0.0,0.0,0.0,0.0,0.0,0.0,0.0,0.0,0.0,0.0,0.0,0.0,0.0,0.0,0.0,0.0,0.0,0.0,0.0,0.0,0.0,0.0,0.0,0.0,0.0,0.0,0.0,0.0,0.0,0.0,0.0,0.0,0.0,0.0,0.0,0.0,0.0,0.0,0.0,0.0,0.0,-1.0629,-1.0415,-1.0293,-1.0412,-0.9758,-0.934,-0.9205,0.0,0.0,0.0,0.0,0.0,0.0,0.0,0.0,0.0,0.0,0.0,0.0,0.0,0.0,0.0,0.0,0.0,0.0,0.0,0.0,0.0,0.0,0.0,0.0,0.0,0.0,0.0,0.0,0.0,0.0,0.0,0.0,0.0,0.0,0.0,0.0,0.0,0.0,0.0,0.0,0.0,0.0,0.0,0.0,0.0,0.0,0.0,0.0,0.0,0.0,0.0,0.0,0.0,0.0,0.0,0.0,0.0,0.0,0.0,0.0,0.0,0.0,0.0,0.0,0.0,0.0,0.0,0.0,0.0,0.0,0.0,0.0,0.0,0.0,0.0,0.0,0.0,0.0,0.0,0.0,0.0,0.0,0.0,0.0,0.0,0.0,0.0,0.0,0.0,0.0,0.0,0.0,0.0,0.0,0.0,0.0,0.0,0.0,0.0,0.0,0.0,0.0,0.0,0.0,0.0,0.0,0.0,0.0,-1.1204,-1.1052,-1.0751,-1.0341,-1.0005,-0.9568,0.0,0.0,0.0,0.0,0.0,0.0,0.0,0.0,0.0,0.0,0.0,0.0,0.0,0.0,0.0,0.0,0.0,0.0,0.0,0.0,0.0,0.0,0.0,0.0,0.0,0.0,0.0,0.0,0.0,0.0,0.0,0.0,0.0,0.0,0.0,0.0,0.0,0.0,0.0,0.0,0.0,0.0,0.0,0.0,0.0,0.0,0.0,0.0,0.0,0.0,0.0,0.0,0.0,0.0,0.0,0.0,0.0,0.0,0.0,0.0,0.0,0.0,0.0,0.0,0.0,0.0,0.0,0.0,0.0,0.0,0.0,0.0,0.0,0.0,0.0,0.0,0.0,0.0,0.0,0.0,0.0,0.0,0.0,0.0,0.0,0.0,0.0,0.0,0.0,0.0,0.0,0.0,0.0,0.0,0.0,0.0,0.0,0.0,0.0,0.0,0.0,0.0,0.0,0.0,0.0,0.0,0.0,0.0,0.0,-1.1109,-1.1157,-1.0999,-1.0772,-1.0263,-0.9863,0.0,0.0,0.0,0.0,0.0,0.0,0.0,0.0,0.0,0.0,0.0,0.0,0.0,0.0,0.0,0.0,0.0,0.0,0.0,0.0,0.0,0.0,0.0,0.0,0.0,0.0,0.0,0.0,0.0,0.0,0.0,0.0,0.0,0.0,0.0,0.0,0.0,0.0,0.0,0.0,0.0,0.0,0.0,0.0,0.0,0.0,0.0,0.0,0.0,0.0,0.0,0.0,0.0,0.0,0.0,0.0,0.0,0.0,0.0,0.0,0.0,0.0,0.0,0.0,0.0,0.0,0.0,0.0,0.0,0.0,0.0,0.0,0.0,0.0,0.0,0.0,0.0,0.0,0.0,0.0,0.0,0.0,0.0,0.0,0.0,0.0,0.0,0.0,0.0,0.0,0.0,0.0,0.0,0.0,0.0,0.0,0.0,0.0,0.0,0.0,0.0,0.0,0.0,0.0,0.0,0.0,0.0,0.0,-0.9876,-1.102,-1.1196,-1.1173,-1.0951,-1.0612,-1.0205,0.0,0.0,0.0,0.0,0.0,0.0,0.0,0.0,0.0,0.0,0.0,0.0,0.0,0.0,0.0,0.0,0.0,0.0,0.0,0.0,0.0,0.0,0.0,0.0,0.0,0.0,0.0,0.0,0.0,0.0,0.0,0.0,0.0,0.0,0.0,0.0,0.0,0.0,0.0,0.0,0.0,0.0,0.0,0.0,0.0,0.0,0.0,0.0,0.0,0.0,0.0,0.0,0.0,0.0,0.0,0.0,0.0,0.0,0.0,0.0,0.0,0.0,0.0,0.0,0.0,0.0,0.0,0.0,0.0,0.0,0.0,0.0,0.0,0.0,0.0,0.0,0.0,0.0,0.0,0.0,0.0,0.0,0.0,0.0,0.0,0.0,0.0,0.0,0.0,0.0,0.0,0.0,0.0,0.0,0.0,0.0,0.0,0.0,0.0,0.0,0.0,0.0,0.0,0.0,0.0,0.0,0.0,0.0,-0.9551,-1.0729,-1.1055,-1.109,-1.0948,-1.0904,-1.049,0.0,0.0,0.0,0.0,0.0,0.0,0.0,0.0,0.0,0.0,0.0,0.0,0.0,0.0,0.0,0.0,0.0,0.0,0.0,0.0,0.0,0.0,0.0,0.0,0.0,0.0,0.0,0.0,0.0,0.0,0.0,0.0,0.0,0.0,0.0,0.0,0.0,0.0,0.0,0.0,0.0,0.0,0.0,0.0,0.0,0.0,0.0,0.0,0.0,0.0,0.0,0.0,0.0,0.0,0.0,0.0,0.0,0.0,0.0,0.0,0.0,0.0,0.0,0.0,0.0,0.0,0.0,0.0,0.0,0.0,0.0,0.0,0.0,0.0,0.0,0.0,0.0,0.0,0.0,0.0,0.0,0.0,0.0,0.0,0.0,0.0,0.0,0.0,0.0,0.0,0.0,0.0,0.0,0.0,0.0,0.0,0.0,0.0,0.0,0.0,0.0,0.0,0.0,0.0,0.0,0.0,0.0,0.0,-0.9706,-1.0721,-1.0734,-1.0812,-1.0945,-1.0605,-1.0222,0.0,0.0,0.0,0.0,0.0,0.0,0.0,0.0,0.0,0.0,0.0,0.0,0.0,0.0,0.0,0.0,0.0,0.0,0.0,0.0,0.0,0.0,0.0,0.0,0.0,0.0,0.0,0.0,0.0,0.0,0.0,0.0,0.0,0.0,0.0,0.0,0.0,0.0,0.0,0.0,0.0,0.0,0.0,0.0,0.0,0.0,0.0,0.0,-1.8851,0.0,0.0,0.0,0.0,0.0,0.0,0.0,0.0,0.0,0.0,0.0,0.0,0.0,0.0,0.0,0.0,0.0,0.0,0.0,0.0,0.0,0.0,0.0,0.0,0.0,0.0,0.0,0.0,0.0,0.0,0.0,0.0,0.0,0.0,0.0,0.0,0.0,0.0,0.0,0.0,0.0,0.0,0.0,0.0,0.0,0.0,0.0,0.0,0.0,0.0,0.0,0.0,0.0,0.0,0.0,0.0,0.0,0.0,0.0,-0.9715,-1.044,-1.0671,-1.0734,-1.0724,-1.0436,-1.0137,0.0,0.0,0.0,0.0,0.0,0.0,0.0,0.0,0.0,0.0,0.0,0.0,0.0,0.0,0.0,0.0,0.0,0.0,0.0,0.0,0.0,0.0,0.0,0.0,0.0,0.0,0.0,0.0,0.0,0.0,0.0,0.0,0.0,0.0,0.0,0.0,0.0,0.0,0.0,0.0,0.0,0.0,0.0,0.0,0.0,0.0,0.0,0.0,0.0,0.0,0.0,0.0,0.0,0.0,0.0,0.0,0.0,0.0,0.0,0.0,0.0,0.0,0.0,0.0,0.0,0.0,0.0,0.0,0.0,0.0,0.0,0.0,0.0,0.0,0.0,0.0,0.0,0.0,0.0,0.0,0.0,0.0,0.0,0.0,0.0,0.0,0.0,0.0,0.0,0.0,0.0,0.0,0.0,0.0,0.0,0.0,0.0,0.0,0.0,0.0,0.0,0.0,0.0,0.0,0.0,0.0,0.0,-0.9483,-0.9645,-1.018,-1.0448,-1.0592,-1.0456,-1.0321,-1.01,-0.9802,0.0,0.0,0.0,0.0,0.0,0.0,0.0,0.0,0.0,0.0,0.0,0.0,0.0,0.0,0.0,0.0,0.0,0.0,0.0,0.0,0.0,0.0,0.0,0.0,0.0,0.0,0.0,0.0,0.0,0.0,0.0,0.0,0.0,0.0,0.0,0.0,0.0,0.0,-1.7368,-1.805,0.0,0.0,0.0,0.0,0.0,0.0,0.0,0.0,-1.8138,0.0,0.0,0.0,0.0,0.0,0.0,0.0,0.0,0.0,0.0,0.0,0.0,0.0,0.0,0.0,0.0,0.0,0.0,0.0,0.0,0.0,0.0,0.0,0.0,0.0,0.0,0.0,0.0,0.0,0.0,0.0,0.0,0.0,0.0,0.0,0.0,0.0,0.0,0.0,0.0,0.0,0.0,0.0,0.0,0.0,0.0,0.0,0.0,0.0,0.0,0.0,0.0,0.0,0.0,0.0,0.0,-0.9694,-0.9779,-0.9771,-0.9921,-0.9959,-1.0052,-1.031,-1.0168,-0.9951,-0.9656,0.0,0.0,0.0,0.0,0.0,0.0,0.0,0.0,0.0,0.0,0.0,0.0,0.0,0.0,0.0,0.0,0.0,0.0,0.0,0.0,0.0,0.0,0.0,0.0,0.0,0.0,0.0,0.0,0.0,0.0,0.0,0.0,0.0,0.0,0.0,0.0,0.0,0.0,0.0,-1.8611,-1.8778,0.0,0.0,0.0,0.0,0.0,0.0,0.0,0.0,-1.8842,0.0,0.0,0.0,0.0,0.0,0.0,0.0,0.0,0.0,0.0,0.0,0.0,0.0,0.0,0.0,0.0,0.0,0.0,0.0,0.0,0.0,0.0,0.0,0.0,0.0,0.0,0.0,0.0,0.0,0.0,0.0,0.0,0.0,0.0,0.0,0.0,0.0,0.0,0.0,0.0,0.0,0.0,0.0,0.0,0.0,0.0,0.0,0.0,0.0,0.0,0.0,0.0,0.0,0.0,0.0,-0.8897,-0.9469,-0.9856,-0.9804,-0.9824,-0.9903,-1.0154,-0.9937,-0.972,0.0,0.0,0.0,0.0,0.0,0.0,0.0,0.0,0.0,0.0,0.0,0.0,0.0,0.0,0.0,0.0,0.0,0.0,0.0,0.0,0.0,0.0,0.0,0.0,0.0,0.0,0.0,0.0,0.0,0.0,0.0,0.0,0.0,0.0,0.0,0.0,0.0,0.0,0.0,0.0,-1.8744,-1.909,-1.9695,0.0,0.0,0.0,0.0,0.0,0.0,-1.8772,-1.8858,0.0,0.0,0.0,0.0,0.0,0.0,0.0,0.0,0.0,0.0,0.0,0.0,0.0,0.0,0.0,0.0,0.0,0.0,0.0,0.0,0.0,0.0,0.0,0.0,0.0,0.0,0.0,0.0,0.0,0.0,0.0,0.0,0.0,0.0,0.0,0.0,0.0,0.0,0.0,0.0,0.0,0.0,0.0,0.0,0.0,0.0,0.0,0.0,0.0,0.0,0.0,0.0,0.0,0.0,0.0,-0.8169,-0.9072,-0.961,-0.9734,-0.9727,-0.9787,-0.991,-0.9686,-0.9476,0.0,0.0,0.0,0.0,0.0,0.0,0.0,0.0,0.0,0.0,0.0,0.0,0.0,0.0,0.0,0.0,0.0,0.0,0.0,0.0,0.0,0.0,0.0,0.0,0.0,0.0,0.0,0.0,0.0,0.0,0.0,0.0,0.0,0.0,0.0,0.0,0.0,0.0,0.0,0.0,0.0,-1.9962,-2.0833,-1.9825,0.0,0.0,0.0,0.0,-1.8985,-1.9078,0.0,0.0,0.0,0.0,0.0,0.0,0.0,0.0,0.0,0.0,0.0,0.0,0.0,0.0,0.0,0.0,0.0,0.0,0.0,0.0,0.0,0.0,0.0,0.0,0.0,0.0,0.0,0.0,0.0,0.0,0.0,0.0,0.0,0.0,0.0,0.0,0.0,0.0,0.0,0.0,0.0,0.0,0.0,0.0,0.0,0.0,0.0,0.0,0.0,0.0,0.0,0.0,0.0,0.0,0.0,0.0,-0.8434,-0.8778,-0.9189,-0.9432,-0.9449,-0.9456,-0.9459,-0.9425,-0.9276,0.0,0.0,0.0,0.0,0.0,0.0,0.0,0.0,0.0,0.0,0.0,0.0,0.0,0.0,0.0,0.0,0.0,0.0,0.0,0.0,0.0,0.0,0.0,0.0,0.0,0.0,0.0,0.0,0.0,0.0,0.0,0.0,0.0,0.0,0.0,0.0,0.0,0.0,0.0,0.0,0.0,-2.1777,-2.0542,-2.0805,-2.1271,0.0,0.0,-1.7928,-2.1146,-1.9561,0.0,0.0,0.0,0.0,0.0,0.0,0.0,0.0,0.0,0.0,0.0,0.0,0.0,0.0,0.0,0.0,0.0,0.0,0.0,0.0,0.0,0.0,0.0,0.0,0.0,0.0,0.0,0.0,0.0,0.0,0.0,0.0,0.0,0.0,0.0,0.0,0.0,0.0,0.0,0.0,0.0,0.0,0.0,0.0,0.0,0.0,0.0,0.0,0.0,0.0,0.0,0.0,0.0,0.0,0.0,-0.8326,-0.8479,-0.8796,-0.8977,-0.9132,-0.9139,-0.9142,-0.9381,-0.9222,-0.8988,0.0,0.0,0.0,0.0,0.0,0.0,0.0,0.0,0.0,0.0,0.0,0.0,0.0,0.0,0.0,0.0,0.0,0.0,0.0,0.0,0.0,0.0,0.0,0.0,0.0,0.0,0.0,0.0,0.0,0.0,0.0,0.0,0.0,0.0,0.0,0.0,0.0,0.0,0.0,0.0,0.0,0.0,-2.2037,-2.2061,0.0,0.0,0.0,-1.9783,-2.2229,0.0,0.0,0.0,0.0,0.0,0.0,0.0,0.0,0.0,0.0,0.0,0.0,0.0,0.0,0.0,0.0,0.0,0.0,0.0,0.0,0.0,0.0,0.0,0.0,0.0,0.0,0.0,0.0,0.0,0.0,0.0,0.0,0.0,0.0,0.0,0.0,0.0,0.0,0.0,0.0,0.0,0.0,0.0,0.0,0.0,0.0,0.0,0.0,0.0,0.0,0.0,0.0,0.0,0.0,0.0,0.0,0.0,-0.8367,-0.8743,-0.8913,-0.885,-0.8746,-0.896,-0.9154,-0.894,0.0,0.0,0.0,0.0,0.0,0.0,0.0,0.0,0.0,0.0,0.0,0.0,0.0,0.0,0.0,0.0,0.0,0.0,0.0,0.0,0.0,0.0,0.0,0.0,0.0,0.0,0.0,-1.4396,0.0,0.0,0.0,0.0,0.0,0.0,0.0,0.0,0.0,0.0,0.0,0.0,0.0,0.0,-2.1842,-2.3426,-2.358,-2.4049,0.0,0.0,-2.1973,-2.3704,-2.5309,-2.6333,0.0,0.0,0.0,0.0,0.0,0.0,0.0,0.0,0.0,0.0,0.0,0.0,0.0,0.0,0.0,0.0,0.0,0.0,0.0,0.0,0.0,0.0,0.0,0.0,0.0,0.0,0.0,0.0,0.0,0.0,0.0,0.0,0.0,0.0,0.0,0.0,0.0,0.0,0.0,0.0,0.0,0.0,0.0,0.0,0.0,0.0,0.0,0.0,0.0,0.0,0.0,0.0,0.0,0.0,0.0,-0.8075,-0.8642,-0.8766,-0.854,-0.8534,-0.8578,-0.8547,-0.8523,-0.8377,0.0,0.0,0.0,0.0,0.0,0.0,0.0,0.0,0.0,0.0,0.0,0.0,0.0,0.0,0.0,0.0,0.0,0.0,0.0,0.0,0.0,0.0,0.0,0.0,0.0,0.0,0.0,0.0,0.0,0.0,0.0,0.0,0.0,0.0,0.0,0.0,0.0,0.0,0.0,0.0,0.0,-2.3372,-2.4293,-2.4954,-2.5954,0.0,0.0,-2.3669,-2.6321,-2.7466,-2.7369,-2.4951,0.0,0.0,0.0,0.0,0.0,0.0,0.0,0.0,0.0,0.0,0.0,0.0,0.0,0.0,0.0,0.0,0.0,0.0,0.0,0.0,0.0,0.0,0.0,0.0,0.0,0.0,0.0,0.0,0.0,0.0,0.0,0.0,0.0,0.0,0.0,0.0,0.0,0.0,0.0,0.0,0.0,0.0,0.0,0.0,0.0,0.0,0.0,0.0,0.0,0.0,0.0,0.0,0.0,-0.7894,-0.7997,-0.8612,-0.8738,-0.8464,-0.8348,-0.8322,-0.8482,-0.8482,-0.8299,0.0,0.0,0.0,0.0,0.0,0.0,0.0,0.0,0.0,0.0,0.0,0.0,0.0,0.0,0.0,0.0,0.0,0.0,0.0,0.0,0.0,0.0,0.0,0.0,0.0,0.0,0.0,0.0,-1.5391,-1.5471,-1.5404,0.0,0.0,0.0,0.0,0.0,0.0,0.0,0.0,0.0,0.0,-2.3497,-2.4325,-2.5377,0.0,0.0,-2.6206,-2.5967,-2.7533,-2.8127,-2.7592,-2.5516,-2.4307,0.0,0.0,0.0,0.0,0.0,0.0,0.0,0.0,0.0,0.0,0.0,0.0,0.0,0.0,0.0,0.0,0.0,0.0,0.0,0.0,0.0,0.0,0.0,0.0,0.0,0.0,0.0,0.0,0.0,0.0,0.0,0.0,0.0,0.0,0.0,0.0,0.0,0.0,0.0,0.0,0.0,0.0,0.0,0.0,0.0,0.0,0.0,0.0,0.0,0.0,0.0,0.0,-0.7739,-0.7904,-0.848,-0.8588,-0.8418,-0.8095,-0.8076,-0.835,-0.835,-0.8379,0.0,0.0,0.0,0.0,0.0,0.0,0.0,0.0,0.0,0.0,0.0,0.0,0.0,0.0,0.0,0.0,0.0,0.0,0.0,0.0,0.0,0.0,0.0,0.0,0.0,0.0,0.0,0.0,-1.6443,-1.6487,-1.5825,0.0,0.0,0.0,0.0,0.0,0.0,0.0,0.0,0.0,0.0,-2.4094,-2.5329,-2.6211,-2.6913,-2.7332,-2.6913,-2.6884,-2.7771,-2.8915,-2.902,-2.6771,0.0,0.0,0.0,0.0,0.0,0.0,0.0,0.0,0.0,0.0,0.0,0.0,0.0,0.0,0.0,0.0,0.0,0.0,0.0,0.0,0.0,0.0,0.0,0.0,0.0,0.0,0.0,-0.8258,0.0,0.0,-0.8031,0.0,0.0,0.0,0.0,0.0,0.0,0.0,0.0,0.0,0.0,0.0,0.0,0.0,0.0,0.0,0.0,0.0,0.0,0.0,0.0,0.0,0.0,-0.7621,-0.7598,-0.8174,-0.8331,-0.8051,-0.7958,-0.7991,-0.8058,-0.8052,-0.8557,-0.9723,0.0,0.0,0.0,0.0,0.0,0.0,0.0,0.0,0.0,0.0,0.0,0.0,0.0,0.0,0.0,0.0,0.0,0.0,0.0,0.0,0.0,0.0,0.0,0.0,0.0,0.0,-1.7684,-1.8273,-1.8105,0.0,0.0,0.0,0.0,0.0,0.0,0.0,0.0,0.0,0.0,-2.3587,-2.5408,-2.7731,-2.7777,-2.7641,-2.8101,-2.6758,-2.6016,-2.6904,-3.0251,-3.1909,0.0,0.0,0.0,0.0,0.0,0.0,0.0,0.0,0.0,0.0,0.0,0.0,0.0,0.0,0.0,0.0,0.0,0.0,0.0,0.0,0.0,0.0,0.0,0.0,0.0,0.0,0.0,-0.8102,-0.8058,0.0,0.0,0.0,0.0,0.0,0.0,0.0,0.0,0.0,0.0,0.0,-0.8258,-0.8251,0.0,0.0,0.0,0.0,0.0,0.0,0.0,0.0,0.0,0.0,0.0,0.0,-0.7403,-0.7651,-0.7983,-0.808,-0.776,-0.7963,-0.794,-0.7892,-0.8765,-0.9909,-1.1048,0.0,0.0,0.0,0.0,0.0,0.0,0.0,0.0,0.0,0.0,0.0,0.0,0.0,0.0,0.0,0.0,0.0,0.0,0.0,0.0,0.0,0.0,0.0,0.0,0.0,-1.7878,0.0,0.0,0.0,0.0,0.0,0.0,0.0,0.0,0.0,0.0,0.0,-2.0743,-2.2618,-2.4147,-2.5784,-2.7648,-2.7717,-2.7872,0.0,0.0,0.0,0.0,0.0,0.0,0.0,0.0,0.0,0.0,0.0,0.0,0.0,0.0,-3.1498,-2.6875,-2.7562,-2.8975,-2.9164,0.0,0.0,0.0,0.0,0.0,0.0,0.0,0.0,0.0,0.0,0.0,0.0,0.0,0.0,-0.7882,0.0,-0.7784,0.0,0.0,0.0,0.0,0.0,0.0,0.0,0.0,-0.8272,-0.8272,-0.8265,-0.832,-0.8192,0.0,-0.8506,-0.8621,0.0,0.0,0.0,0.0,0.0,0.0,0.0,0.0,-0.7358,-0.7605,-0.7886,-0.7865,-0.7637,-0.764,-0.7924,-0.8302,-1.018,-1.1566,-1.2272,-1.3338,-1.3863,0.0,0.0,0.0,0.0,0.0,0.0,0.0,0.0,0.0,0.0,0.0,0.0,0.0,0.0,0.0,0.0,0.0,0.0,0.0,0.0,0.0,0.0,0.0,-1.8839,0.0,0.0,0.0,0.0,0.0,0.0,0.0,0.0,0.0,-2.3304,-2.265,-2.2693,-2.4368,-2.5765,-2.7026,-2.8196,0.0,0.0,0.0,0.0,0.0,0.0,0.0,-2.9904,-3.4822,-3.6606,-3.6248,-3.3225,-3.4367,-3.5558,-3.5426,0.0,0.0,-3.1856,-3.2685,-3.3966,-3.3251,-3.6245,-3.85,-3.7167,-3.6941,-3.6909,0.0,0.0,0.0,0.0,0.0,0.0,0.0,0.0,-0.8024,-0.8018,0.0,-0.7822,0.0,0.0,0.0,0.0,0.0,-0.797,0.0,0.0,-0.8262,-0.8265,-0.8262,-0.8102,-0.8028,-0.812,-1.0022,-1.0901,-1.0589,-0.8364,0.0,0.0,0.0,0.0,0.0,0.0,-0.7403,-0.737,-0.7802,-0.7777,-0.7392,-0.7302,-0.7951,-0.9452,-1.1957,-1.3403,-1.3502,-1.4756,-1.5291,-1.5003,-1.4438,0.0,0.0,0.0,0.0,0.0,0.0,0.0,0.0,0.0,0.0,0.0,0.0,0.0,0.0,0.0,0.0,0.0,0.0,0.0,0.0,-2.0228,0.0,0.0,0.0,0.0,0.0,0.0,0.0,0.0,0.0,0.0,-2.5927,-2.5164,-2.5024,-2.683,0.0,0.0,0.0,0.0,-3.0691,-3.1301,-2.9609,-2.8381,-2.8386,-3.1148,-3.3626,-3.4739,0.0,0.0,-3.6081,-3.7623,-3.8942,-3.8497,-4.0266,-4.0782,-3.7041,-3.6388,-3.7097,-3.9031,-4.077,-4.1422,-4.0151,-3.946,-3.9331,-0.7879,0.0,0.0,0.0,0.0,-0.7858,-0.7899,-0.8024,-0.7914,-0.7883,-0.7966,-0.7777,0.0,0.0,0.0,0.0,0.0,0.0,-0.8123,-0.8262,-0.8157,-0.8163,-0.8258,-0.8069,-0.8025,-0.8111,-1.0129,-1.1743,-1.2925,-1.0559,-0.8939,-0.8263,0.0,0.0,0.0,0.0,-0.7221,-0.7363,-0.7573,-0.7597,-0.7434,-0.8818,-1.0407,-1.2154,-1.2978,-1.3954,-1.5113,-1.5708,-1.5885,-1.5591,-1.5398,0.0,0.0,0.0,0.0,0.0,0.0,0.0,0.0,0.0,0.0,0.0,0.0,0.0,0.0,0.0,0.0,0.0,0.0,0.0,-1.9547,-2.1014,-2.1932,0.0,0.0,0.0,0.0,0.0,0.0,0.0,0.0,0.0,-2.5977,-2.6604,-2.6748,0.0,0.0,-2.9574,-3.0126,-3.122,-3.2146,-3.2724,-3.2787,0.0,-3.3751,-3.5939,-3.8117,-3.9601,-4.0646,-4.0976,-4.0229,-4.0727,-4.1122,-4.0984,-4.15,-4.1581,-4.0705,-4.0344,-4.0978,-4.2684,-4.3537,-4.3711,-4.3256,-4.2522,-4.2175,-0.7953,-0.8028,-0.7913,-0.7899,-0.794,-0.7848,-0.7899,-0.8028,-0.7949,-0.7921,-0.7997,-0.7814,-0.7689,-0.764,-0.7485,0.0,0.0,0.0,-0.8031,-0.8174,-0.8574,-0.8788,-0.8776,-0.825,-0.8426,-0.9368,-1.1276,-1.2786,-1.3736,-1.1787,-1.0517,-0.9712,0.0,0.0,-0.8377,-0.7964,-0.7893,-0.7986,-0.7624,-0.7624,-0.7994,-1.014,-1.1909,-1.3071,-1.375,-1.4501,-1.5558,-1.5945,-1.6347,-1.6749,-1.6407,-1.5744,0.0,0.0,0.0,0.0,0.0,0.0,0.0,0.0,0.0,0.0,0.0,-2.0207,-1.9725,0.0,0.0,0.0,-2.1123,-2.209,-2.1351,-2.2794,0.0,0.0,0.0,0.0,0.0,0.0,0.0,-2.2478,-2.2744,-2.3852,-2.6214,-2.7495,-2.8163,-2.8139,-2.8886,-2.9792,-3.0753,0.0,-3.317,-3.4313,-3.4768,-3.5565,-3.7218,-3.9734,-4.1803,-4.2836,-4.2428,-4.2093,-4.2328,-4.2606,-4.2972,-4.3221,-4.3515,-4.3618,-4.3115,-4.3026,-4.3281,-4.4357,-4.501,-4.528,-4.532,-4.4647,-4.4117,-0.8001,-0.798,-0.7716,-0.7692,-0.7824,-0.7831,-0.7899,-0.8021,-0.7935,-0.8024,-0.8007,-0.8031,-0.7645,-0.7193,-0.7377,0.0,-0.7814,-0.7824,-0.7906,-0.8233,-0.9395,-0.9817,-0.9661,-0.8722,-0.928,-1.1138,-1.3121,-1.3777,-1.3215,-1.2373,-1.1739,-1.1325,-1.0692,-1.0422,-1.0459,-0.9561,-0.9065,-0.9061,-0.7789,-0.7785,-0.9327,-1.13,-1.2543,-1.3015,-1.4263,-1.511,-1.5424,-1.5806,-1.6749,-1.817,-1.7537,-1.6829,-1.6373,0.0,0.0,0.0,0.0,0.0,0.0,0.0,0.0,0.0,0.0,0.0,0.0,0.0,0.0,0.0,-2.337,0.0,-2.4299,-2.5183,0.0,0.0,0.0,-2.4093,-2.379,-2.4208,-2.4315,-2.3784,0.0,0.0,-2.6674,-2.8079,-2.9118,-2.9518,-2.9635,-3.0167,-3.1544,-3.2691,-3.4098,-3.6019,-3.5939,-3.6621,-3.8968,-4.225,-4.4552,-4.4631,-4.339,-4.2778,-4.3214,-4.3866,-4.4602,-4.5114,-4.5874,-4.6023,-4.4899,-4.4703,-4.4768,-4.4978,-4.5698,-4.6377,-4.6481,-4.5897,-4.5123,-0.7706,-0.7699,-0.7722,-0.775,-0.7984,-0.7984,-0.794,-0.7875,-0.7885,-0.7916,-0.8016,-0.7743,-0.7593,-0.7462,-0.7729,-0.7876,-0.7818,-0.7933,-0.8495,-0.9501,-0.9563,-1.0074,-1.0993,-1.056,-1.0603,-1.1207,-1.2668,-1.3372,-1.3185,-1.2785,-1.2603,-1.2693,-1.2368,-1.1488,-1.0105,-1.0183,-1.0183,-1.0183,-0.817,-0.8962,-1.2691,-1.254,-1.2984,-1.4467,-1.4834,-1.5204,-1.5705,-1.6947,-1.7919,-1.8611,-1.9862,-2.04,-2.0347,-2.1105,0.0,0.0,0.0,0.0,0.0,0.0,0.0,0.0,0.0,-2.2531,-2.2059,0.0,-2.2216,0.0,-2.3391,-2.5168,-2.4992,-2.5105,0.0,0.0,-2.4431,-2.4235,-2.5594,-2.504,-2.485,-2.5716,-2.6198,-2.6982,-2.8225,-2.8736,-2.9456,-3.0646,-3.164,-3.2388,-3.2981,-3.4615,-3.6137,-3.7181,-3.7308,-3.7883,-3.98,-4.3306,-4.5946,-4.5946,-4.5596,-4.5423,-4.5558,-4.5743,-4.5909,-4.6073,-4.6252,-4.6259,-4.6047,-4.5982,-4.6353,-4.7121,-4.691,-4.6711,-4.7581,-4.6855,-4.5929,-0.7695,-0.7597,-0.7597,-0.7695,-0.7845,-0.7841,-0.7797,-0.7726,-0.7711,-0.7753,-0.7806,-0.7773,-0.7787,-0.7699,-0.7811,-0.7849,-0.7811,-0.8308,-0.8987,-0.9744,-1.0674,-1.1363,-1.1972,-1.2601,-1.2699,-1.2444,-1.2663,-1.2763,-1.2824,-1.2819,-1.2772,-1.2806,-1.2766,-1.2273,-1.1242,-1.115,-1.109,-1.0988,-0.9817,-1.0783,-1.3887,-1.3525,-1.3745,-1.4569,-1.5473,-1.6028,-1.6239,-1.787,-1.913,-2.0132,-2.0916,-2.1995,-2.3372,-2.321,-2.2942,0.0,0.0,0.0,0.0,0.0,0.0,0.0,0.0,0.0,0.0,0.0,-2.4808,-2.4704,-2.6268,-2.6964,-2.6259,-2.6511,-2.6757,-2.6834,-2.6177,-2.6091,-2.6918,-2.671,-2.6521,-2.6505,-2.7154,-2.8048,-2.9171,-3.0323,-3.0955,-3.0914,-3.2539,-3.3954,-3.438,-3.5498,-3.6753,-3.8384,-3.8188,-3.886,-4.1536,-4.4474,-4.6347,-4.6239,-4.631,-4.6371,-4.6346,-4.6632,-4.691,-4.7176,-4.7263,-4.7219,-4.7219,-4.7237,-4.754,-4.7944,-4.7738,-4.7597,-4.8156,-4.7662,-4.707,-0.764,-0.7543,-0.7443,-0.7536,-0.7726,-0.7726,-0.774,-0.757,-0.759,-0.7577,-0.7543,-0.7757,-0.7939,-0.7962,-0.8037,-0.8139,-0.8243,-0.9137,-0.9617,-0.9895,-1.1978,-1.2927,-1.29,-1.4223,-1.4543,-1.3916,-1.2857,-1.2291,-1.2335,-1.2596,-1.2565,-1.2325,-1.2565,-1.2761,-1.2712,-1.2258,-1.1939,-1.1703,-1.2028,-1.2785,-1.4082,-1.4329,-1.4462,-1.4484,-1.622,-1.7071,-1.7117,-1.8766,-2.0377,-2.1816,-2.1387,-2.2446,-2.5329,-2.5016,-2.4882,0.0,-2.4021,0.0,0.0,0.0,0.0,0.0,0.0,0.0,0.0,-2.6106,-2.7557,-2.9626,-2.9804,-2.9309,-2.8001,-2.8524,-2.8809,-2.8384,-2.8486,-2.8385,-2.7987,-2.8556,-2.8433,-2.6956,-2.8098,-2.9195,-2.986,-3.1974,-3.2532,-3.152,-3.3049,-3.4814,-3.5819,-3.6147,-3.7147,-3.9598,-3.9244,-4.051,-4.4108,-4.5947,-4.6607,-4.6351,-4.6632,-4.6668,-4.6685,-4.7248,-4.7864,-4.8309,-4.8365,-4.8327,-4.8309,-4.8251,-4.8267,-4.8284,-4.8361,-4.8394,-4.8325,-4.8247,-4.8049,-0.7224,-0.7227,-0.7138,-0.776,-0.8645,-0.8645,-0.8192,-0.7424,-0.7449,-0.7458,-0.7431,-0.7356,-0.7948,-0.9023,-0.9974,-1.0436,-1.0501,-1.0643,-1.1359,-1.2274,-1.2534,-1.3183,-1.4161,-1.4233,-1.3933,-1.3379,-1.2629,-1.2329,-1.2304,-1.2385,-1.2358,-1.2305,-1.2358,-1.2385,-1.2405,0.0,0.0,0.0,-1.3131,-1.3574,-1.4088,-1.4142,-1.4864,-1.622,-1.6668,0.0,-1.8402,-2.0064,-2.115,-2.141,-2.2187,0.0,0.0,0.0,0.0,0.0,0.0,0.0,0.0,0.0,0.0,0.0,-2.7054,-2.698,-2.5828,-2.698,-2.8336,-2.9626,-2.9779,-2.9758,-2.9706,-2.947,-2.9385,-2.947,-2.9138,-2.8858,-2.8762,-2.8939,-2.8837,-2.8612,-2.8799,-2.9572,-3.1025,-3.1721,-3.2501,-3.3483,-3.4252,-3.5382,-3.7234,-3.7769,-3.8753,-4.0384,-4.1707,-4.3957,-4.711,-4.7698,-4.7829,-4.7897,-4.819,-4.8329,-4.8307,-4.8654,-4.9051,-4.9234,-4.9029,-4.8667,-4.8354,-4.831,-4.8289,-4.8306,-4.8807,-4.9063,-4.8453,-4.8302,-4.8162,-0.7607,0.0,-0.8698,-0.9139,0.0,-0.9749,-0.9459,-0.8949,-0.9009,-0.9029,-0.889,-0.7602,-0.8177,-1.0113,-1.1844,-1.2024,-1.1015,-1.1442,-1.201,-1.2627,-1.3132,-1.3665,-1.4309,-1.4159,-1.3754,-1.3174,-1.2614,-1.2831,-1.3638,-1.32,-1.3158,-1.3349,-1.342,-1.342,-1.3364,-1.3756,-1.3775,-1.3186,-1.3372,-1.4124,-1.5573,-1.5331,-1.5694,-1.7038,-1.7961,0.0,0.0,0.0,0.0,0.0,0.0,0.0,0.0,0.0,0.0,-2.7998,-2.7174,-2.6738,-2.7055,-2.7475,-2.7592,-2.7335,-2.804,-2.8027,-2.7028,-2.7668,-2.8637,-3.0083,-3.0167,-3.0223,-3.0351,-2.99,-2.9632,-2.9783,-2.968,-2.9628,-2.9704,-3.0011,-3.0259,-3.0192,-2.9678,-3.0061,-3.2248,-3.3192,-3.3596,-3.4079,-3.4678,-3.5866,-3.7855,-3.8494,-3.9301,-4.1113,-4.3495,-4.5802,-4.7784,-4.8314,-4.832,-4.8349,-4.8475,-4.849,-4.8342,-4.8814,-4.9265,-4.9416,-4.9326,-4.9002,-4.8434,-4.831,-4.8308,-4.8397,-4.895,-4.9546,-4.9411,-4.9176,-4.8818,-0.8751,-1.0336,-1.0982,-1.1068,-1.0869,-1.0869,-1.095,-1.1133,0.0,0.0,0.0,-0.8558,-0.8922,-1.1144,-1.3231,-1.3144,-1.1497,-1.2255,-1.2589,-1.2674,-1.3646,-1.4082,-1.4055,-1.404,-1.3747,-1.3162,-1.2921,-1.3616,-1.5153,-1.425,-1.4081,-1.4429,-1.4416,-1.4424,-1.4514,-1.4968,-1.4698,-1.3634,-1.348,-1.471,-1.7203,-1.6805,-1.6857,-1.7677,-1.9173,-2.0132,-2.055,-2.1749,-2.2666,-2.3008,-2.328,-2.3421,-2.3178,-2.5592,-2.7916,-2.9591,-2.8906,-2.8572,-2.9038,-2.9076,-2.895,-2.8632,-2.9024,-2.9013,-2.8475,-2.8386,-2.8933,-3.0217,-3.0583,-3.0774,-3.0687,-3.027,-3.0053,-3.0071,-3.0325,-3.0569,-3.0733,-3.1248,-3.1577,-3.1445,-3.0578,-3.0822,-3.3045,-3.4589,-3.5217,-3.4413,-3.5037,-3.6542,-3.8459,-3.9353,-4.0222,-4.198,-4.4229,-4.6434,-4.7846,-4.8323,-4.8326,-4.8307,-4.8365,-4.8292,-4.8125,-4.8516,-4.9083,-4.9445,-4.9504,-4.9305,-4.8861,-4.869,-4.8578,-4.8691,-4.8985,-4.9438,-4.9986,-4.9711,-4.9294,-1.1448,-1.3448,-1.3547,-1.3004,-1.2072,-1.2066,-1.2492,-1.299,-1.1112,-1.0383,-1.0578,-1.0263,-1.0868,-1.2123,-1.3506,-1.3946,-1.3625,-1.3756,-1.3822,-1.3822,-1.3997,-1.3984,-1.3678,-1.3945,-1.3801,-1.3351,-1.4297,-1.4897,-1.5108,-1.4657,-1.4453,-1.444,-1.4112,-1.4179,-1.449,-1.4952,-1.5122,-1.4891,-1.4705,-1.5427,-1.7286,-1.7843,-1.8478,-1.9199,-1.9552,-2.0301,-2.1607,-2.2201,-2.2539,-2.2607,-2.4193,-2.449,-2.3348,-2.709,-2.9536,-2.9764,-2.9667,-2.9586,-2.9679,-2.9679,-2.9986,-3.0673,-3.0874,-3.052,-2.9625,-2.9563,-2.949,-2.9372,-3.0528,-3.1258,-3.1084,-3.0982,-3.0974,-3.119,-3.1293,-3.1552,-3.213,-3.2351,-3.2245,-3.1695,-3.1372,-3.1741,-3.3319,-3.4734,-3.5535,-3.5464,-3.5959,-3.7202,-3.9501,-4.1276,-4.2348,-4.3249,-4.473,-4.6471,-4.7902,-4.8324,-4.8269,-4.8306,-4.8494,-4.8614,-4.8528,-4.8927,-4.9311,-4.9475,-4.9532,-4.9731,-5.009,-4.9787,-4.9665,-4.9957,-4.9295,-4.837,-4.8457,-4.8372,-4.8671,-1.3131,-1.4021,-1.4077,-1.3815,-1.3294,-1.3294,-1.3464,-1.3776,-1.2575,-1.2075,-1.2255,-1.2447,-1.2804,-1.3288,-1.3861,-1.4128,-1.4088,-1.4088,-1.4088,-1.4075,-1.3921,-1.4032,-1.4371,-1.3863,-1.3426,-1.3334,-1.5614,-1.6493,-1.5998,-1.547,-1.5283,-1.5359,-1.5151,-1.5277,-1.5683,-1.6165,-1.6483,-1.6704,-1.5473,-1.6237,-1.9025,-1.863,-1.8985,-2.0108,-2.0118,-2.069,-2.1855,-2.207,-2.2616,-2.3734,-2.4787,-2.5251,-2.506,-2.7997,-2.9769,-2.9808,-2.9802,-2.9779,-2.9779,-3.0279,-3.0983,-3.1901,-3.196,-3.1771,-3.1368,-3.1305,-3.1007,-3.0469,-3.1081,-3.1483,-3.135,-3.1336,-3.1516,-3.2038,-3.212,-3.2367,-3.2986,-3.3145,-3.3029,-3.2729,-3.2628,-3.3121,-3.4421,-3.5183,-3.5736,-3.6037,-3.7003,-3.8485,-4.0113,-4.1542,-4.2723,-4.3469,-4.4858,-4.6434,-4.7977,-4.8326,-4.7956,-4.7184,-4.7519,-4.7972,-4.8211,-4.8577,-4.9003,-4.9438,-4.9781,-5.0253,-5.0665,-5.0449,-5.0369,-5.0264,-4.8452,-4.7044,-4.6797,-4.7415,-4.824,-1.3824,-1.4138,-1.4085,-1.4088,-1.4088,-1.4088,-1.4082,-1.3957,-1.3685,-1.3642,-1.3628,-1.3852,-1.3993,-1.4159,-1.4614,-1.465,-1.44,-1.4552,-1.467,-1.4503,-1.4279,-1.4526,-1.509,-1.4227,-1.388,-1.4151,-1.6722,-1.7584,-1.6825,-1.625,-1.5955,-1.5945,-1.6076,-1.6289,-1.6738,-1.7149,-1.7627,-1.7891,-1.6365,-1.7156,-2.0389,-1.9472,-1.9459,-2.0479,-2.0576,-2.1086,-2.1987,-2.2217,-2.3103,-2.4902,-2.5652,-2.6135,-2.6542,-2.859,-2.9766,-2.9817,-2.9779,-2.9946,-3.0139,-3.097,-3.1888,-3.2806,-3.2876,-3.3016,-3.3225,-3.3235,-3.2768,-3.1717,-3.1442,-3.1471,-3.1498,-3.1712,-3.2007,-3.2532,-3.2734,-3.3093,-3.3684,-3.3853,-3.3887,-3.3972,-3.4036,-3.4542,-3.5614,-3.597,-3.619,-3.6873,-3.8112,-3.939,-4.0364,-4.1533,-4.2548,-4.3465,-4.4582,-4.6049,-4.7812,-4.8307,-4.7644,-4.6175,-4.6598,-4.7206,-4.7578,-4.7866,-4.8321,-4.899,-4.9538,-4.9936,-5.0291,-5.0565,-5.0224,-4.9436,-4.7152,-4.5529,-4.5629,-4.6356,-4.7369,-1.3101,-1.4015,-1.4062,-1.4088,-1.4088,-1.4088,-1.3899,-1.3672,-1.3589,-1.3609,-1.3651,-1.3385,-1.3622,-1.4328,-1.6111,-1.6265,-1.5153,-1.6047,-1.6204,-1.5777,-1.5766,-1.5685,-1.562,-1.5678,-1.5779,-1.5989,-1.7301,-1.7687,-1.6967,-1.6491,-1.5961,-1.5596,-1.5869,-1.6279,-1.6704,-1.714,-1.758,-1.7979,-1.7812,-1.8627,-2.0406,-2.0496,-2.0493,-2.0566,-2.0576,-2.1231,-2.2501,-2.3123,-2.4047,-2.5502,-2.6967,-2.745,-2.6908,-2.8621,-2.9829,-2.9792,-2.9779,-3.0139,-3.1044,-3.1974,-3.289,-3.3739,-3.3876,-3.423,-3.5014,-3.516,-3.4117,-3.2115,-3.1516,-3.1483,-3.1539,-3.2064,-3.2477,-3.2788,-3.3182,-3.3786,-3.4382,-3.4511,-3.4736,-3.5362,-3.5261,-3.5807,-3.6578,-3.6908,-3.7176,-3.7524,-3.8383,-3.9511,-4.0729,-4.1595,-4.2525,-4.3243,-4.3705,-4.5114,-4.7481,-4.8271,-4.7461,-4.6267,-4.6525,-4.6875,-4.6948,-4.7076,-4.7445,-4.7951,-4.824,-4.8544,-4.9281,-5.0023,-4.9435,-4.7112,-4.5577,-4.477,-4.5007,-4.519,-4.5628,-1.3186,-1.4049,-1.3843,-1.3928,-1.4075,-1.4088,-1.399,-1.3964,-1.4587,-1.4828,-1.4698,-1.4042,-1.4179,-1.513,-1.6688,-1.6993,-1.6468,-1.6635,-1.662,-1.6354,-1.597,-1.597,-1.6333,-1.5788,-1.607,-1.7163,-1.7754,-1.7504,-1.6667,-1.6056,-1.5613,-1.5459,-1.5596,-1.6025,-1.6636,-1.6902,-1.7319,-1.7988,-1.8008,-1.8605,-1.9732,-2.0297,-2.0615,-2.0605,-2.0576,-2.1288,-2.2564,-2.325,-2.4494,-2.6414,-2.7561,-2.8195,-2.847,-2.9279,-2.9779,-2.9856,-3.0343,-3.1254,-3.2735,-3.3255,-3.3808,-3.4854,-3.4905,-3.5067,-3.5459,-3.5491,-3.4395,-3.2021,-3.153,-3.1712,-3.2283,-3.2539,-3.2895,-3.3633,-3.4037,-3.4447,-3.5098,-3.5207,-3.5316,-3.5577,-3.5622,-3.5715,-3.6264,-3.6995,-3.754,-3.7911,-3.8495,-3.9469,-4.084,-4.1405,-4.2103,-4.3167,-4.3503,-4.4875,-4.7463,-4.7389,-4.6672,-4.6104,-4.5736,-4.57,-4.5755,-4.5928,-4.6218,-4.6838,-4.7084,-4.7155,-4.7236,-4.787,-4.7659,-4.5243,-4.4293,-4.4056,-4.4388,-4.4553,-4.4896,-1.3108,-1.3691,-1.3615,-1.3678,-1.3968,-1.4055,-1.4088,-1.4257,-1.5264,-1.565,-1.5621,-1.5153,-1.5604,-1.6659,-1.7716,-1.7989,-1.7649,-1.7605,-1.7432,-1.7216,-1.6664,-1.6724,-1.7166,-1.6431,-1.6656,-1.7736,-1.7446,-1.6863,-1.6061,-1.5642,-1.542,-1.542,-1.542,-1.585,-1.6578,-1.6665,-1.7158,-1.793,-1.8008,-1.829,-1.8981,-2.0018,-2.0667,-2.0961,-2.1011,-2.1681,-2.3297,-2.395,-2.5295,-2.7404,-2.8144,-2.8937,-2.9714,-2.9779,-2.9946,-3.0279,-3.1341,-3.2522,-3.3945,-3.4245,-3.4706,-3.5424,-3.5489,-3.5489,-3.5499,-3.5508,-3.5109,-3.4317,-3.3482,-3.347,-3.2786,-3.3074,-3.3598,-3.4479,-3.4736,-3.5098,-3.5515,-3.5639,-3.5577,-3.5639,-3.5639,-3.5915,-3.6458,-3.738,-3.8062,-3.8201,-3.8684,-3.9478,-4.0799,-4.135,-4.1992,-4.3259,-4.3501,-4.4819,-4.7424,-4.6507,-4.5535,-4.5259,-4.4856,-4.4874,-4.4709,-4.4998,-4.5389,-4.6212,-4.6376,-4.6438,-4.6308,-4.6389,-4.596,-4.4308,-4.3521,-4.3662,-4.4005,-4.4261,-4.4318,-1.2576,-1.3041,-1.3433,-1.3654,-1.3687,-1.4052,-1.4166,-1.4257,-1.5303,-1.5769,-1.6018,-1.6774,-1.7772,-1.8798,-1.9767,-1.9571,-1.852,-1.9127,-1.9094,-1.8442,-1.836,-1.8209,-1.8008,-1.7872,-1.792,-1.7881,-1.657,-1.5735,-1.5482,-1.5419,-1.542,-1.542,-1.5439,-1.5869,-1.6611,-1.6738,-1.7158,-1.792,-1.8008,-1.8056,-1.8322,-1.9723,-2.0966,-2.1814,-2.1876,-2.2809,-2.4667,-2.5855,-2.6938,-2.8,-2.9049,-2.9702,-2.9779,-2.9882,-3.0305,-3.1254,-3.2806,-3.3876,-3.4109,-3.4839,-3.5424,-3.5504,-3.5554,-3.5474,-3.5499,-3.5523,-3.6495,-3.9241,-3.7818,-3.6194,-3.3944,-3.423,-3.4562,-3.4723,-3.5258,-3.5583,-3.5577,-3.5639,-3.5639,-3.5622,-3.5807,-3.6542,-3.8188,-3.8606,-3.8679,-3.8834,-3.9337,-4.0194,-4.1038,-4.1791,-4.2506,-4.3185,-4.3701,-4.4581,-4.7166,-4.5937,-4.4126,-4.3942,-4.4415,-4.4617,-4.469,-4.48,-4.5186,-4.5387,-4.5176,-4.5189,-4.5418,-4.5086,-4.4306,-4.348,-4.3494,-4.3656,-4.3812,-4.3937,-4.3998,-1.2543,-1.2946,-1.4214,-1.4272,-1.3838,-1.542,-1.5801,-1.5304,-1.7056,-1.7775,-1.798,-1.8894,-1.9631,-1.9991,-1.9822,-1.9621,-1.9355,-1.949,-1.9199,-1.8643,-1.8359,-1.8154,-1.8027,-1.8008,-1.8008,-1.7842,-1.6788,-1.5918,-1.5444,-1.539,-1.542,-1.5478,-1.5693,-1.6143,-1.6641,-1.6997,-1.7431,-1.792,-1.8008,-1.8251,-1.8792,-1.9486,-2.0781,-2.2785,-2.2339,-2.313,-2.5396,-2.6232,-2.7221,-2.855,-2.939,-2.9779,-2.9882,-3.0968,-3.1978,-3.2932,-3.3656,-3.4245,-3.4905,-3.5294,-3.5489,-3.5554,-3.5958,-3.5995,-3.563,-3.5583,-3.6781,-3.9186,-3.9657,-3.8515,-3.7679,-3.6664,-3.5976,-3.6028,-3.6194,-3.6129,-3.5757,-3.5639,-3.5639,-3.5824,-3.6646,-3.7945,-3.8492,-3.9261,-3.9625,-3.9588,-4.0157,-4.0946,-4.1662,-4.2158,-4.2616,-4.3259,-4.3499,-4.3864,-4.4759,-4.4488,-4.3523,-4.3593,-4.3791,-4.3883,-4.3956,-4.403,-4.4305,-4.4415,-4.414,-4.4158,-4.4485,-4.4393,-4.3479,-4.3479,-4.3479,-4.3529,-4.3646,-4.374,-4.3772,-1.2784,-1.3501,-1.4712,-1.5057,-1.494,-1.654,-1.6846,-1.6445,-1.8189,-1.9003,-1.9213,-2.0167,-2.0576,-2.0478,-1.9802,-1.9522,-1.9687,-1.9414,-1.9053,-1.8633,-1.834,-1.8144,-1.8027,-1.8008,-1.8008,-1.791,-1.7091,-1.6344,-1.5683,-1.5468,-1.542,-1.5439,-1.585,-1.6279,-1.6743,-1.7163,-1.7601,-1.7929,-1.8008,-1.8389,-1.9206,-1.9598,-2.0834,-2.2816,-2.2763,-2.3653,-2.6191,-2.6784,-2.763,-2.875,-2.9478,-2.9921,-3.0394,-3.2347,-3.38,-3.4249,-3.4428,-3.4875,-3.5598,-3.5639,-3.5489,-3.5554,-3.6165,-3.6445,-3.6244,-3.6235,-3.7598,-3.9429,-4.0113,-4.0121,-3.9816,-3.8705,-3.7585,-3.703,-3.6789,-3.6468,-3.574,-3.5639,-3.5599,-3.5873,-3.7358,-3.847,-3.8757,-3.9341,-3.9698,-3.9827,-4.0598,-4.1387,-4.2103,-4.2561,-4.2818,-4.3369,-4.3479,-4.3516,-4.3936,-4.3756,-4.3503,-4.3536,-4.3552,-4.3497,-4.3479,-4.3479,-4.3479,-4.3479,-4.3479,-4.3479,-4.3479,-4.3479,-4.3479,-4.3479,-4.3479,-4.3513,-4.3529,-4.3513,-4.3597,-1.3499,-1.4502,-1.5098,-1.6,-1.6673,-1.7338,-1.7415,-1.7529,-1.8591,-1.9208,-1.9371,-2.0167,-2.0576,-2.0469,-1.9916,-1.9519,-1.9375,-1.9248,-1.8984,-1.8584,-1.8475,-1.834,-1.8018,-1.8008,-1.7969,-1.79,-1.7139,-1.6523,-1.6045,-1.5635,-1.542,-1.5488,-1.5898,-1.6348,-1.6728,-1.7189,-1.765,-1.7919,-1.8008,-1.8439,-1.9304,-2.0062,-2.125,-2.2838,-2.3229,-2.458,-2.7139,-2.7748,-2.8312,-2.8888,-2.9503,-3.019,-3.1312,-3.3695,-3.5281,-3.5088,-3.5274,-3.5783,-3.6327,-3.5893,-3.5504,-3.5709,-3.6196,-3.6831,-3.7277,-3.7664,-3.8466,-3.9702,-4.01,-4.0087,-4.0104,-3.9885,-3.904,-3.7326,-3.7043,-3.6721,-3.596,-3.5656,-3.563,-3.588,-3.7422,-3.858,-3.8703,-3.9071,-3.9478,-4.0047,-4.0836,-4.1662,-4.2378,-4.2947,-4.3387,-4.3461,-4.3479,-4.3479,-4.3479,-4.3479,-4.3497,-4.3497,-4.3497,-4.3479,-4.3479,-4.3479,-4.3479,-4.3479,-4.3479,-4.3479,-4.3479,-4.3479,-4.3479,-4.3479,-4.3479,-4.3479,-4.3479,-4.3479,-4.3479,-1.479,-1.5894,-1.7038,-1.725,-1.7215,-1.8768,-1.9195,-1.8638,-1.9604,-2.0068,-2.0167,-2.0489,-2.0576,-2.0459,-1.9992,-1.948,-1.9073,-1.8893,-1.8603,-1.8262,-1.8213,-1.8144,-1.8037,-1.8008,-1.7852,-1.7539,-1.7012,-1.6504,-1.6074,-1.5635,-1.542,-1.5537,-1.6162,-1.6572,-1.6777,-1.7399,-1.789,-1.7969,-1.8008,-1.8438,-1.9298,-2.0183,-2.1449,-2.31,-2.3436,-2.4853,-2.7626,-2.8009,-2.8561,-2.9453,-2.9691,-3.033,-3.1755,-3.4024,-3.5681,-3.6087,-3.5711,-3.6028,-3.6821,-3.6163,-3.5729,-3.6069,-3.644,-3.677,-3.7371,-3.8529,-3.9445,-4.0064,-4.0118,-4.0087,-4.0087,-4.0087,-3.9512,-3.843,-3.8294,-3.7719,-3.6603,-3.5977,-3.5659,-3.585,-3.7411,-3.8546,-3.8955,-3.9428,-4.0304,-4.0744,-4.1791,-4.2745,-4.3057,-4.3259,-4.3479,-4.3479,-4.3479,-4.3479,-4.3479,-4.3479,-4.3479,-4.3479,-4.3479,-4.3479,-4.3479,-4.3479,-4.3479,-4.3479,-4.3479,-4.3479,-4.3479,-4.3479,-4.3479,-4.3479,-4.3479,-4.3479,-4.3479,-4.3479,-4.3479,-1.5825,-1.7242,-1.8252,-1.8578,-1.8422,-2.0052,-2.0245,-1.9766,-2.0323,-2.0576,-2.0566,-2.0576,-2.0576,-2.0439,-1.9856,-1.9448,-1.9136,-1.8682,-1.8262,-1.8037,-1.8008,-1.8008,-1.8008,-1.8008,-1.7891,-1.7664,-1.7347,-1.6904,-1.6299,-1.5879,-1.5654,-1.5791,-1.6377,-1.6826,-1.7012,-1.7637,-1.8008,-1.8037,-1.8045,-1.845,-1.9301,-2.0136,-2.1502,-2.3205,-2.3514,-2.4961,-2.7503,-2.7984,-2.8637,-2.9553,-2.9779,-3.0432,-3.1729,-3.3415,-3.4953,-3.5956,-3.5904,-3.5968,-3.6821,-3.6312,-3.5893,-3.619,-3.6868,-3.7359,-3.7739,-3.8853,-3.9325,-4.0004,-4.0083,-4.0104,-4.0104,-4.0087,-3.9851,-3.9462,-3.9089,-3.8481,-3.7411,-3.6769,-3.6157,-3.6272,-3.7405,-3.8705,-3.9685,-4.006,-4.1056,-4.1534,-4.2396,-4.3259,-4.3351,-4.3461,-4.3479,-4.3479,-4.3479,-4.3479,-4.3479,-4.3479,-4.3479,-4.3479,-4.3479,-4.3479,-4.3479,-4.3479,-4.3479,-4.3479,-4.3479,-4.3479,-4.3479,-4.3479,-4.3479,-4.3479,-4.3479,-4.3479,-4.3479,-4.3479,-4.3479,-1.6735,-1.852,-1.8961,-1.965,-2.0372,-2.0566,-2.0566,-2.0566,-2.0566,-2.0576,-2.0576,-2.0576,-2.0576,-2.0391,-1.9785,-1.9404,-1.9354,-1.8615,-1.8115,-1.8037,-1.8008,-1.8008,-1.8008,-1.8008,-1.7978,-1.7978,-1.7903,-1.7466,-1.665,-1.6211,-1.6064,-1.6135,-1.6475,-1.6943,-1.7324,-1.7793,-1.8008,-1.8018,-1.7967,-1.8445,-1.9409,-2.043,-2.1648,-2.343,-2.3683,-2.4882,-2.7021,-2.7934,-2.8699,-2.9628,-2.9817,-3.033,-3.1439,-3.22,-3.3677,-3.5621,-3.5629,-3.6007,-3.6432,-3.6522,-3.6267,-3.6079,-3.7334,-3.8494,-3.8227,-3.8387,-3.8967,-3.996,-4.0079,-4.0086,-4.0104,-4.0087,-4.0037,-3.9986,-3.9394,-3.87,-3.8173,-3.7952,-3.7387,-3.6853,-3.7804,-3.9351,-4.0716,-4.0689,-4.1217,-4.1864,-4.2415,-4.2928,-4.3277,-4.3479,-4.3479,-4.3479,-4.3479,-4.3479,-4.3479,-4.3479,-4.3479,-4.3479,-4.3479,-4.3479,-4.3479,-4.3479,-4.3479,-4.3479,-4.3479,-4.3479,-4.3479,-4.3479,-4.3479,-4.3479,-4.3479,-4.3479,-4.3479,-4.3479,-4.3479,-1.8795,-2.0014,-2.0119,-2.0323,-2.0566,-2.0576,-2.0576,-2.0576,-2.0576,-2.0576,-2.0576,-2.0576,-2.0576,-2.0508,-1.999,-1.929,-1.8629,-1.844,-1.8271,-1.8037,-1.8008,-1.8008,-1.8008,-1.8008,-1.8008,-1.8027,-1.7972,-1.7516,-1.6738,-1.6318,-1.6174,-1.6135,-1.6533,-1.6963,-1.7383,-1.7803,-1.7988,-1.8027,-1.8005,-1.8778,-2.0275,-2.1765,-2.2952,-2.3419,-2.4192,-2.5409,-2.7164,-2.821,-2.9026,-2.9716,-2.9795,-2.9874,-3.0484,-3.1803,-3.3807,-3.6158,-3.6026,-3.6237,-3.73,-3.6971,-3.6611,-3.6896,-3.7451,-3.7676,-3.776,-3.8764,-3.951,-4.0017,-4.0078,-4.0186,-4.0136,-4.0138,-4.0121,-4.0003,-3.9462,-3.9157,-3.9223,-3.8608,-3.834,-3.9826,-4.024,-4.0594,-4.098,-4.1439,-4.1776,-4.2271,-4.2763,-4.3149,-4.3406,-4.3479,-4.3479,-4.3479,-4.3479,-4.3479,-4.3479,-4.3479,-4.3479,-4.3479,-4.3479,-4.3479,-4.3479,-4.3479,-4.3479,-4.3479,-4.3479,-4.3479,-4.3479,-4.3479,-4.3479,-4.3479,-4.3479,-4.3479,-4.3479,-4.3479,-4.3479,-1.9599,-2.0566,-2.0576,-2.0576,-2.0576,-2.0576,-2.0576,-2.0576,-2.0576,-2.0576,-2.0576,-2.0576,-2.0576,-2.0527,-2.0299,-1.9387,-1.8199,-1.8385,-1.8339,-1.8057,-1.8008,-1.8008,-1.8008,-1.8008,-1.8008,-1.7998,-1.8034,-1.7698,-1.7199,-1.6645,-1.6465,-1.6602,-1.6689,-1.7051,-1.7646,-1.7852,-1.8008,-1.7998,-1.8069,-1.8867,-2.0544,-2.1618,-2.2761,-2.3323,-2.4143,-2.5302,-2.7354,-2.8247,-2.8938,-2.9616,-2.9811,-2.999,-3.047,-3.1402,-3.371,-3.6965,-3.6073,-3.5961,-3.7082,-3.6866,-3.6686,-3.706,-3.7419,-3.797,-3.84,-3.9343,-3.9989,-4.1808,-4.1927,-4.1671,-4.1047,-4.0763,-4.0426,-4.0104,-3.9681,-3.9631,-4.0087,-3.9384,-3.9564,-4.0582,-4.0891,-4.09,-4.1292,-4.1705,-4.2068,-4.2502,-4.3045,-4.3316,-4.3479,-4.3479,-4.3444,-4.341,-4.3479,-4.3479,-4.3479,-4.3479,-4.3479,-4.3479,-4.3479,-4.3479,-4.3479,-4.3479,-4.3479,-4.3479,-4.3479,-4.3479,-4.3479,-4.3479,-4.3479,-4.3479,-4.3479,-4.3479,-4.3479,-4.3479,-4.3479,-1.9756,-2.0576,-2.0576,-2.0576,-2.0576,-2.0576,-2.0576,-2.0576,-2.0576,-2.0576,-2.0576,-2.0576,-2.0576,-2.0624,-2.0414,-1.9668,-1.8209,-1.8466,-1.8319,-1.8115,-1.8008,-1.8008,-1.8008,-1.8008,-1.8008,-1.8008,-1.8008,-1.7984,-1.7675,-1.7111,-1.7002,-1.7119,-1.6953,-1.7256,-1.7793,-1.7988,-1.8008,-1.7988,-1.8014,-1.8779,-2.0317,-2.1166,-2.2264,-2.3408,-2.4181,-2.5516,-2.7358,-2.8222,-2.8637,-2.9754,-2.9764,-3.0184,-3.1022,-3.1241,-3.3382,-3.6051,-3.587,-3.5467,-3.6424,-3.6761,-3.6626,-3.6911,-3.7868,-3.8801,-3.9327,-3.9501,-4.0563,-4.3229,-4.4417,-4.3504,-4.2286,-4.1576,-4.0933,-4.0409,-4.0172,-4.007,-4.0086,-4.0107,-4.0083,-4.0101,-4.0106,-4.0627,-4.1186,-4.16,-4.1659,-4.2165,-4.27,-4.2811,-4.2995,-4.3124,-4.316,-4.325,-4.3356,-4.3479,-4.3479,-4.3479,-4.3479,-4.3479,-4.3479,-4.3479,-4.3479,-4.3479,-4.3479,-4.3479,-4.3479,-4.3479,-4.3479,-4.3479,-4.3479,-4.3479,-4.3479,-4.3479,-4.3479,-4.3479,-4.3479,-2.0401,-2.0576,-2.0576,-2.0576,-2.0576,-2.0576,-2.0576,-2.0576,-2.0576,-2.0576,-2.0576,-2.0576,-2.0576,-2.0537,-2.0242,-1.9668,-1.8962,-1.8718,-1.8329,-1.8047,-1.8008,-1.8008,-1.8008,-1.8008,-1.8008,-1.8008,-1.8008,-1.7976,-1.7869,-1.7465,-1.7285,-1.7344,-1.7275,-1.749,-1.792,-1.8008,-1.8008,-1.7988,-1.7986,-1.8672,-2.0101,-2.1817,-2.2952,-2.3734,-2.4981,-2.651,-2.7701,-2.8109,-2.8662,-2.9526,-2.9824,-2.9967,-3.0457,-3.109,-3.3066,-3.5121,-3.5568,-3.5532,-3.6773,-3.7067,-3.7195,-3.727,-3.8227,-3.9257,-3.9354,-3.9436,-4.0357,-4.2395,-4.3717,-4.3833,-4.2554,-4.166,-4.1153,-4.0815,-4.0375,-4.0087,-4.0104,-4.0119,-4.0099,-4.0095,-4.0105,-4.0221,-4.0502,-4.1049,-4.1357,-4.189,-4.2103,-4.2185,-4.2462,-4.2752,-4.2958,-4.3178,-4.3339,-4.3479,-4.3479,-4.3479,-4.3479,-4.3479,-4.3479,-4.3479,-4.3479,-4.3479,-4.3479,-4.3479,-4.3479,-4.3479,-4.3479,-4.3479,-4.3479,-4.3479,-4.3479,-4.3479,-4.3479,-4.3479,-4.3479,-2.0576,-2.0576,-2.0576,-2.0576,-2.0576,-2.0576,-2.0576,-2.0576,-2.0576,-2.0576,-2.0576,-2.0576,-2.0576,-2.0557,-2.0303,-1.9902,-1.9238,-1.8623,-1.8223,-1.8027,-1.8008,-1.8008,-1.8008,-1.8008,-1.8008,-1.8008,-1.8008,-1.8026,-1.7839,-1.7504,-1.7256,-1.7578,-1.7324,-1.7422,-1.792,-1.8008,-1.8008,-1.7988,-1.8018,-1.8538,-1.9915,-2.2147,-2.3815,-2.4362,-2.5688,-2.6979,-2.7996,-2.8109,-2.8725,-2.9474,-2.9813,-3.0065,-3.0678,-3.1546,-3.3091,-3.42,-3.4821,-3.5224,-3.6297,-3.6877,-3.706,-3.7419,-3.8392,-3.8975,-3.9313,-3.9419,-3.9754,-4.1081,-4.2772,-4.4023,-4.282,-4.2134,-4.161,-4.0728,-4.0358,-4.0104,-4.0087,-4.0087,-4.0087,-4.0087,-4.0114,-4.0109,-4.0315,-4.0613,-4.0892,-4.1288,-4.1835,-4.1979,-4.248,-4.277,-4.2976,-4.3178,-4.3375,-4.3497,-4.3479,-4.3479,-4.3479,-4.3479,-4.3479,-4.3479,-4.3479,-4.3479,-4.3479,-4.3479,-4.3479,-4.3479,-4.3479,-4.3479,-4.3479,-4.3479,-4.3479,-4.3479,-4.3479,-4.3479,-4.3479,-2.0576,-2.0576,-2.0576,-2.0576,-2.0576,-2.0576,-2.0576,-2.0576,-2.0576,-2.0576,-2.0576,-2.0576,-2.0576,-2.0566,-2.0557,-2.0088,-1.9365,-1.8584,-1.8193,-1.8184,-1.8047,-1.8018,-1.8008,-1.8008,-1.8008,-1.8008,-1.8008,-1.7988,-1.7793,-1.7383,-1.7451,-1.7793,-1.7363,-1.7451,-1.791,-1.8008,-1.8008,-1.8037,-1.8056,-1.8395,-1.9777,-2.2062,-2.3895,-2.5216,-2.5968,-2.7017,-2.7858,-2.8185,-2.8624,-2.9716,-2.9788,-3.0412,-3.1402,-3.2418,-3.3105,-3.326,-3.4072,-3.5176,-3.6173,-3.6689,-3.718,-3.7569,-3.8227,-3.8811,-3.9298,-3.9375,-3.9505,-4.0591,-4.2204,-4.4164,-4.3261,-4.2719,-4.1842,-4.0896,-4.0459,-4.0223,-4.0155,-4.0087,-4.0087,-4.0121,-4.0103,-4.0085,-4.0116,-4.0257,-4.05,-4.0723,-4.1278,-4.1725,-4.218,-4.2577,-4.2675,-4.2995,-4.316,-4.3444,-4.3479,-4.3479,-4.3479,-4.3479,-4.3479,-4.3479,-4.3479,-4.3479,-4.3479,-4.3479,-4.3479,-4.3479,-4.3479,-4.3479,-4.3479,-4.3479,-4.3479,-4.3479,-4.3479,-4.3479,-4.3479,-2.0576,-2.0576,-2.0576,-2.0576,-2.0576,-2.0576,-2.0576,-2.0576,-2.0576,-2.0576,-2.0576,-2.0576,-2.0576,-2.0576,-2.0576,-2.0254,-1.96,-1.8896,-1.8486,-1.8398,-1.8203,-1.8066,-1.8018,-1.8008,-1.8008,-1.8008,-1.8008,-1.8008,-1.7998,-1.7881,-1.7744,-1.793,-1.7783,-1.7861,-1.793,-1.8008,-1.8008,-1.7969,-1.7996,-1.8375,-1.9454,-2.1892,-2.4261,-2.5767,-2.6314,-2.7055,-2.7846,-2.816,-2.8637,-2.9691,-2.975,-3.0363,-3.1348,-3.2445,-3.2988,-3.3381,-3.4362,-3.5446,-3.6313,-3.747,-3.8008,-3.8362,-3.8781,-3.9155,-3.9349,-3.9433,-3.937,-4.0142,-4.2078,-4.4075,-4.3353,-4.3093,-4.2824,-4.2013,-4.1236,-4.0747,-4.0307,-4.0104,-4.0087,-4.0087,-4.0087,-4.007,-4.0086,-4.0085,-4.0251,-4.0349,-4.0607,-4.0908,-4.1168,-4.1639,-4.2003,-4.2426,-4.2903,-4.3232,-4.3479,-4.3479,-4.3479,-4.3479,-4.3479,-4.3479,-4.3479,-4.3479,-4.3479,-4.3479,-4.3479,-4.3479,-4.3479,-4.3479,-4.3479,-4.3479,-4.3479,-4.3479,-4.3479,-4.3479,-4.3479,-2.0576,-2.0576,-2.0576,-2.0576,-2.0576,-2.0576,-2.0576,-2.0576,-2.0576,-2.0576,-2.0576,-2.0576,-2.0576,-2.0576,-2.0576,-2.0215,-1.957,-1.9228,-1.873,-1.8408,-1.8301,-1.8193,-1.8047,-1.8008,-1.8008,-1.8008,-1.8008,-1.8008,-1.7978,-1.7754,-1.7842,-1.792,-1.7812,-1.7783,-1.7969,-1.8008,-1.8027,-1.8008,-1.8065,-1.8305,-1.9128,-2.1945,-2.4176,-2.5368,-2.6308,-2.703,-2.7871,-2.8109,-2.8662,-2.9551,-2.9769,-3.0381,-3.1347,-3.2399,-3.3139,-3.3341,-3.446,-3.5509,-3.6254,-3.739,-3.8347,-3.8437,-3.902,-3.9379,-3.9424,-3.9421,-3.9425,-3.9856,-4.0349,-4.2603,-4.3729,-4.3257,-4.2808,-4.2601,-4.1844,-4.117,-4.0696,-4.0341,-4.0189,-4.0138,-4.0104,-4.0087,-4.007,-4.0104,-4.0121,-4.0087,-4.0087,-4.0204,-4.0385,-4.0891,-4.1473,-4.208,-4.2652,-4.3099,-4.3324,-4.3269,-4.3431,-4.3501,-4.341,-4.341,-4.3479,-4.3479,-4.3479,-4.3479,-4.3479,-4.3479,-4.3479,-4.3479,-4.3479,-4.3479,-4.3479,-4.3479,-4.3479,-4.3479,-4.3479,-2.0576,-2.0576,-2.0576,-2.0576,-2.0576,-2.0576,-2.0576,-2.0576,-2.0576,-2.0576,-2.0576,-2.0566,-2.0605,-2.0526,-2.034,-1.9912,-1.9287,-1.9268,-1.8857,-1.8398,-1.8447,-1.8408,-1.8105,-1.8008,-1.8008,-1.8008,-1.8008,-1.8008,-1.7959,-1.7754,-1.7764,-1.7861,-1.7656,-1.7725,-1.8086,-1.8203,-1.8154,-1.8183,-1.8025,-1.8492,-1.9928,-2.1983,-2.3883,-2.4992,-2.5955,-2.6979,-2.7971,-2.8109,-2.8712,-2.9462,-2.988,-3.0274,-3.1392,-3.2453,-3.3043,-3.3322,-3.4593,-3.5264,-3.5997,-3.7492,-3.8706,-3.8751,-3.9125,-3.9349,-3.9424,-3.9379,-3.9373,-3.9428,-4.0117,-4.1209,-4.3186,-4.3254,-4.2956,-4.2807,-4.2337,-4.1576,-4.1322,-4.0915,-4.0408,-4.029,-4.0172,-4.0121,-4.0104,-4.0087,-4.0087,-4.0087,-4.0087,-4.0171,-4.0336,-4.0703,-4.1223,-4.1839,-4.2417,-4.3001,-4.3162,-4.2989,-4.3213,-4.347,-4.3324,-4.3214,-4.3356,-4.3479,-4.3479,-4.3479,-4.3479,-4.3479,-4.3479,-4.3479,-4.3479,-4.3479,-4.3479,-4.3479,-4.3479,-4.3479,-4.3479,-2.0576,-2.0576,-2.0576,-2.0576,-2.0576,-2.0576,-2.0576,-2.0576,-2.0576,-2.0576,-2.0576,-2.0634,-2.0564,-2.043,-1.9732,-1.9414,-1.9316,-1.9307,-1.9053,-1.8574,-1.8672,-1.8516,-1.8066,-1.8008,-1.8027,-1.8018,-1.8008,-1.8008,-1.7988,-1.792,-1.792,-1.7969,-1.7978,-1.8125,-1.8428,-1.8457,-1.876,-1.8922,-1.8432,-1.8822,-2.0378,-2.2093,-2.3598,-2.4803,-2.5996,-2.7017,-2.7959,-2.8197,-2.8725,-2.9601,-2.9757,-3.0355,-3.1392,-3.2466,-3.2968,-3.37,-3.4817,-3.6101,-3.6359,-3.7823,-3.9098,-3.9083,-3.9364,-3.9424,-3.9424,-3.9424,-3.9436,-3.9421,-4.0498,-4.1433,-4.2445,-4.3453,-4.3675,-4.3529,-4.3006,-4.2554,-4.2252,-4.1627,-4.1066,-4.0779,-4.0729,-4.0375,-4.0155,-4.0104,-4.0087,-4.0087,-4.0121,-4.0171,-4.0286,-4.0577,-4.078,-4.1293,-4.1576,-4.2097,-4.2521,-4.2386,-4.2788,-4.3194,-4.3287,-4.3105,-4.3321,-4.3479,-4.3479,-4.3479,-4.3479,-4.3479,-4.3479,-4.3479,-4.3479,-4.3479,-4.3479,-4.3479,-4.3479,-4.3479,-4.3497,-1.9797,-2.0566,-2.0576,-2.0576,-2.0576,-2.0576,-2.0576,-2.0576,-2.0576,-2.0576,-2.0576,-2.0566,-2.0505,-2.0062,-1.9091,-1.8889,-1.9234,-1.9492,-1.9238,-1.8916,-1.8994,-1.8857,-1.8163,-1.8036,-1.8016,-1.8027,-1.8008,-1.8008,-1.8008,-1.8008,-1.8008,-1.8008,-1.8037,-1.8193,-1.8643,-1.8572,-1.8887,-1.9107,-1.9194,-1.9629,-2.0777,-2.2269,-2.3519,-2.4192,-2.592,-2.7189,-2.7861,-2.8473,-2.8925,-2.9689,-2.9757,-3.0274,-3.136,-3.2378,-3.3081,-3.324,-3.4485,-3.5494,-3.6277,-3.7663,-3.862,-3.9265,-3.9352,-3.9424,-3.9424,-3.9424,-3.9424,-3.9409,-4.006,-4.0706,-4.1346,-4.2379,-4.3005,-4.3215,-4.3339,-4.3238,-4.282,-4.2317,-4.1811,-4.154,-4.1219,-4.0763,-4.0358,-4.0121,-4.0087,-4.0087,-4.0087,-4.0121,-4.0171,-4.0254,-4.0466,-4.0659,-4.0758,-4.0928,-4.1332,-4.1538,-4.2154,-4.2668,-4.3323,-4.3266,-4.3391,-4.3479,-4.3479,-4.3479,-4.3479,-4.3479,-4.3479,-4.3479,-4.3479,-4.3479,-4.3479,-4.3479,-4.3479,-4.3552,-4.3626,-1.9289,-2.0566,-2.0576,-2.0576,-2.0576,-2.0576,-2.0576,-2.0576,-2.0576,-2.0576,-2.0595,-2.0535,-2.0315,-1.9584,-1.8711,-1.8404,-1.8965,-1.9512,-1.9403,-1.9337,-1.9442,-1.933,-1.873,-1.8414,-1.8023,-1.8008,-1.8008,-1.8008,-1.8037,-1.8105,-1.8164,-1.8027,-1.8174,-1.8428,-1.873,-1.9004,-1.9277,-1.9697,-1.9951,-2.0183,-2.0833,-2.219,-2.2881,-2.3869,-2.5407,-2.716,-2.7705,-2.8537,-2.9189,-2.9849,-2.9819,-3.0323,-3.1352,-3.2381,-3.3031,-3.324,-3.4024,-3.4733,-3.5762,-3.7035,-3.8069,-3.8782,-3.9352,-3.9424,-3.9424,-3.9424,-3.9424,-3.9424,-3.9511,-4.0017,-4.0659,-4.1528,-4.2267,-4.2862,-4.3123,-4.3287,-4.3312,-4.3019,-4.2875,-4.2828,-4.2233,-4.1116,-4.0696,-4.0273,-4.0104,-4.0087,-4.0087,-4.0087,-4.0121,-4.0121,-4.0221,-4.0336,-4.0412,-4.0486,-4.0722,-4.1039,-4.159,-4.2232,-4.294,-4.3318,-4.3426,-4.3479,-4.3479,-4.3479,-4.3479,-4.3479,-4.3479,-4.3479,-4.3479,-4.3479,-4.3479,-4.3479,-4.3497,-4.3589,-4.3791,-1.9279,-2.0576,-2.0576,-2.0576,-2.0576,-2.0576,-2.0576,-2.0576,-2.0566,-2.0518,-2.0438,-2.0517,-2.0146,-1.9291,-1.8521,-1.8114,-1.8242,-1.8965,-1.9423,-1.9798,-1.9968,-1.9885,-1.9324,-1.8669,-1.8091,-1.7988,-1.8008,-1.8008,-1.8105,-1.8389,-1.8291,-1.8115,-1.8467,-1.8838,-1.9219,-1.9561,-1.9883,-2.0225,-2.041,-2.0439,-2.0844,-2.1649,-2.2199,-2.2842,-2.4528,-2.6151,-2.6752,-2.8237,-2.944,-3.0382,-3.0226,-3.0376,-3.1456,-3.2506,-3.3031,-3.324,-3.3313,-3.3953,-3.4897,-3.6318,-3.7587,-3.8144,-3.8782,-3.9424,-3.9424,-3.9424,-3.9424,-3.9394,-3.941,-3.971,-4.0551,-4.1412,-4.1869,-4.2109,-4.2557,-4.3102,-4.339,-4.386,-4.3755,-4.3956,-4.3301,-4.2117,-4.1066,-4.0645,-4.024,-4.0189,-4.0087,-4.0087,-4.0087,-4.0121,-4.0121,-4.0171,-4.0171,-4.0269,-4.0419,-4.092,-4.1775,-4.239,-4.2973,-4.3251,-4.3426,-4.3444,-4.3479,-4.3479,-4.3479,-4.3479,-4.3479,-4.3479,-4.3479,-4.3479,-4.3479,-4.3479,-4.3718,-4.3938,-4.4121,-1.8841,-2.0566,-2.0576,-2.0576,-2.0576,-2.0576,-2.0576,-2.0557,-2.0343,-2.0023,-1.987,-2.0313,-2.0078,-1.9295,-1.8479,-1.8286,-1.886,-1.9768,-1.99,-2.0154,-2.0414,-2.0441,-1.9839,-1.9144,-1.8601,-1.8105,-1.8037,-1.837,-1.8805,-1.8742,-1.8779,-1.8809,-1.8984,-1.9277,-1.9678,-2.0029,-2.0361,-2.0488,-2.0576,-2.0576,-2.0789,-2.1471,-2.2164,-2.2632,-2.4963,-2.6391,-2.7232,-2.8657,-2.9686,-3.039,-3.0586,-3.1083,-3.1497,-3.2582,-3.3018,-3.3081,-3.3081,-3.3398,-3.3869,-3.521,-3.6318,-3.7919,-3.8708,-3.9424,-3.9424,-3.9424,-3.9424,-3.9406,-3.9429,-3.9652,-3.9899,-4.0638,-4.1213,-4.1412,-4.1869,-4.2583,-4.3169,-4.368,-4.4186,-4.4193,-4.3745,-4.2881,-4.1895,-4.098,-4.0628,-4.0307,-4.0172,-4.0121,-4.0273,-4.0189,-4.0206,-4.0121,-4.0104,-4.0118,-4.0251,-4.1086,-4.1998,-4.2512,-4.2972,-4.3176,-4.3375,-4.3479,-4.3479,-4.3479,-4.3479,-4.3479,-4.3479,-4.3479,-4.3479,-4.3479,-4.3479,-4.3479,-4.3809,-4.4195,-4.436,-1.863,-2.0489,-2.0576,-2.0576,-2.0576,-2.0576,-2.0576,-2.0557,-2.0265,-1.9973,-1.9697,-2.0096,-1.9979,-1.9365,-1.9144,-1.8854,-1.9436,-1.9968,-2.0173,-2.0447,-2.0771,-2.0856,-2.0216,-1.9604,-1.9131,-1.8337,-1.8398,-1.8803,-1.913,-1.9046,-1.918,-1.9414,-1.9609,-1.9834,-1.9893,-2.0322,-2.0566,-2.0576,-2.0576,-2.0576,-2.0722,-2.1326,-2.1824,-2.2412,-2.4437,-2.5599,-2.6572,-2.783,-2.929,-3.0146,-3.0842,-3.1637,-3.2068,-3.2544,-3.3006,-3.3081,-3.3081,-3.3081,-3.3398,-3.4498,-3.5922,-3.7587,-3.8797,-3.9265,-3.9424,-3.9424,-3.9424,-3.9424,-3.9409,-3.9424,-3.9409,-3.999,-4.0324,-4.0447,-4.1147,-4.1804,-4.2599,-4.3229,-4.3881,-4.4367,-4.3914,-4.3668,-4.3054,-4.2134,-4.1507,-4.1238,-4.1204,-4.1119,-4.1085,-4.0882,-4.0392,-4.0256,-4.0088,-4.0101,-4.0172,-4.0694,-4.13,-4.2197,-4.262,-4.3048,-4.3286,-4.341,-4.3479,-4.3479,-4.3479,-4.3479,-4.3479,-4.3479,-4.3479,-4.3479,-4.3479,-4.3479,-4.3718,-4.4066,-4.4305,-1.863,-2.0489,-2.0576,-2.0576,-2.0576,-2.0576,-2.0576,-2.0557,-2.0498,-2.0404,-2.0196,-1.9727,-1.9645,-1.985,-1.9992,-1.9839,-1.958,-1.991,-2.0336,-2.0818,-2.1004,-2.0974,-2.0897,-2.0441,-1.9703,-1.8587,-1.8836,-1.9357,-1.9389,-1.9521,-1.9756,-1.9961,-2.0146,-2.0234,-2.0,-2.0342,-2.0547,-2.0576,-2.0576,-2.0576,-2.0722,-2.1076,-2.1382,-2.209,-2.358,-2.4746,-2.5436,-2.7036,-2.8438,-2.9371,-3.0897,-3.1921,-3.2777,-3.2902,-3.3154,-3.3081,-3.3081,-3.3081,-3.324,-3.5034,-3.6383,-3.742,-3.8383,-3.9104,-3.9337,-3.9424,-3.9424,-3.9424,-3.9424,-3.9424,-3.9424,-3.9481,-3.9538,-3.9809,-4.0447,-4.1028,-4.1804,-4.2661,-4.33,-4.432,-4.4524,-4.4456,-4.3994,-4.3359,-4.2591,-4.2269,-4.2269,-4.2134,-4.1914,-4.1525,-4.0966,-4.0323,-4.0104,-4.0121,-4.0131,-4.01,-4.0602,-4.1558,-4.232,-4.2752,-4.316,-4.3444,-4.3479,-4.3479,-4.3479,-4.3479,-4.3479,-4.3479,-4.3479,-4.3479,-4.3479,-4.3534,-4.3754,-4.4011,-4.4323,-1.863,-2.0555,-2.0564,-2.0625,-2.0586,-2.0576,-2.0576,-2.0518,-2.0283,-2.0012,-1.9697,-1.9336,-1.9514,-1.9948,-2.0317,-2.0302,-1.9915,-2.0624,-2.1146,-2.0497,-2.1019,-2.111,-2.1009,-2.0687,-2.021,-1.9932,-2.0103,-2.0112,-2.0207,-2.0112,-2.0137,-2.0342,-2.0439,-2.0469,-2.041,-2.0527,-2.0566,-2.0576,-2.0576,-2.0576,-2.0625,-2.1016,-2.1406,-2.166,-2.334,-2.4179,-2.4493,-2.6229,-2.7416,-2.8669,-3.0449,-3.1747,-3.2718,-3.3013,-3.3068,-3.3081,-3.3081,-3.3081,-3.3398,-3.4415,-3.5588,-3.671,-3.7738,-3.8694,-3.9265,-3.9352,-3.9424,-3.9424,-3.9424,-3.9424,-3.9424,-3.9424,-3.9481,-3.9481,-3.992,-4.0309,-4.1028,-4.1885,-4.274,-4.3979,-4.4555,-4.457,-4.427,-4.3952,-4.3284,-4.3064,-4.3014,-4.2642,-4.2354,-4.2066,-4.1574,-4.0557,-4.0103,-4.0104,-4.0087,-4.008,-4.0562,-4.1594,-4.2121,-4.2444,-4.2847,-4.3391,-4.3479,-4.3479,-4.3479,-4.3479,-4.3479,-4.3479,-4.3479,-4.3479,-4.3789,-4.3754,-4.3791,-4.414,-4.4544,-1.7009,-1.8452,-1.9989,-2.0361,-2.0167,-2.0401,-2.0576,-2.0518,-2.0264,-1.9995,-1.9822,-1.9745,-1.986,-2.0232,-2.0434,-2.0539,-2.0213,-2.0722,-2.0947,-2.0242,-2.0984,-2.1028,-2.0767,-2.0602,-2.0515,-2.0631,-2.0625,-2.0607,-2.0529,-2.0252,-2.0303,-2.0478,-2.0576,-2.0547,-2.0547,-2.0557,-2.0576,-2.0566,-2.0575,-2.0593,-2.0731,-2.1102,-2.1535,-2.2138,-2.3046,-2.3924,-2.4374,-2.5348,-2.6606,-2.8103,-2.9654,-3.1097,-3.2131,-3.2874,-3.3006,-3.3081,-3.3081,-3.3081,-3.3398,-3.3556,-3.4664,-3.5601,-3.6958,-3.8246,-3.9106,-3.9399,-3.9382,-3.9424,-3.9424,-3.9424,-3.9424,-3.9424,-3.9424,-3.9409,-3.9538,-3.992,-4.05,-4.1412,-4.2318,-4.3555,-4.4523,-4.4548,-4.4547,-4.4299,-4.3876,-4.3809,-4.3758,-4.3318,-4.2844,-4.2489,-4.2219,-4.149,-4.0441,-4.0206,-4.0172,-4.0087,-4.0698,-4.1664,-4.2021,-4.2226,-4.294,-4.3479,-4.3479,-4.3479,-4.3479,-4.3479,-4.3479,-4.3497,-4.3699,-4.4101,-4.4595,-4.4413,-4.3993,-4.4433,-4.5076,-1.4052,-1.4743,-1.872,-1.9896,-1.9265,-2.0167,-2.0576,-2.0634,-2.0557,-2.0537,-2.0547,-2.0518,-2.0478,-2.0527,-2.0624,-2.0595,-2.0566,-2.0653,-2.0566,-2.0575,-2.076,-2.0644,-2.0644,-2.0615,-2.0605,-2.0624,-2.0633,-2.0602,-2.0615,-2.0546,-2.0498,-2.0557,-2.0566,-2.0625,-2.0654,-2.0713,-2.0644,-2.0624,-2.0604,-2.0822,-2.1172,-2.1342,-2.1733,-2.2246,-2.2883,-2.3238,-2.3724,-2.4327,-2.5411,-2.6936,-2.8619,-3.0119,-3.1335,-3.2491,-3.2867,-3.3081,-3.3081,-3.3081,-3.3167,-3.3326,-3.3628,-3.4746,-3.6429,-3.7959,-3.9073,-3.9373,-3.9387,-3.9427,-3.9424,-3.9424,-3.9424,-3.9424,-3.9424,-3.9424,-3.9424,-3.9793,-4.0378,-4.1102,-4.1936,-4.3009,-4.413,-4.454,-4.4539,-4.4423,-4.4243,-4.4265,-4.4181,-4.4164,-4.3639,-4.2878,-4.2695,-4.2788,-4.1681,-4.046,-4.0239,-4.0104,-4.0737,-4.1639,-4.1853,-4.2144,-4.2885,-4.3479,-4.3479,-4.3479,-4.3479,-4.3479,-4.3479,-4.3754,-4.4175,-4.4634,-4.5477,-4.5368,-4.5056,-4.5424,-4.5938,-1.3071,-1.3791,-1.7145,-1.8731,-1.9107,-2.0167,-2.0576,-2.0576,-2.0576,-2.0576,-2.0576,-2.0576,-2.0586,-2.0576,-2.0566,-2.0576,-2.0586,-2.0566,-2.0644,-2.0576,-2.0576,-2.0576,-2.0576,-2.0576,-2.0576,-2.0576,-2.0576,-2.0576,-2.0566,-2.0576,-2.0576,-2.0566,-2.0576,-2.0713,-2.0909,-2.1046,-2.0879,-2.0745,-2.074,-2.1318,-2.1762,-2.1952,-2.2116,-2.2395,-2.2812,-2.3105,-2.3309,-2.3474,-2.4638,-2.6474,-2.7776,-2.928,-3.1297,-3.2416,-3.3081,-3.3081,-3.3081,-3.3081,-3.3081,-3.3081,-3.3326,-3.3815,-3.5243,-3.7274,-3.8572,-3.9232,-3.9253,-3.9402,-3.9412,-3.9424,-3.9424,-3.9424,-3.9424,-3.9424,-3.9424,-3.961,-4.006,-4.0524,-4.1304,-4.1456,-4.2653,-4.3854,-4.3962,-4.4545,-4.4474,-4.4514,-4.4553,-4.4519,-4.4164,-4.3301,-4.2692,-4.277,-4.2159,-4.0714,-4.0273,-4.0087,-4.0814,-4.1464,-4.176,-4.2221,-4.3014,-4.3479,-4.3479,-4.3479,-4.3479,-4.3479,-4.3479,-4.3809,-4.4105,-4.5643,-4.647,-4.6287,-4.6214,-4.6507,-4.682,-1.2606,-1.3519,-1.6505,-1.8473,-1.964,-2.0323,-2.0576,-2.0576,-2.0576,-2.0576,-2.0576,-2.0576,-2.0654,-2.0801,-2.0684,-2.0664,-2.084,-2.0644,-2.0576,-2.0576,-2.0576,-2.0576,-2.0576,-2.0576,-2.0576,-2.0576,-2.0576,-2.0576,-2.0576,-2.0576,-2.0576,-2.0576,-2.0576,-2.0859,-2.1084,-2.132,-2.1396,-2.1221,-2.1322,-2.1997,-2.235,-2.2565,-2.2598,-2.2522,-2.2853,-2.3096,-2.3144,-2.3144,-2.4307,-2.6218,-2.7397,-2.8946,-3.1026,-3.2416,-3.3056,-3.3081,-3.3081,-3.3081,-3.3081,-3.3081,-3.3081,-3.3379,-3.4212,-3.5578,-3.7254,-3.8296,-3.8928,-3.9429,-3.9416,-3.9424,-3.9424,-3.9424,-3.9424,-3.9424,-3.9424,-3.9424,-3.9681,-3.9935,-3.9971,-3.9945,-4.0934,-4.2381,-4.3293,-4.4005,-4.4431,-4.4205,-4.4192,-4.4282,-4.3859,-4.3115,-4.2402,-4.21,-4.1595,-4.0765,-4.0426,-4.0171,-4.0814,-4.1445,-4.198,-4.2503,-4.3233,-4.3516,-4.3552,-4.3534,-4.3479,-4.3497,-4.3481,-4.3648,-4.4106,-4.5846,-4.7335,-4.7279,-4.7224,-4.7388,-4.7647,-1.2607,-1.3244,-1.6403,-1.8702,-2.0353,-2.0489,-2.0576,-2.0576,-2.0576,-2.0576,-2.0576,-2.0576,-2.0762,-2.0879,-2.0713,-2.0762,-2.082,-2.0693,-2.0576,-2.0576,-2.0576,-2.0576,-2.0576,-2.0576,-2.0576,-2.0576,-2.0576,-2.0576,-2.0586,-2.0644,-2.0713,-2.0596,-2.0762,-2.1035,-2.1367,-2.1712,-2.1894,-2.1976,-2.1988,-2.2399,-2.2804,-2.3001,-2.2978,-2.2725,-2.291,-2.3144,-2.3144,-2.3474,-2.4145,-2.5719,-2.7356,-2.8748,-3.1038,-3.2453,-3.2943,-3.3081,-3.3081,-3.3081,-3.3081,-3.3081,-3.3081,-3.3244,-3.3645,-3.4311,-3.5618,-3.7414,-3.8232,-3.9247,-3.9432,-3.9427,-3.9424,-3.9424,-3.9424,-3.9424,-3.9424,-3.9424,-3.9481,-3.9666,-3.9657,-3.9588,-3.9884,-4.1191,-4.1789,-4.2528,-4.368,-4.3588,-4.3939,-4.4193,-4.3724,-4.3031,-4.2385,-4.1741,-4.1052,-4.0578,-4.0358,-4.0254,-4.0784,-4.1346,-4.2078,-4.2638,-4.3305,-4.3536,-4.3663,-4.3864,-4.4031,-4.3628,-4.352,-4.3669,-4.4547,-4.6856,-4.8034,-4.818,-4.8234,-4.8122,-4.8218,-1.2993,-1.3639,-1.6309,-1.8188,-1.9423,-2.0245,-2.0576,-2.0576,-2.0576,-2.0576,-2.0576,-2.0576,-2.0644,-2.0762,-2.0664,-2.0703,-2.0703,-2.0693,-2.0596,-2.0576,-2.0576,-2.0576,-2.0576,-2.0576,-2.0576,-2.0576,-2.0576,-2.0732,-2.0752,-2.0879,-2.0918,-2.0723,-2.1055,-2.1553,-2.1719,-2.2148,-2.2414,-2.263,-2.266,-2.2727,-2.3006,-2.3122,-2.3066,-2.2998,-2.3135,-2.3144,-2.3144,-2.3222,-2.3973,-2.5158,-2.7015,-2.9464,-3.2459,-3.2832,-3.3056,-3.3081,-3.3081,-3.3081,-3.3081,-3.3081,-3.3081,-3.3219,-3.3458,-3.3558,-3.435,-3.6115,-3.7583,-3.8673,-3.9417,-3.943,-3.9424,-3.9424,-3.9424,-3.9424,-3.9424,-3.9424,-3.9424,-3.9379,-3.9406,-3.942,-3.9382,-3.9831,-4.0431,-4.1374,-4.2476,-4.338,-4.4128,-4.435,-4.3876,-4.325,-4.2608,-4.1861,-4.0729,-4.024,-4.0104,-4.0322,-4.0793,-4.1625,-4.2457,-4.2972,-4.3504,-4.3995,-4.4452,-4.4618,-4.4656,-4.4289,-4.3925,-4.3689,-4.4985,-4.7463,-4.831,-4.8307,-4.8326,-4.8233,-4.8495,-1.3013,-1.3549,-1.6008,-1.7834,-1.9097,-2.0157,-2.0576,-2.0576,-2.0576,-2.0576,-2.0576,-2.0586,-2.0664,-2.0742,-2.0674,-2.0732,-2.0752,-2.0635,-2.0596,-2.0576,-2.0635,-2.0576,-2.0576,-2.0693,-2.0576,-2.0596,-2.1036,-2.1263,-2.1193,-2.1309,-2.1377,-2.1211,-2.1719,-2.2002,-2.2183,-2.2429,-2.2685,-2.3086,-2.3135,-2.3144,-2.3144,-2.3144,-2.3144,-2.3144,-2.3144,-2.3144,-2.3144,-2.3135,-2.38,-2.553,-2.7901,-2.9304,-3.1516,-3.2364,-3.3031,-3.3081,-3.3081,-3.3081,-3.3081,-3.3081,-3.3081,-3.3219,-3.3269,-3.3332,-3.3318,-3.501,-3.6742,-3.794,-3.9232,-3.9387,-3.9384,-3.9424,-3.9424,-3.9424,-3.9424,-3.9424,-3.9424,-3.9409,-3.9379,-3.9376,-3.938,-3.9506,-4.0216,-4.1257,-4.2266,-4.2794,-4.3588,-4.4463,-4.4028,-4.3589,-4.2912,-4.2236,-4.1255,-4.0375,-4.0104,-4.0323,-4.0705,-4.1696,-4.2758,-4.3985,-4.4839,-4.5022,-4.5296,-4.5462,-4.5425,-4.5059,-4.4675,-4.4783,-4.5625,-4.7831,-4.829,-4.8306,-4.8324,-4.8344,-4.864,-1.299,-1.3374,-1.5662,-1.7426,-1.8603,-1.9678,-2.0167,-2.0323,-2.042,-2.0498,-2.0576,-2.0576,-2.082,-2.0889,-2.0889,-2.1025,-2.1084,-2.1025,-2.0859,-2.084,-2.085,-2.0948,-2.0997,-2.083,-2.0948,-2.1204,-2.163,-2.1787,-2.1728,-2.1875,-2.1934,-2.1924,-2.2051,-2.2197,-2.2438,-2.2601,-2.2768,-2.2998,-2.3144,-2.3144,-2.3144,-2.3144,-2.3144,-2.3144,-2.3144,-2.3144,-2.3144,-2.3368,-2.3784,-2.5183,-2.7573,-2.9132,-3.0775,-3.2066,-3.2785,-3.3071,-3.3119,-3.3106,-3.3081,-3.3081,-3.3081,-3.3106,-3.3081,-3.3129,-3.3152,-3.3972,-3.5774,-3.6847,-3.8061,-3.9086,-3.9092,-3.9192,-3.9192,-3.9424,-3.9424,-3.9424,-3.9424,-3.9424,-3.9424,-3.9424,-3.9409,-3.9379,-4.003,-4.1064,-4.1837,-4.23,-4.3075,-4.3905,-4.4316,-4.3927,-4.342,-4.2912,-4.2289,-4.1425,-4.0426,-4.0256,-4.0574,-4.1829,-4.2997,-4.4759,-4.6043,-4.6048,-4.6159,-4.6379,-4.6232,-4.614,-4.6452,-4.6745,-4.7756,-4.8235,-4.8271,-4.8324,-4.8324,-4.8402,-4.8763,-1.3431,-1.4007,-1.5405,-1.6129,-1.6511,-1.7568,-1.8461,-1.9213,-1.9347,-1.9752,-2.043,-2.0576,-2.0644,-2.0723,-2.1045,-2.123,-2.1328,-2.1367,-2.1582,-2.165,-2.1465,-2.1531,-2.1541,-2.1377,-2.1582,-2.1883,-2.2237,-2.2367,-2.2252,-2.2305,-2.2227,-2.2002,-2.2685,-2.2744,-2.2529,-2.2742,-2.2997,-2.3144,-2.3144,-2.3144,-2.3144,-2.3144,-2.3144,-2.3144,-2.3144,-2.3144,-2.3213,-2.3496,-2.3702,-2.4356,-2.5306,-2.745,-2.9488,-3.1407,-3.2521,-3.3146,-3.3096,-3.3106,-3.3081,-3.3081,-3.3081,-3.3081,-3.3081,-3.3081,-3.3129,-3.3129,-3.4321,-3.4476,-3.5814,-3.7515,-3.7882,-3.8188,-3.8323,-3.9104,-3.9424,-3.9424,-3.9424,-3.9424,-3.9424,-3.9424,-3.9424,-3.9409,-3.9538,-4.0607,-4.1644,-4.233,-4.335,-4.4095,-4.4147,-4.3978,-4.3859,-4.3542,-4.3102,-4.1878,-4.066,-4.0189,-4.0525,-4.1786,-4.3394,-4.5402,-4.6618,-4.6835,-4.7003,-4.7186,-4.7517,-4.7571,-4.7994,-4.7922,-4.8087,-4.8289,-4.8288,-4.8324,-4.8324,-4.8457,-4.8785]}]]